<?xml version="1.0" encoding="UTF-8" standalone="no" ?><gpx xmlns="http://www.topografix.com/GPX/1/1" xmlns:gpxx="http://www.garmin.com/xmlschemas/GpxExtensions/v3" xmlns:wptx1="http://www.garmin.com/xmlschemas/WaypointExtension/v1" xmlns:gpxtpx="http://www.garmin.com/xmlschemas/TrackPointExtension/v1" creator="GuideVTT.com" version="1.1" xmlns:xsi="http://www.w3.org/2001/XMLSchema-instance" xsi:schemaLocation="http://www.topografix.com/GPX/1/1 http://www.topografix.com/GPX/1/1/gpx.xsd http://www.garmin.com/xmlschemas/GpxExtensions/v3 http://www8.garmin.com/xmlschemas/GpxExtensionsv3.xsd http://www.garmin.com/xmlschemas/WaypointExtension/v1 http://www8.garmin.com/xmlschemas/WaypointExtensionv1.xsd http://www.garmin.com/xmlschemas/TrackPointExtension/v1 http://www.garmin.com/xmlschemas/TrackPointExtensionv1.xsd">
<metadata><link href="http://www.garmin.com"><text>Garmin International</text></link><time>2013-06-22T15:13:50Z</time></metadata>
<trk><name>bulle-saint_saturnin_etape3.gpx</name><extensions><gpxx:TrackExtension><gpxx:DisplayColor>Cyan</gpxx:DisplayColor></gpxx:TrackExtension></extensions><trkseg>
<trkpt lat="45.12707400" lon="6.03555000"><ele></ele><time>2014-4-4T14:45:25Z</time></trkpt>
<trkpt lat="45.12708700" lon="6.03552300"><ele></ele><time>2014-4-4T14:45:28Z</time></trkpt>
<trkpt lat="45.12708700" lon="6.03552400"><ele></ele><time>2014-4-4T14:45:31Z</time></trkpt>
<trkpt lat="45.12703400" lon="6.03533000"><ele></ele><time>2014-4-4T14:45:34Z</time></trkpt>
<trkpt lat="45.12694400" lon="6.03503800"><ele></ele><time>2014-4-4T14:45:37Z</time></trkpt>
<trkpt lat="45.12676300" lon="6.03458300"><ele></ele><time>2014-4-4T14:45:40Z</time></trkpt>
<trkpt lat="45.12658000" lon="6.03413100"><ele></ele><time>2014-4-4T14:45:43Z</time></trkpt>
<trkpt lat="45.12637600" lon="6.03364100"><ele></ele><time>2014-4-4T14:45:46Z</time></trkpt>
<trkpt lat="45.12613300" lon="6.03303800"><ele></ele><time>2014-4-4T14:45:49Z</time></trkpt>
<trkpt lat="45.12582300" lon="6.03226700"><ele></ele><time>2014-4-4T14:45:52Z</time></trkpt>
<trkpt lat="45.12560300" lon="6.03171200"><ele></ele><time>2014-4-4T14:45:55Z</time></trkpt>
<trkpt lat="45.12541300" lon="6.03124400"><ele></ele><time>2014-4-4T14:45:58Z</time></trkpt>
<trkpt lat="45.12519500" lon="6.03071600"><ele></ele><time>2014-4-4T14:46:1Z</time></trkpt>
<trkpt lat="45.12494900" lon="6.03011200"><ele></ele><time>2014-4-4T14:46:4Z</time></trkpt>
<trkpt lat="45.12472400" lon="6.02956000"><ele></ele><time>2014-4-4T14:46:7Z</time></trkpt>
<trkpt lat="45.12453200" lon="6.02907200"><ele></ele><time>2014-4-4T14:46:10Z</time></trkpt>
<trkpt lat="45.12431800" lon="6.02857000"><ele></ele><time>2014-4-4T14:46:13Z</time></trkpt>
<trkpt lat="45.12409400" lon="6.02809100"><ele></ele><time>2014-4-4T14:46:16Z</time></trkpt>
<trkpt lat="45.12404800" lon="6.02798600"><ele></ele><time>2014-4-4T14:46:19Z</time></trkpt>
<trkpt lat="45.12404100" lon="6.02795800"><ele></ele><time>2014-4-4T14:46:22Z</time></trkpt>
<trkpt lat="45.12403100" lon="6.02793100"><ele></ele><time>2014-4-4T14:46:25Z</time></trkpt>
<trkpt lat="45.12402900" lon="6.02792700"><ele></ele><time>2014-4-4T14:46:28Z</time></trkpt>
<trkpt lat="45.12399400" lon="6.02786000"><ele></ele><time>2014-4-4T14:46:31Z</time></trkpt>
<trkpt lat="45.12393600" lon="6.02772900"><ele></ele><time>2014-4-4T14:46:34Z</time></trkpt>
<trkpt lat="45.12393100" lon="6.02766500"><ele></ele><time>2014-4-4T14:46:37Z</time></trkpt>
<trkpt lat="45.12392200" lon="6.02763100"><ele></ele><time>2014-4-4T14:46:40Z</time></trkpt>
<trkpt lat="45.12382700" lon="6.02747600"><ele></ele><time>2014-4-4T14:46:43Z</time></trkpt>
<trkpt lat="45.12371600" lon="6.02720000"><ele></ele><time>2014-4-4T14:46:46Z</time></trkpt>
<trkpt lat="45.12358600" lon="6.02688200"><ele></ele><time>2014-4-4T14:46:49Z</time></trkpt>
<trkpt lat="45.12352800" lon="6.02666400"><ele></ele><time>2014-4-4T14:46:52Z</time></trkpt>
<trkpt lat="45.12339300" lon="6.02630000"><ele></ele><time>2014-4-4T14:46:55Z</time></trkpt>
<trkpt lat="45.12322900" lon="6.02584100"><ele></ele><time>2014-4-4T14:46:58Z</time></trkpt>
<trkpt lat="45.12303800" lon="6.02536200"><ele></ele><time>2014-4-4T14:47:1Z</time></trkpt>
<trkpt lat="45.12293600" lon="6.02508800"><ele></ele><time>2014-4-4T14:47:4Z</time></trkpt>
<trkpt lat="45.12293100" lon="6.02507300"><ele></ele><time>2014-4-4T14:47:7Z</time></trkpt>
<trkpt lat="45.12288700" lon="6.02502100"><ele></ele><time>2014-4-4T14:47:10Z</time></trkpt>
<trkpt lat="45.12282200" lon="6.02485800"><ele></ele><time>2014-4-4T14:47:13Z</time></trkpt>
<trkpt lat="45.12264400" lon="6.02443100"><ele></ele><time>2014-4-4T14:47:16Z</time></trkpt>
<trkpt lat="45.12243400" lon="6.02380100"><ele></ele><time>2014-4-4T14:47:19Z</time></trkpt>
<trkpt lat="45.12227500" lon="6.02317700"><ele></ele><time>2014-4-4T14:47:22Z</time></trkpt>
<trkpt lat="45.12209100" lon="6.02285900"><ele></ele><time>2014-4-4T14:47:25Z</time></trkpt>
<trkpt lat="45.12191400" lon="6.02272100"><ele></ele><time>2014-4-4T14:47:28Z</time></trkpt>
<trkpt lat="45.12150300" lon="6.02257200"><ele></ele><time>2014-4-4T14:47:31Z</time></trkpt>
<trkpt lat="45.12130200" lon="6.02241700"><ele></ele><time>2014-4-4T14:47:34Z</time></trkpt>
<trkpt lat="45.12104600" lon="6.02201000"><ele></ele><time>2014-4-4T14:47:37Z</time></trkpt>
<trkpt lat="45.12092200" lon="6.02154700"><ele></ele><time>2014-4-4T14:47:40Z</time></trkpt>
<trkpt lat="45.12077000" lon="6.02087900"><ele></ele><time>2014-4-4T14:47:43Z</time></trkpt>
<trkpt lat="45.12055800" lon="6.02036500"><ele></ele><time>2014-4-4T14:47:46Z</time></trkpt>
<trkpt lat="45.12025300" lon="6.01963000"><ele></ele><time>2014-4-4T14:47:49Z</time></trkpt>
<trkpt lat="45.11991700" lon="6.01878900"><ele></ele><time>2014-4-4T14:47:52Z</time></trkpt>
<trkpt lat="45.11959200" lon="6.01811300"><ele></ele><time>2014-4-4T14:47:55Z</time></trkpt>
<trkpt lat="45.11921400" lon="6.01747900"><ele></ele><time>2014-4-4T14:47:58Z</time></trkpt>
<trkpt lat="45.11884700" lon="6.01700200"><ele></ele><time>2014-4-4T14:48:1Z</time></trkpt>
<trkpt lat="45.11840800" lon="6.01648600"><ele></ele><time>2014-4-4T14:48:4Z</time></trkpt>
<trkpt lat="45.11819700" lon="6.01621800"><ele></ele><time>2014-4-4T14:48:7Z</time></trkpt>
<trkpt lat="45.11778200" lon="6.01568800"><ele></ele><time>2014-4-4T14:48:10Z</time></trkpt>
<trkpt lat="45.11730500" lon="6.01509800"><ele></ele><time>2014-4-4T14:48:13Z</time></trkpt>
<trkpt lat="45.11676100" lon="6.01444400"><ele></ele><time>2014-4-4T14:48:16Z</time></trkpt>
<trkpt lat="45.11632800" lon="6.01399100"><ele></ele><time>2014-4-4T14:48:19Z</time></trkpt>
<trkpt lat="45.11598600" lon="6.01363100"><ele></ele><time>2014-4-4T14:48:22Z</time></trkpt>
<trkpt lat="45.11558000" lon="6.01320500"><ele></ele><time>2014-4-4T14:48:25Z</time></trkpt>
<trkpt lat="45.11521400" lon="6.01277200"><ele></ele><time>2014-4-4T14:48:28Z</time></trkpt>
<trkpt lat="45.11496700" lon="6.01224300"><ele></ele><time>2014-4-4T14:48:31Z</time></trkpt>
<trkpt lat="45.11484700" lon="6.01161400"><ele></ele><time>2014-4-4T14:48:34Z</time></trkpt>
<trkpt lat="45.11477000" lon="6.01075700"><ele></ele><time>2014-4-4T14:48:37Z</time></trkpt>
<trkpt lat="45.11468500" lon="6.00985300"><ele></ele><time>2014-4-4T14:48:40Z</time></trkpt>
<trkpt lat="45.11459400" lon="6.00889400"><ele></ele><time>2014-4-4T14:48:43Z</time></trkpt>
<trkpt lat="45.11454000" lon="6.00835500"><ele></ele><time>2014-4-4T14:48:46Z</time></trkpt>
<trkpt lat="45.11446700" lon="6.00763800"><ele></ele><time>2014-4-4T14:48:49Z</time></trkpt>
<trkpt lat="45.11438200" lon="6.00677000"><ele></ele><time>2014-4-4T14:48:52Z</time></trkpt>
<trkpt lat="45.11430500" lon="6.00602900"><ele></ele><time>2014-4-4T14:48:55Z</time></trkpt>
<trkpt lat="45.11428900" lon="6.00589600"><ele></ele><time>2014-4-4T14:48:58Z</time></trkpt>
<trkpt lat="45.11421400" lon="6.00570200"><ele></ele><time>2014-4-4T14:49:1Z</time></trkpt>
<trkpt lat="45.11415900" lon="6.00566500"><ele></ele><time>2014-4-4T14:49:4Z</time></trkpt>
<trkpt lat="45.11404900" lon="6.00563600"><ele></ele><time>2014-4-4T14:49:7Z</time></trkpt>
<trkpt lat="45.11381500" lon="6.00577400"><ele></ele><time>2014-4-4T14:49:10Z</time></trkpt>
<trkpt lat="45.11338500" lon="6.00594400"><ele></ele><time>2014-4-4T14:49:13Z</time></trkpt>
<trkpt lat="45.11280300" lon="6.00608400"><ele></ele><time>2014-4-4T14:49:16Z</time></trkpt>
<trkpt lat="45.11203800" lon="6.00627000"><ele></ele><time>2014-4-4T14:49:19Z</time></trkpt>
<trkpt lat="45.11151700" lon="6.00639500"><ele></ele><time>2014-4-4T14:49:22Z</time></trkpt>
<trkpt lat="45.11099500" lon="6.00651800"><ele></ele><time>2014-4-4T14:49:25Z</time></trkpt>
<trkpt lat="45.11044400" lon="6.00665700"><ele></ele><time>2014-4-4T14:49:28Z</time></trkpt>
<trkpt lat="45.10974600" lon="6.00682600"><ele></ele><time>2014-4-4T14:49:31Z</time></trkpt>
<trkpt lat="45.10904700" lon="6.00699500"><ele></ele><time>2014-4-4T14:49:34Z</time></trkpt>
<trkpt lat="45.10840800" lon="6.00715000"><ele></ele><time>2014-4-4T14:49:37Z</time></trkpt>
<trkpt lat="45.10769200" lon="6.00731900"><ele></ele><time>2014-4-4T14:49:40Z</time></trkpt>
<trkpt lat="45.10706000" lon="6.00746700"><ele></ele><time>2014-4-4T14:49:43Z</time></trkpt>
<trkpt lat="45.10637400" lon="6.00763400"><ele></ele><time>2014-4-4T14:49:46Z</time></trkpt>
<trkpt lat="45.10563400" lon="6.00781200"><ele></ele><time>2014-4-4T14:49:49Z</time></trkpt>
<trkpt lat="45.10483500" lon="6.00800400"><ele></ele><time>2014-4-4T14:49:52Z</time></trkpt>
<trkpt lat="45.10422700" lon="6.00817000"><ele></ele><time>2014-4-4T14:49:55Z</time></trkpt>
<trkpt lat="45.10384800" lon="6.00823900"><ele></ele><time>2014-4-4T14:49:58Z</time></trkpt>
<trkpt lat="45.10315800" lon="6.00840400"><ele></ele><time>2014-4-4T14:50:1Z</time></trkpt>
<trkpt lat="45.10259900" lon="6.00853400"><ele></ele><time>2014-4-4T14:50:4Z</time></trkpt>
<trkpt lat="45.10187700" lon="6.00869500"><ele></ele><time>2014-4-4T14:50:7Z</time></trkpt>
<trkpt lat="45.10120100" lon="6.00885300"><ele></ele><time>2014-4-4T14:50:10Z</time></trkpt>
<trkpt lat="45.10052500" lon="6.00901300"><ele></ele><time>2014-4-4T14:50:13Z</time></trkpt>
<trkpt lat="45.10004100" lon="6.00911900"><ele></ele><time>2014-4-4T14:50:16Z</time></trkpt>
<trkpt lat="45.09936000" lon="6.00928100"><ele></ele><time>2014-4-4T14:50:19Z</time></trkpt>
<trkpt lat="45.09868400" lon="6.00944700"><ele></ele><time>2014-4-4T14:50:22Z</time></trkpt>
<trkpt lat="45.09812700" lon="6.00955600"><ele></ele><time>2014-4-4T14:50:25Z</time></trkpt>
<trkpt lat="45.09774200" lon="6.00949000"><ele></ele><time>2014-4-4T14:50:28Z</time></trkpt>
<trkpt lat="45.09761200" lon="6.00949100"><ele></ele><time>2014-4-4T14:50:31Z</time></trkpt>
<trkpt lat="45.09736100" lon="6.00960000"><ele></ele><time>2014-4-4T14:50:34Z</time></trkpt>
<trkpt lat="45.09707000" lon="6.00980400"><ele></ele><time>2014-4-4T14:50:37Z</time></trkpt>
<trkpt lat="45.09663200" lon="6.00993600"><ele></ele><time>2014-4-4T14:50:40Z</time></trkpt>
<trkpt lat="45.09601700" lon="6.01007800"><ele></ele><time>2014-4-4T14:50:43Z</time></trkpt>
<trkpt lat="45.09539300" lon="6.01022000"><ele></ele><time>2014-4-4T14:50:46Z</time></trkpt>
<trkpt lat="45.09474800" lon="6.01038500"><ele></ele><time>2014-4-4T14:50:49Z</time></trkpt>
<trkpt lat="45.09424400" lon="6.01049700"><ele></ele><time>2014-4-4T14:50:52Z</time></trkpt>
<trkpt lat="45.09367400" lon="6.01063600"><ele></ele><time>2014-4-4T14:50:55Z</time></trkpt>
<trkpt lat="45.09302600" lon="6.01078700"><ele></ele><time>2014-4-4T14:50:58Z</time></trkpt>
<trkpt lat="45.09224400" lon="6.01098600"><ele></ele><time>2014-4-4T14:51:1Z</time></trkpt>
<trkpt lat="45.09168500" lon="6.01111100"><ele></ele><time>2014-4-4T14:51:4Z</time></trkpt>
<trkpt lat="45.09107000" lon="6.01125500"><ele></ele><time>2014-4-4T14:51:7Z</time></trkpt>
<trkpt lat="45.09069000" lon="6.01131400"><ele></ele><time>2014-4-4T14:51:10Z</time></trkpt>
<trkpt lat="45.09031400" lon="6.01144200"><ele></ele><time>2014-4-4T14:51:13Z</time></trkpt>
<trkpt lat="45.08985900" lon="6.01150800"><ele></ele><time>2014-4-4T14:51:16Z</time></trkpt>
<trkpt lat="45.08940800" lon="6.01164900"><ele></ele><time>2014-4-4T14:51:19Z</time></trkpt>
<trkpt lat="45.08863700" lon="6.01182700"><ele></ele><time>2014-4-4T14:51:22Z</time></trkpt>
<trkpt lat="45.08806100" lon="6.01196600"><ele></ele><time>2014-4-4T14:51:25Z</time></trkpt>
<trkpt lat="45.08747900" lon="6.01211100"><ele></ele><time>2014-4-4T14:51:28Z</time></trkpt>
<trkpt lat="45.08688600" lon="6.01226700"><ele></ele><time>2014-4-4T14:51:31Z</time></trkpt>
<trkpt lat="45.08632600" lon="6.01243800"><ele></ele><time>2014-4-4T14:51:34Z</time></trkpt>
<trkpt lat="45.08599400" lon="6.01248500"><ele></ele><time>2014-4-4T14:51:37Z</time></trkpt>
<trkpt lat="45.08554000" lon="6.01256600"><ele></ele><time>2014-4-4T14:51:40Z</time></trkpt>
<trkpt lat="45.08484600" lon="6.01272400"><ele></ele><time>2014-4-4T14:51:43Z</time></trkpt>
<trkpt lat="45.08432200" lon="6.01285300"><ele></ele><time>2014-4-4T14:51:46Z</time></trkpt>
<trkpt lat="45.08373400" lon="6.01298900"><ele></ele><time>2014-4-4T14:51:49Z</time></trkpt>
<trkpt lat="45.08291100" lon="6.01318700"><ele></ele><time>2014-4-4T14:51:52Z</time></trkpt>
<trkpt lat="45.08217500" lon="6.01337000"><ele></ele><time>2014-4-4T14:51:55Z</time></trkpt>
<trkpt lat="45.08149800" lon="6.01352800"><ele></ele><time>2014-4-4T14:51:58Z</time></trkpt>
<trkpt lat="45.08075200" lon="6.01370500"><ele></ele><time>2014-4-4T14:52:1Z</time></trkpt>
<trkpt lat="45.08015000" lon="6.01384400"><ele></ele><time>2014-4-4T14:52:4Z</time></trkpt>
<trkpt lat="45.07937900" lon="6.01402400"><ele></ele><time>2014-4-4T14:52:7Z</time></trkpt>
<trkpt lat="45.07885300" lon="6.01414100"><ele></ele><time>2014-4-4T14:52:10Z</time></trkpt>
<trkpt lat="45.07820900" lon="6.01429200"><ele></ele><time>2014-4-4T14:52:13Z</time></trkpt>
<trkpt lat="45.07756400" lon="6.01445000"><ele></ele><time>2014-4-4T14:52:16Z</time></trkpt>
<trkpt lat="45.07716800" lon="6.01454200"><ele></ele><time>2014-4-4T14:52:19Z</time></trkpt>
<trkpt lat="45.07667000" lon="6.01466400"><ele></ele><time>2014-4-4T14:52:22Z</time></trkpt>
<trkpt lat="45.07623700" lon="6.01480200"><ele></ele><time>2014-4-4T14:52:25Z</time></trkpt>
<trkpt lat="45.07613700" lon="6.01473700"><ele></ele><time>2014-4-4T14:52:28Z</time></trkpt>
<trkpt lat="45.07602600" lon="6.01465800"><ele></ele><time>2014-4-4T14:52:31Z</time></trkpt>
<trkpt lat="45.07566100" lon="6.01444700"><ele></ele><time>2014-4-4T14:52:34Z</time></trkpt>
<trkpt lat="45.07544700" lon="6.01428300"><ele></ele><time>2014-4-4T14:52:37Z</time></trkpt>
<trkpt lat="45.07525800" lon="6.01397900"><ele></ele><time>2014-4-4T14:52:40Z</time></trkpt>
<trkpt lat="45.07508500" lon="6.01376300"><ele></ele><time>2014-4-4T14:52:43Z</time></trkpt>
<trkpt lat="45.07488000" lon="6.01341600"><ele></ele><time>2014-4-4T14:52:46Z</time></trkpt>
<trkpt lat="45.07481100" lon="6.01320500"><ele></ele><time>2014-4-4T14:52:49Z</time></trkpt>
<trkpt lat="45.07483600" lon="6.01303100"><ele></ele><time>2014-4-4T14:52:52Z</time></trkpt>
<trkpt lat="45.07494600" lon="6.01277900"><ele></ele><time>2014-4-4T14:52:55Z</time></trkpt>
<trkpt lat="45.07505700" lon="6.01259100"><ele></ele><time>2014-4-4T14:52:58Z</time></trkpt>
<trkpt lat="45.07511700" lon="6.01251600"><ele></ele><time>2014-4-4T14:53:1Z</time></trkpt>
<trkpt lat="45.07523200" lon="6.01236600"><ele></ele><time>2014-4-4T14:53:4Z</time></trkpt>
<trkpt lat="45.07536800" lon="6.01199900"><ele></ele><time>2014-4-4T14:53:7Z</time></trkpt>
<trkpt lat="45.07546700" lon="6.01161600"><ele></ele><time>2014-4-4T14:53:10Z</time></trkpt>
<trkpt lat="45.07548700" lon="6.01150900"><ele></ele><time>2014-4-4T14:53:13Z</time></trkpt>
<trkpt lat="45.07545600" lon="6.01117100"><ele></ele><time>2014-4-4T14:53:16Z</time></trkpt>
<trkpt lat="45.07544500" lon="6.01112900"><ele></ele><time>2014-4-4T14:53:19Z</time></trkpt>
<trkpt lat="45.07537300" lon="6.01096300"><ele></ele><time>2014-4-4T14:53:22Z</time></trkpt>
<trkpt lat="45.07537400" lon="6.01095800"><ele></ele><time>2014-4-4T14:53:25Z</time></trkpt>
<trkpt lat="45.07542100" lon="6.01112400"><ele></ele><time>2014-4-4T14:53:28Z</time></trkpt>
<trkpt lat="45.07550300" lon="6.01144000"><ele></ele><time>2014-4-4T14:53:31Z</time></trkpt>
<trkpt lat="45.07547800" lon="6.01168600"><ele></ele><time>2014-4-4T14:53:34Z</time></trkpt>
<trkpt lat="45.07542700" lon="6.01180200"><ele></ele><time>2014-4-4T14:53:37Z</time></trkpt>
<trkpt lat="45.07534100" lon="6.01176500"><ele></ele><time>2014-4-4T14:53:40Z</time></trkpt>
<trkpt lat="45.07514100" lon="6.01158100"><ele></ele><time>2014-4-4T14:53:43Z</time></trkpt>
<trkpt lat="45.07500800" lon="6.01151000"><ele></ele><time>2014-4-4T14:53:46Z</time></trkpt>
<trkpt lat="45.07487100" lon="6.01145700"><ele></ele><time>2014-4-4T14:53:49Z</time></trkpt>
<trkpt lat="45.07469300" lon="6.01139200"><ele></ele><time>2014-4-4T14:53:52Z</time></trkpt>
<trkpt lat="45.07444100" lon="6.01131200"><ele></ele><time>2014-4-4T14:53:55Z</time></trkpt>
<trkpt lat="45.07422400" lon="6.01126900"><ele></ele><time>2014-4-4T14:53:58Z</time></trkpt>
<trkpt lat="45.07404100" lon="6.01121300"><ele></ele><time>2014-4-4T14:54:1Z</time></trkpt>
<trkpt lat="45.07389500" lon="6.01114700"><ele></ele><time>2014-4-4T14:54:4Z</time></trkpt>
<trkpt lat="45.07375900" lon="6.01114900"><ele></ele><time>2014-4-4T14:54:7Z</time></trkpt>
<trkpt lat="45.07359800" lon="6.01111900"><ele></ele><time>2014-4-4T14:54:10Z</time></trkpt>
<trkpt lat="45.07337900" lon="6.01107500"><ele></ele><time>2014-4-4T14:54:13Z</time></trkpt>
<trkpt lat="45.07316100" lon="6.01092800"><ele></ele><time>2014-4-4T14:54:16Z</time></trkpt>
<trkpt lat="45.07288600" lon="6.01066700"><ele></ele><time>2014-4-4T14:54:19Z</time></trkpt>
<trkpt lat="45.07259900" lon="6.01039900"><ele></ele><time>2014-4-4T14:54:22Z</time></trkpt>
<trkpt lat="45.07235900" lon="6.01026400"><ele></ele><time>2014-4-4T14:54:25Z</time></trkpt>
<trkpt lat="45.07222300" lon="6.01034200"><ele></ele><time>2014-4-4T14:54:28Z</time></trkpt>
<trkpt lat="45.07215600" lon="6.01050700"><ele></ele><time>2014-4-4T14:54:31Z</time></trkpt>
<trkpt lat="45.07214900" lon="6.01056700"><ele></ele><time>2014-4-4T14:54:34Z</time></trkpt>
<trkpt lat="45.07209200" lon="6.01056600"><ele></ele><time>2014-4-4T14:54:37Z</time></trkpt>
<trkpt lat="45.07208500" lon="6.01053500"><ele></ele><time>2014-4-4T14:54:40Z</time></trkpt>
<trkpt lat="45.07202700" lon="6.01024900"><ele></ele><time>2014-4-4T14:54:43Z</time></trkpt>
<trkpt lat="45.07197000" lon="6.00992400"><ele></ele><time>2014-4-4T14:54:46Z</time></trkpt>
<trkpt lat="45.07196700" lon="6.00953400"><ele></ele><time>2014-4-4T14:54:49Z</time></trkpt>
<trkpt lat="45.07196300" lon="6.00919900"><ele></ele><time>2014-4-4T14:54:52Z</time></trkpt>
<trkpt lat="45.07192100" lon="6.00889700"><ele></ele><time>2014-4-4T14:54:55Z</time></trkpt>
<trkpt lat="45.07187100" lon="6.00864900"><ele></ele><time>2014-4-4T14:54:58Z</time></trkpt>
<trkpt lat="45.07181300" lon="6.00837300"><ele></ele><time>2014-4-4T14:55:1Z</time></trkpt>
<trkpt lat="45.07176500" lon="6.00808100"><ele></ele><time>2014-4-4T14:55:4Z</time></trkpt>
<trkpt lat="45.07169600" lon="6.00778400"><ele></ele><time>2014-4-4T14:55:7Z</time></trkpt>
<trkpt lat="45.07161300" lon="6.00756500"><ele></ele><time>2014-4-4T14:55:10Z</time></trkpt>
<trkpt lat="45.07159400" lon="6.00747800"><ele></ele><time>2014-4-4T14:55:13Z</time></trkpt>
<trkpt lat="45.07160800" lon="6.00731000"><ele></ele><time>2014-4-4T14:55:16Z</time></trkpt>
<trkpt lat="45.07165300" lon="6.00710200"><ele></ele><time>2014-4-4T14:55:19Z</time></trkpt>
<trkpt lat="45.07183400" lon="6.00684200"><ele></ele><time>2014-4-4T14:55:22Z</time></trkpt>
<trkpt lat="45.07198300" lon="6.00657900"><ele></ele><time>2014-4-4T14:55:25Z</time></trkpt>
<trkpt lat="45.07200700" lon="6.00630600"><ele></ele><time>2014-4-4T14:55:28Z</time></trkpt>
<trkpt lat="45.07191500" lon="6.00610000"><ele></ele><time>2014-4-4T14:55:31Z</time></trkpt>
<trkpt lat="45.07185500" lon="6.00598000"><ele></ele><time>2014-4-4T14:55:34Z</time></trkpt>
<trkpt lat="45.07179600" lon="6.00575000"><ele></ele><time>2014-4-4T14:55:37Z</time></trkpt>
<trkpt lat="45.07174100" lon="6.00552200"><ele></ele><time>2014-4-4T14:55:40Z</time></trkpt>
<trkpt lat="45.07169400" lon="6.00535000"><ele></ele><time>2014-4-4T14:55:43Z</time></trkpt>
<trkpt lat="45.07163100" lon="6.00519700"><ele></ele><time>2014-4-4T14:55:46Z</time></trkpt>
<trkpt lat="45.07159300" lon="6.00513100"><ele></ele><time>2014-4-4T14:55:49Z</time></trkpt>
<trkpt lat="45.07147800" lon="6.00495500"><ele></ele><time>2014-4-4T14:55:52Z</time></trkpt>
<trkpt lat="45.07138900" lon="6.00466600"><ele></ele><time>2014-4-4T14:55:55Z</time></trkpt>
<trkpt lat="45.07141200" lon="6.00446400"><ele></ele><time>2014-4-4T14:55:58Z</time></trkpt>
<trkpt lat="45.07142600" lon="6.00440500"><ele></ele><time>2014-4-4T14:56:1Z</time></trkpt>
<trkpt lat="45.07144900" lon="6.00424600"><ele></ele><time>2014-4-4T14:56:4Z</time></trkpt>
<trkpt lat="45.07146600" lon="6.00399100"><ele></ele><time>2014-4-4T14:56:7Z</time></trkpt>
<trkpt lat="45.07144100" lon="6.00374900"><ele></ele><time>2014-4-4T14:56:10Z</time></trkpt>
<trkpt lat="45.07143700" lon="6.00372300"><ele></ele><time>2014-4-4T14:56:13Z</time></trkpt>
<trkpt lat="45.07133700" lon="6.00358200"><ele></ele><time>2014-4-4T14:56:16Z</time></trkpt>
<trkpt lat="45.07125300" lon="6.00344000"><ele></ele><time>2014-4-4T14:56:19Z</time></trkpt>
<trkpt lat="45.07111000" lon="6.00324000"><ele></ele><time>2014-4-4T14:56:22Z</time></trkpt>
<trkpt lat="45.07100000" lon="6.00307700"><ele></ele><time>2014-4-4T14:56:25Z</time></trkpt>
<trkpt lat="45.07084200" lon="6.00283700"><ele></ele><time>2014-4-4T14:56:28Z</time></trkpt>
<trkpt lat="45.07073300" lon="6.00260400"><ele></ele><time>2014-4-4T14:56:31Z</time></trkpt>
<trkpt lat="45.07062900" lon="6.00245300"><ele></ele><time>2014-4-4T14:56:34Z</time></trkpt>
<trkpt lat="45.07045000" lon="6.00237200"><ele></ele><time>2014-4-4T14:56:37Z</time></trkpt>
<trkpt lat="45.07026600" lon="6.00235500"><ele></ele><time>2014-4-4T14:56:40Z</time></trkpt>
<trkpt lat="45.07013300" lon="6.00239700"><ele></ele><time>2014-4-4T14:56:43Z</time></trkpt>
<trkpt lat="45.06998000" lon="6.00236600"><ele></ele><time>2014-4-4T14:56:46Z</time></trkpt>
<trkpt lat="45.06986500" lon="6.00222600"><ele></ele><time>2014-4-4T14:56:49Z</time></trkpt>
<trkpt lat="45.06973100" lon="6.00203800"><ele></ele><time>2014-4-4T14:56:52Z</time></trkpt>
<trkpt lat="45.06967400" lon="6.00176900"><ele></ele><time>2014-4-4T14:56:55Z</time></trkpt>
<trkpt lat="45.06966400" lon="6.00167500"><ele></ele><time>2014-4-4T14:56:58Z</time></trkpt>
<trkpt lat="45.06965200" lon="6.00156100"><ele></ele><time>2014-4-4T14:57:1Z</time></trkpt>
<trkpt lat="45.06968600" lon="6.00134800"><ele></ele><time>2014-4-4T14:57:4Z</time></trkpt>
<trkpt lat="45.06974000" lon="6.00110000"><ele></ele><time>2014-4-4T14:57:7Z</time></trkpt>
<trkpt lat="45.06977500" lon="6.00080200"><ele></ele><time>2014-4-4T14:57:10Z</time></trkpt>
<trkpt lat="45.06985600" lon="6.00054500"><ele></ele><time>2014-4-4T14:57:13Z</time></trkpt>
<trkpt lat="45.06996700" lon="6.00039900"><ele></ele><time>2014-4-4T14:57:16Z</time></trkpt>
<trkpt lat="45.07003100" lon="6.00023500"><ele></ele><time>2014-4-4T14:57:19Z</time></trkpt>
<trkpt lat="45.07010100" lon="6.00000200"><ele></ele><time>2014-4-4T14:57:22Z</time></trkpt>
<trkpt lat="45.07010300" lon="5.99995700"><ele></ele><time>2014-4-4T14:57:25Z</time></trkpt>
<trkpt lat="45.07008200" lon="5.99994700"><ele></ele><time>2014-4-4T14:57:28Z</time></trkpt>
<trkpt lat="45.07004500" lon="5.99993700"><ele></ele><time>2014-4-4T14:57:31Z</time></trkpt>
<trkpt lat="45.06998600" lon="5.99990100"><ele></ele><time>2014-4-4T14:57:34Z</time></trkpt>
<trkpt lat="45.06998700" lon="5.99990100"><ele></ele><time>2014-4-4T14:57:37Z</time></trkpt>
<trkpt lat="45.06998900" lon="5.99990000"><ele></ele><time>2014-4-4T14:57:40Z</time></trkpt>
<trkpt lat="45.06978100" lon="5.99982100"><ele></ele><time>2014-4-4T14:57:43Z</time></trkpt>
<trkpt lat="45.06963800" lon="5.99985600"><ele></ele><time>2014-4-4T14:57:46Z</time></trkpt>
<trkpt lat="45.06940100" lon="5.99990800"><ele></ele><time>2014-4-4T14:57:49Z</time></trkpt>
<trkpt lat="45.06922900" lon="5.99988900"><ele></ele><time>2014-4-4T14:57:52Z</time></trkpt>
<trkpt lat="45.06910300" lon="5.99998600"><ele></ele><time>2014-4-4T14:57:55Z</time></trkpt>
<trkpt lat="45.06898600" lon="6.00020900"><ele></ele><time>2014-4-4T14:57:58Z</time></trkpt>
<trkpt lat="45.06888900" lon="6.00035000"><ele></ele><time>2014-4-4T14:58:1Z</time></trkpt>
<trkpt lat="45.06875200" lon="6.00043700"><ele></ele><time>2014-4-4T14:58:4Z</time></trkpt>
<trkpt lat="45.06855300" lon="6.00044300"><ele></ele><time>2014-4-4T14:58:7Z</time></trkpt>
<trkpt lat="45.06837800" lon="6.00035600"><ele></ele><time>2014-4-4T14:58:10Z</time></trkpt>
<trkpt lat="45.06824100" lon="6.00018900"><ele></ele><time>2014-4-4T14:58:13Z</time></trkpt>
<trkpt lat="45.06815300" lon="5.99997600"><ele></ele><time>2014-4-4T14:58:16Z</time></trkpt>
<trkpt lat="45.06801800" lon="5.99980200"><ele></ele><time>2014-4-4T14:58:19Z</time></trkpt>
<trkpt lat="45.06783300" lon="5.99967600"><ele></ele><time>2014-4-4T14:58:22Z</time></trkpt>
<trkpt lat="45.06760200" lon="5.99952400"><ele></ele><time>2014-4-4T14:58:25Z</time></trkpt>
<trkpt lat="45.06747300" lon="5.99944700"><ele></ele><time>2014-4-4T14:58:28Z</time></trkpt>
<trkpt lat="45.06728500" lon="5.99933700"><ele></ele><time>2014-4-4T14:58:31Z</time></trkpt>
<trkpt lat="45.06707100" lon="5.99934700"><ele></ele><time>2014-4-4T14:58:34Z</time></trkpt>
<trkpt lat="45.06668100" lon="5.99951500"><ele></ele><time>2014-4-4T14:58:37Z</time></trkpt>
<trkpt lat="45.06648500" lon="5.99943100"><ele></ele><time>2014-4-4T14:58:40Z</time></trkpt>
<trkpt lat="45.06620100" lon="5.99923400"><ele></ele><time>2014-4-4T14:58:43Z</time></trkpt>
<trkpt lat="45.06604400" lon="5.99910800"><ele></ele><time>2014-4-4T14:58:46Z</time></trkpt>
<trkpt lat="45.06582300" lon="5.99884000"><ele></ele><time>2014-4-4T14:58:49Z</time></trkpt>
<trkpt lat="45.06564700" lon="5.99862300"><ele></ele><time>2014-4-4T14:58:52Z</time></trkpt>
<trkpt lat="45.06540600" lon="5.99838300"><ele></ele><time>2014-4-4T14:58:55Z</time></trkpt>
<trkpt lat="45.06518900" lon="5.99823400"><ele></ele><time>2014-4-4T14:58:58Z</time></trkpt>
<trkpt lat="45.06497000" lon="5.99812400"><ele></ele><time>2014-4-4T14:59:1Z</time></trkpt>
<trkpt lat="45.06479900" lon="5.99797100"><ele></ele><time>2014-4-4T14:59:4Z</time></trkpt>
<trkpt lat="45.06460800" lon="5.99782400"><ele></ele><time>2014-4-4T14:59:7Z</time></trkpt>
<trkpt lat="45.06444300" lon="5.99764900"><ele></ele><time>2014-4-4T14:59:10Z</time></trkpt>
<trkpt lat="45.06430400" lon="5.99749300"><ele></ele><time>2014-4-4T14:59:13Z</time></trkpt>
<trkpt lat="45.06415200" lon="5.99741100"><ele></ele><time>2014-4-4T14:59:16Z</time></trkpt>
<trkpt lat="45.06401200" lon="5.99752500"><ele></ele><time>2014-4-4T14:59:19Z</time></trkpt>
<trkpt lat="45.06383800" lon="5.99758500"><ele></ele><time>2014-4-4T14:59:22Z</time></trkpt>
<trkpt lat="45.06370500" lon="5.99754600"><ele></ele><time>2014-4-4T14:59:25Z</time></trkpt>
<trkpt lat="45.06353500" lon="5.99750600"><ele></ele><time>2014-4-4T14:59:28Z</time></trkpt>
<trkpt lat="45.06332700" lon="5.99740700"><ele></ele><time>2014-4-4T14:59:31Z</time></trkpt>
<trkpt lat="45.06315900" lon="5.99734400"><ele></ele><time>2014-4-4T14:59:34Z</time></trkpt>
<trkpt lat="45.06304600" lon="5.99729400"><ele></ele><time>2014-4-4T14:59:37Z</time></trkpt>
<trkpt lat="45.06288700" lon="5.99726700"><ele></ele><time>2014-4-4T14:59:40Z</time></trkpt>
<trkpt lat="45.06282300" lon="5.99713700"><ele></ele><time>2014-4-4T14:59:43Z</time></trkpt>
<trkpt lat="45.06272200" lon="5.99701300"><ele></ele><time>2014-4-4T14:59:46Z</time></trkpt>
<trkpt lat="45.06255400" lon="5.99690900"><ele></ele><time>2014-4-4T14:59:49Z</time></trkpt>
<trkpt lat="45.06239200" lon="5.99673400"><ele></ele><time>2014-4-4T14:59:52Z</time></trkpt>
<trkpt lat="45.06223200" lon="5.99654500"><ele></ele><time>2014-4-4T14:59:55Z</time></trkpt>
<trkpt lat="45.06206500" lon="5.99636800"><ele></ele><time>2014-4-4T14:59:58Z</time></trkpt>
<trkpt lat="45.06190100" lon="5.99625300"><ele></ele><time>2014-4-4T15:0:1Z</time></trkpt>
<trkpt lat="45.06177600" lon="5.99617400"><ele></ele><time>2014-4-4T15:0:4Z</time></trkpt>
<trkpt lat="45.06164200" lon="5.99614500"><ele></ele><time>2014-4-4T15:0:7Z</time></trkpt>
<trkpt lat="45.06142900" lon="5.99618800"><ele></ele><time>2014-4-4T15:0:10Z</time></trkpt>
<trkpt lat="45.06126800" lon="5.99619900"><ele></ele><time>2014-4-4T15:0:13Z</time></trkpt>
<trkpt lat="45.06102400" lon="5.99626400"><ele></ele><time>2014-4-4T15:0:16Z</time></trkpt>
<trkpt lat="45.06082000" lon="5.99623300"><ele></ele><time>2014-4-4T15:0:19Z</time></trkpt>
<trkpt lat="45.06065200" lon="5.99622500"><ele></ele><time>2014-4-4T15:0:22Z</time></trkpt>
<trkpt lat="45.06044200" lon="5.99620900"><ele></ele><time>2014-4-4T15:0:25Z</time></trkpt>
<trkpt lat="45.06029600" lon="5.99607800"><ele></ele><time>2014-4-4T15:0:28Z</time></trkpt>
<trkpt lat="45.06018300" lon="5.99594100"><ele></ele><time>2014-4-4T15:0:31Z</time></trkpt>
<trkpt lat="45.06011200" lon="5.99581900"><ele></ele><time>2014-4-4T15:0:34Z</time></trkpt>
<trkpt lat="45.05992600" lon="5.99574700"><ele></ele><time>2014-4-4T15:0:37Z</time></trkpt>
<trkpt lat="45.05972800" lon="5.99569700"><ele></ele><time>2014-4-4T15:0:40Z</time></trkpt>
<trkpt lat="45.05958200" lon="5.99569500"><ele></ele><time>2014-4-4T15:0:43Z</time></trkpt>
<trkpt lat="45.05935800" lon="5.99579300"><ele></ele><time>2014-4-4T15:0:46Z</time></trkpt>
<trkpt lat="45.05920400" lon="5.99578800"><ele></ele><time>2014-4-4T15:0:49Z</time></trkpt>
<trkpt lat="45.05918500" lon="5.99573500"><ele></ele><time>2014-4-4T15:0:52Z</time></trkpt>
<trkpt lat="45.05915100" lon="5.99564600"><ele></ele><time>2014-4-4T15:0:55Z</time></trkpt>
<trkpt lat="45.05910000" lon="5.99542800"><ele></ele><time>2014-4-4T15:0:58Z</time></trkpt>
<trkpt lat="45.05902800" lon="5.99525100"><ele></ele><time>2014-4-4T15:1:1Z</time></trkpt>
<trkpt lat="45.05894400" lon="5.99512400"><ele></ele><time>2014-4-4T15:1:4Z</time></trkpt>
<trkpt lat="45.05877400" lon="5.99496400"><ele></ele><time>2014-4-4T15:1:7Z</time></trkpt>
<trkpt lat="45.05867000" lon="5.99490700"><ele></ele><time>2014-4-4T15:1:10Z</time></trkpt>
<trkpt lat="45.05855900" lon="5.99477800"><ele></ele><time>2014-4-4T15:1:13Z</time></trkpt>
<trkpt lat="45.05846300" lon="5.99461000"><ele></ele><time>2014-4-4T15:1:16Z</time></trkpt>
<trkpt lat="45.05836700" lon="5.99444700"><ele></ele><time>2014-4-4T15:1:19Z</time></trkpt>
<trkpt lat="45.05823800" lon="5.99428700"><ele></ele><time>2014-4-4T15:1:22Z</time></trkpt>
<trkpt lat="45.05808900" lon="5.99430700"><ele></ele><time>2014-4-4T15:1:25Z</time></trkpt>
<trkpt lat="45.05782000" lon="5.99438000"><ele></ele><time>2014-4-4T15:1:28Z</time></trkpt>
<trkpt lat="45.05768700" lon="5.99434100"><ele></ele><time>2014-4-4T15:1:31Z</time></trkpt>
<trkpt lat="45.05747200" lon="5.99424000"><ele></ele><time>2014-4-4T15:1:34Z</time></trkpt>
<trkpt lat="45.05735700" lon="5.99415900"><ele></ele><time>2014-4-4T15:1:37Z</time></trkpt>
<trkpt lat="45.05720800" lon="5.99407700"><ele></ele><time>2014-4-4T15:1:40Z</time></trkpt>
<trkpt lat="45.05710300" lon="5.99399500"><ele></ele><time>2014-4-4T15:1:43Z</time></trkpt>
<trkpt lat="45.05698000" lon="5.99389600"><ele></ele><time>2014-4-4T15:1:46Z</time></trkpt>
<trkpt lat="45.05685600" lon="5.99377600"><ele></ele><time>2014-4-4T15:1:49Z</time></trkpt>
<trkpt lat="45.05675100" lon="5.99367100"><ele></ele><time>2014-4-4T15:1:52Z</time></trkpt>
<trkpt lat="45.05663600" lon="5.99358200"><ele></ele><time>2014-4-4T15:1:55Z</time></trkpt>
<trkpt lat="45.05650800" lon="5.99348600"><ele></ele><time>2014-4-4T15:1:58Z</time></trkpt>
<trkpt lat="45.05635900" lon="5.99338600"><ele></ele><time>2014-4-4T15:2:1Z</time></trkpt>
<trkpt lat="45.05618600" lon="5.99327200"><ele></ele><time>2014-4-4T15:2:4Z</time></trkpt>
<trkpt lat="45.05602100" lon="5.99309700"><ele></ele><time>2014-4-4T15:2:7Z</time></trkpt>
<trkpt lat="45.05575600" lon="5.99278000"><ele></ele><time>2014-4-4T15:2:10Z</time></trkpt>
<trkpt lat="45.05555200" lon="5.99269500"><ele></ele><time>2014-4-4T15:2:13Z</time></trkpt>
<trkpt lat="45.05548000" lon="5.99265500"><ele></ele><time>2014-4-4T15:2:16Z</time></trkpt>
<trkpt lat="45.05539100" lon="5.99239600"><ele></ele><time>2014-4-4T15:2:19Z</time></trkpt>
<trkpt lat="45.05540700" lon="5.99234100"><ele></ele><time>2014-4-4T15:2:22Z</time></trkpt>
<trkpt lat="45.05555300" lon="5.99194000"><ele></ele><time>2014-4-4T15:2:25Z</time></trkpt>
<trkpt lat="45.05556600" lon="5.99187100"><ele></ele><time>2014-4-4T15:2:28Z</time></trkpt>
<trkpt lat="45.05566900" lon="5.99117700"><ele></ele><time>2014-4-4T15:2:31Z</time></trkpt>
<trkpt lat="45.05583200" lon="5.99047600"><ele></ele><time>2014-4-4T15:2:34Z</time></trkpt>
<trkpt lat="45.05588500" lon="5.99006600"><ele></ele><time>2014-4-4T15:2:37Z</time></trkpt>
<trkpt lat="45.05580100" lon="5.98956400"><ele></ele><time>2014-4-4T15:2:40Z</time></trkpt>
<trkpt lat="45.05568600" lon="5.98938200"><ele></ele><time>2014-4-4T15:2:43Z</time></trkpt>
<trkpt lat="45.05558700" lon="5.98932100"><ele></ele><time>2014-4-4T15:2:46Z</time></trkpt>
<trkpt lat="45.05508000" lon="5.98911700"><ele></ele><time>2014-4-4T15:2:49Z</time></trkpt>
<trkpt lat="45.05488800" lon="5.98902200"><ele></ele><time>2014-4-4T15:2:52Z</time></trkpt>
<trkpt lat="45.05464200" lon="5.98902600"><ele></ele><time>2014-4-4T15:2:55Z</time></trkpt>
<trkpt lat="45.05451500" lon="5.98910300"><ele></ele><time>2014-4-4T15:2:58Z</time></trkpt>
<trkpt lat="45.05446800" lon="5.98912200"><ele></ele><time>2014-4-4T15:3:1Z</time></trkpt>
<trkpt lat="45.05440200" lon="5.98927000"><ele></ele><time>2014-4-4T15:3:4Z</time></trkpt>
<trkpt lat="45.05430200" lon="5.98933800"><ele></ele><time>2014-4-4T15:3:7Z</time></trkpt>
<trkpt lat="45.05410200" lon="5.98940800"><ele></ele><time>2014-4-4T15:3:10Z</time></trkpt>
<trkpt lat="45.05387800" lon="5.98948200"><ele></ele><time>2014-4-4T15:3:13Z</time></trkpt>
<trkpt lat="45.05368200" lon="5.98964600"><ele></ele><time>2014-4-4T15:3:16Z</time></trkpt>
<trkpt lat="45.05354000" lon="5.98977200"><ele></ele><time>2014-4-4T15:3:19Z</time></trkpt>
<trkpt lat="45.05339100" lon="5.98981700"><ele></ele><time>2014-4-4T15:3:22Z</time></trkpt>
<trkpt lat="45.05322200" lon="5.98978400"><ele></ele><time>2014-4-4T15:3:25Z</time></trkpt>
<trkpt lat="45.05302100" lon="5.98978900"><ele></ele><time>2014-4-4T15:3:28Z</time></trkpt>
<trkpt lat="45.05279200" lon="5.98986400"><ele></ele><time>2014-4-4T15:3:31Z</time></trkpt>
<trkpt lat="45.05256300" lon="5.98988600"><ele></ele><time>2014-4-4T15:3:34Z</time></trkpt>
<trkpt lat="45.05238800" lon="5.98981700"><ele></ele><time>2014-4-4T15:3:37Z</time></trkpt>
<trkpt lat="45.05221300" lon="5.98966400"><ele></ele><time>2014-4-4T15:3:40Z</time></trkpt>
<trkpt lat="45.05206600" lon="5.98948000"><ele></ele><time>2014-4-4T15:3:43Z</time></trkpt>
<trkpt lat="45.05189900" lon="5.98930000"><ele></ele><time>2014-4-4T15:3:46Z</time></trkpt>
<trkpt lat="45.05175000" lon="5.98913900"><ele></ele><time>2014-4-4T15:3:49Z</time></trkpt>
<trkpt lat="45.05164200" lon="5.98896400"><ele></ele><time>2014-4-4T15:3:52Z</time></trkpt>
<trkpt lat="45.05155400" lon="5.98870000"><ele></ele><time>2014-4-4T15:3:55Z</time></trkpt>
<trkpt lat="45.05148200" lon="5.98848500"><ele></ele><time>2014-4-4T15:3:58Z</time></trkpt>
<trkpt lat="45.05144900" lon="5.98824600"><ele></ele><time>2014-4-4T15:4:1Z</time></trkpt>
<trkpt lat="45.05144400" lon="5.98796100"><ele></ele><time>2014-4-4T15:4:4Z</time></trkpt>
<trkpt lat="45.05145100" lon="5.98764600"><ele></ele><time>2014-4-4T15:4:7Z</time></trkpt>
<trkpt lat="45.05143700" lon="5.98741100"><ele></ele><time>2014-4-4T15:4:10Z</time></trkpt>
<trkpt lat="45.05134100" lon="5.98719200"><ele></ele><time>2014-4-4T15:4:13Z</time></trkpt>
<trkpt lat="45.05116600" lon="5.98714700"><ele></ele><time>2014-4-4T15:4:16Z</time></trkpt>
<trkpt lat="45.05099500" lon="5.98716200"><ele></ele><time>2014-4-4T15:4:19Z</time></trkpt>
<trkpt lat="45.05083000" lon="5.98718700"><ele></ele><time>2014-4-4T15:4:22Z</time></trkpt>
<trkpt lat="45.05064100" lon="5.98714400"><ele></ele><time>2014-4-4T15:4:25Z</time></trkpt>
<trkpt lat="45.05046700" lon="5.98702700"><ele></ele><time>2014-4-4T15:4:28Z</time></trkpt>
<trkpt lat="45.05031900" lon="5.98687000"><ele></ele><time>2014-4-4T15:4:31Z</time></trkpt>
<trkpt lat="45.05023600" lon="5.98663100"><ele></ele><time>2014-4-4T15:4:34Z</time></trkpt>
<trkpt lat="45.05016300" lon="5.98634900"><ele></ele><time>2014-4-4T15:4:37Z</time></trkpt>
<trkpt lat="45.05016400" lon="5.98607700"><ele></ele><time>2014-4-4T15:4:40Z</time></trkpt>
<trkpt lat="45.05018600" lon="5.98584400"><ele></ele><time>2014-4-4T15:4:43Z</time></trkpt>
<trkpt lat="45.05015400" lon="5.98568800"><ele></ele><time>2014-4-4T15:4:46Z</time></trkpt>
<trkpt lat="45.05006000" lon="5.98554700"><ele></ele><time>2014-4-4T15:4:49Z</time></trkpt>
<trkpt lat="45.04992500" lon="5.98544700"><ele></ele><time>2014-4-4T15:4:52Z</time></trkpt>
<trkpt lat="45.04970000" lon="5.98535500"><ele></ele><time>2014-4-4T15:4:55Z</time></trkpt>
<trkpt lat="45.04950300" lon="5.98534000"><ele></ele><time>2014-4-4T15:4:58Z</time></trkpt>
<trkpt lat="45.04929900" lon="5.98541300"><ele></ele><time>2014-4-4T15:5:1Z</time></trkpt>
<trkpt lat="45.04911800" lon="5.98539700"><ele></ele><time>2014-4-4T15:5:4Z</time></trkpt>
<trkpt lat="45.04895500" lon="5.98522600"><ele></ele><time>2014-4-4T15:5:7Z</time></trkpt>
<trkpt lat="45.04884600" lon="5.98507800"><ele></ele><time>2014-4-4T15:5:10Z</time></trkpt>
<trkpt lat="45.04871100" lon="5.98494500"><ele></ele><time>2014-4-4T15:5:13Z</time></trkpt>
<trkpt lat="45.04855600" lon="5.98486400"><ele></ele><time>2014-4-4T15:5:16Z</time></trkpt>
<trkpt lat="45.04839300" lon="5.98490500"><ele></ele><time>2014-4-4T15:5:19Z</time></trkpt>
<trkpt lat="45.04811400" lon="5.98501900"><ele></ele><time>2014-4-4T15:5:22Z</time></trkpt>
<trkpt lat="45.04799500" lon="5.98500700"><ele></ele><time>2014-4-4T15:5:25Z</time></trkpt>
<trkpt lat="45.04780900" lon="5.98495000"><ele></ele><time>2014-4-4T15:5:28Z</time></trkpt>
<trkpt lat="45.04769800" lon="5.98489000"><ele></ele><time>2014-4-4T15:5:31Z</time></trkpt>
<trkpt lat="45.04754200" lon="5.98481200"><ele></ele><time>2014-4-4T15:5:34Z</time></trkpt>
<trkpt lat="45.04736200" lon="5.98472500"><ele></ele><time>2014-4-4T15:5:37Z</time></trkpt>
<trkpt lat="45.04718300" lon="5.98467200"><ele></ele><time>2014-4-4T15:5:40Z</time></trkpt>
<trkpt lat="45.04700000" lon="5.98466800"><ele></ele><time>2014-4-4T15:5:43Z</time></trkpt>
<trkpt lat="45.04674000" lon="5.98470900"><ele></ele><time>2014-4-4T15:5:46Z</time></trkpt>
<trkpt lat="45.04652500" lon="5.98470300"><ele></ele><time>2014-4-4T15:5:49Z</time></trkpt>
<trkpt lat="45.04625400" lon="5.98472500"><ele></ele><time>2014-4-4T15:5:52Z</time></trkpt>
<trkpt lat="45.04602800" lon="5.98470500"><ele></ele><time>2014-4-4T15:5:55Z</time></trkpt>
<trkpt lat="45.04579800" lon="5.98471500"><ele></ele><time>2014-4-4T15:5:58Z</time></trkpt>
<trkpt lat="45.04551700" lon="5.98470100"><ele></ele><time>2014-4-4T15:6:1Z</time></trkpt>
<trkpt lat="45.04520200" lon="5.98467300"><ele></ele><time>2014-4-4T15:6:4Z</time></trkpt>
<trkpt lat="45.04500000" lon="5.98460300"><ele></ele><time>2014-4-4T15:6:7Z</time></trkpt>
<trkpt lat="45.04479500" lon="5.98449500"><ele></ele><time>2014-4-4T15:6:10Z</time></trkpt>
<trkpt lat="45.04455000" lon="5.98430000"><ele></ele><time>2014-4-4T15:6:13Z</time></trkpt>
<trkpt lat="45.04437800" lon="5.98410300"><ele></ele><time>2014-4-4T15:6:16Z</time></trkpt>
<trkpt lat="45.04419200" lon="5.98383600"><ele></ele><time>2014-4-4T15:6:19Z</time></trkpt>
<trkpt lat="45.04403400" lon="5.98350700"><ele></ele><time>2014-4-4T15:6:22Z</time></trkpt>
<trkpt lat="45.04384300" lon="5.98328700"><ele></ele><time>2014-4-4T15:6:25Z</time></trkpt>
<trkpt lat="45.04362500" lon="5.98321500"><ele></ele><time>2014-4-4T15:6:28Z</time></trkpt>
<trkpt lat="45.04337300" lon="5.98319200"><ele></ele><time>2014-4-4T15:6:31Z</time></trkpt>
<trkpt lat="45.04306500" lon="5.98308900"><ele></ele><time>2014-4-4T15:6:34Z</time></trkpt>
<trkpt lat="45.04284900" lon="5.98292100"><ele></ele><time>2014-4-4T15:6:37Z</time></trkpt>
<trkpt lat="45.04261700" lon="5.98268700"><ele></ele><time>2014-4-4T15:6:40Z</time></trkpt>
<trkpt lat="45.04242900" lon="5.98251000"><ele></ele><time>2014-4-4T15:6:43Z</time></trkpt>
<trkpt lat="45.04222200" lon="5.98232000"><ele></ele><time>2014-4-4T15:6:46Z</time></trkpt>
<trkpt lat="45.04204600" lon="5.98217500"><ele></ele><time>2014-4-4T15:6:49Z</time></trkpt>
<trkpt lat="45.04184800" lon="5.98197100"><ele></ele><time>2014-4-4T15:6:52Z</time></trkpt>
<trkpt lat="45.04165800" lon="5.98173800"><ele></ele><time>2014-4-4T15:6:55Z</time></trkpt>
<trkpt lat="45.04141500" lon="5.98150000"><ele></ele><time>2014-4-4T15:6:58Z</time></trkpt>
<trkpt lat="45.04120800" lon="5.98130100"><ele></ele><time>2014-4-4T15:7:1Z</time></trkpt>
<trkpt lat="45.04102700" lon="5.98107300"><ele></ele><time>2014-4-4T15:7:4Z</time></trkpt>
<trkpt lat="45.04086600" lon="5.98082200"><ele></ele><time>2014-4-4T15:7:7Z</time></trkpt>
<trkpt lat="45.04077900" lon="5.98056000"><ele></ele><time>2014-4-4T15:7:10Z</time></trkpt>
<trkpt lat="45.04076900" lon="5.98022900"><ele></ele><time>2014-4-4T15:7:13Z</time></trkpt>
<trkpt lat="45.04076200" lon="5.97988700"><ele></ele><time>2014-4-4T15:7:16Z</time></trkpt>
<trkpt lat="45.04071100" lon="5.97951700"><ele></ele><time>2014-4-4T15:7:19Z</time></trkpt>
<trkpt lat="45.04057800" lon="5.97924200"><ele></ele><time>2014-4-4T15:7:22Z</time></trkpt>
<trkpt lat="45.04049700" lon="5.97891300"><ele></ele><time>2014-4-4T15:7:25Z</time></trkpt>
<trkpt lat="45.04034400" lon="5.97869300"><ele></ele><time>2014-4-4T15:7:28Z</time></trkpt>
<trkpt lat="45.04010900" lon="5.97847200"><ele></ele><time>2014-4-4T15:7:31Z</time></trkpt>
<trkpt lat="45.03987800" lon="5.97827600"><ele></ele><time>2014-4-4T15:7:34Z</time></trkpt>
<trkpt lat="45.03960500" lon="5.97818800"><ele></ele><time>2014-4-4T15:7:37Z</time></trkpt>
<trkpt lat="45.03938500" lon="5.97808000"><ele></ele><time>2014-4-4T15:7:40Z</time></trkpt>
<trkpt lat="45.03934600" lon="5.97789600"><ele></ele><time>2014-4-4T15:7:43Z</time></trkpt>
<trkpt lat="45.03922800" lon="5.97768900"><ele></ele><time>2014-4-4T15:7:46Z</time></trkpt>
<trkpt lat="45.03910600" lon="5.97757000"><ele></ele><time>2014-4-4T15:7:49Z</time></trkpt>
<trkpt lat="45.03908400" lon="5.97754500"><ele></ele><time>2014-4-4T15:7:52Z</time></trkpt>
<trkpt lat="45.03903900" lon="5.97750200"><ele></ele><time>2014-4-4T15:7:55Z</time></trkpt>
<trkpt lat="45.03901700" lon="5.97749300"><ele></ele><time>2014-4-4T15:7:58Z</time></trkpt>
<trkpt lat="45.03891000" lon="5.97741200"><ele></ele><time>2014-4-4T15:8:1Z</time></trkpt>
<trkpt lat="45.03883400" lon="5.97728800"><ele></ele><time>2014-4-4T15:8:4Z</time></trkpt>
<trkpt lat="45.03875700" lon="5.97716000"><ele></ele><time>2014-4-4T15:8:7Z</time></trkpt>
<trkpt lat="45.03865500" lon="5.97700700"><ele></ele><time>2014-4-4T15:8:10Z</time></trkpt>
<trkpt lat="45.03859300" lon="5.97689300"><ele></ele><time>2014-4-4T15:8:13Z</time></trkpt>
<trkpt lat="45.03848100" lon="5.97671100"><ele></ele><time>2014-4-4T15:8:16Z</time></trkpt>
<trkpt lat="45.03833100" lon="5.97661000"><ele></ele><time>2014-4-4T15:8:19Z</time></trkpt>
<trkpt lat="45.03816700" lon="5.97644600"><ele></ele><time>2014-4-4T15:8:22Z</time></trkpt>
<trkpt lat="45.03805800" lon="5.97624500"><ele></ele><time>2014-4-4T15:8:25Z</time></trkpt>
<trkpt lat="45.03800300" lon="5.97607300"><ele></ele><time>2014-4-4T15:8:28Z</time></trkpt>
<trkpt lat="45.03793100" lon="5.97591200"><ele></ele><time>2014-4-4T15:8:31Z</time></trkpt>
<trkpt lat="45.03786200" lon="5.97578000"><ele></ele><time>2014-4-4T15:8:34Z</time></trkpt>
<trkpt lat="45.03779800" lon="5.97562000"><ele></ele><time>2014-4-4T15:8:37Z</time></trkpt>
<trkpt lat="45.03772200" lon="5.97542900"><ele></ele><time>2014-4-4T15:8:40Z</time></trkpt>
<trkpt lat="45.03764200" lon="5.97522900"><ele></ele><time>2014-4-4T15:8:43Z</time></trkpt>
<trkpt lat="45.03758400" lon="5.97509300"><ele></ele><time>2014-4-4T15:8:46Z</time></trkpt>
<trkpt lat="45.03751300" lon="5.97491000"><ele></ele><time>2014-4-4T15:8:49Z</time></trkpt>
<trkpt lat="45.03741900" lon="5.97469900"><ele></ele><time>2014-4-4T15:8:52Z</time></trkpt>
<trkpt lat="45.03729500" lon="5.97455100"><ele></ele><time>2014-4-4T15:8:55Z</time></trkpt>
<trkpt lat="45.03717900" lon="5.97467900"><ele></ele><time>2014-4-4T15:8:58Z</time></trkpt>
<trkpt lat="45.03720600" lon="5.97483100"><ele></ele><time>2014-4-4T15:9:1Z</time></trkpt>
<trkpt lat="45.03727900" lon="5.97497000"><ele></ele><time>2014-4-4T15:9:4Z</time></trkpt>
<trkpt lat="45.03740100" lon="5.97529400"><ele></ele><time>2014-4-4T15:9:7Z</time></trkpt>
<trkpt lat="45.03741900" lon="5.97555300"><ele></ele><time>2014-4-4T15:9:10Z</time></trkpt>
<trkpt lat="45.03739900" lon="5.97584200"><ele></ele><time>2014-4-4T15:9:13Z</time></trkpt>
<trkpt lat="45.03740200" lon="5.97607300"><ele></ele><time>2014-4-4T15:9:16Z</time></trkpt>
<trkpt lat="45.03744500" lon="5.97629500"><ele></ele><time>2014-4-4T15:9:19Z</time></trkpt>
<trkpt lat="45.03746800" lon="5.97649500"><ele></ele><time>2014-4-4T15:9:22Z</time></trkpt>
<trkpt lat="45.03750800" lon="5.97671100"><ele></ele><time>2014-4-4T15:9:25Z</time></trkpt>
<trkpt lat="45.03758900" lon="5.97695700"><ele></ele><time>2014-4-4T15:9:28Z</time></trkpt>
<trkpt lat="45.03769600" lon="5.97702300"><ele></ele><time>2014-4-4T15:9:31Z</time></trkpt>
<trkpt lat="45.03785900" lon="5.97713100"><ele></ele><time>2014-4-4T15:9:34Z</time></trkpt>
<trkpt lat="45.03797400" lon="5.97721400"><ele></ele><time>2014-4-4T15:9:37Z</time></trkpt>
<trkpt lat="45.03805500" lon="5.97733000"><ele></ele><time>2014-4-4T15:9:40Z</time></trkpt>
<trkpt lat="45.03811100" lon="5.97750000"><ele></ele><time>2014-4-4T15:9:43Z</time></trkpt>
<trkpt lat="45.03799300" lon="5.97774800"><ele></ele><time>2014-4-4T15:9:46Z</time></trkpt>
<trkpt lat="45.03788300" lon="5.97786800"><ele></ele><time>2014-4-4T15:9:49Z</time></trkpt>
<trkpt lat="45.03772500" lon="5.97801500"><ele></ele><time>2014-4-4T15:9:52Z</time></trkpt>
<trkpt lat="45.03752500" lon="5.97817200"><ele></ele><time>2014-4-4T15:9:55Z</time></trkpt>
<trkpt lat="45.03735800" lon="5.97828600"><ele></ele><time>2014-4-4T15:9:58Z</time></trkpt>
<trkpt lat="45.03721400" lon="5.97839900"><ele></ele><time>2014-4-4T15:10:1Z</time></trkpt>
<trkpt lat="45.03712600" lon="5.97844700"><ele></ele><time>2014-4-4T15:10:4Z</time></trkpt>
<trkpt lat="45.03711300" lon="5.97844500"><ele></ele><time>2014-4-4T15:10:7Z</time></trkpt>
<trkpt lat="45.03709100" lon="5.97832200"><ele></ele><time>2014-4-4T15:10:10Z</time></trkpt>
<trkpt lat="45.03716600" lon="5.97825600"><ele></ele><time>2014-4-4T15:10:13Z</time></trkpt>
<trkpt lat="45.03719000" lon="5.97824900"><ele></ele><time>2014-4-4T15:10:16Z</time></trkpt>
<trkpt lat="45.03731100" lon="5.97816900"><ele></ele><time>2014-4-4T15:10:19Z</time></trkpt>
<trkpt lat="45.03742300" lon="5.97805400"><ele></ele><time>2014-4-4T15:10:22Z</time></trkpt>
<trkpt lat="45.03755600" lon="5.97789100"><ele></ele><time>2014-4-4T15:10:25Z</time></trkpt>
<trkpt lat="45.03765500" lon="5.97770100"><ele></ele><time>2014-4-4T15:10:28Z</time></trkpt>
<trkpt lat="45.03764800" lon="5.97752400"><ele></ele><time>2014-4-4T15:10:31Z</time></trkpt>
<trkpt lat="45.03755800" lon="5.97739700"><ele></ele><time>2014-4-4T15:10:34Z</time></trkpt>
<trkpt lat="45.03743100" lon="5.97729300"><ele></ele><time>2014-4-4T15:10:37Z</time></trkpt>
<trkpt lat="45.03731200" lon="5.97720100"><ele></ele><time>2014-4-4T15:10:40Z</time></trkpt>
<trkpt lat="45.03717900" lon="5.97709900"><ele></ele><time>2014-4-4T15:10:43Z</time></trkpt>
<trkpt lat="45.03702900" lon="5.97697700"><ele></ele><time>2014-4-4T15:10:46Z</time></trkpt>
<trkpt lat="45.03687300" lon="5.97684800"><ele></ele><time>2014-4-4T15:10:49Z</time></trkpt>
<trkpt lat="45.03671000" lon="5.97674000"><ele></ele><time>2014-4-4T15:10:52Z</time></trkpt>
<trkpt lat="45.03658500" lon="5.97664500"><ele></ele><time>2014-4-4T15:10:55Z</time></trkpt>
<trkpt lat="45.03652300" lon="5.97659700"><ele></ele><time>2014-4-4T15:10:58Z</time></trkpt>
<trkpt lat="45.03640000" lon="5.97649900"><ele></ele><time>2014-4-4T15:11:1Z</time></trkpt>
<trkpt lat="45.03625100" lon="5.97637000"><ele></ele><time>2014-4-4T15:11:4Z</time></trkpt>
<trkpt lat="45.03613900" lon="5.97631700"><ele></ele><time>2014-4-4T15:11:7Z</time></trkpt>
<trkpt lat="45.03601700" lon="5.97626100"><ele></ele><time>2014-4-4T15:11:10Z</time></trkpt>
<trkpt lat="45.03590200" lon="5.97618700"><ele></ele><time>2014-4-4T15:11:13Z</time></trkpt>
<trkpt lat="45.03579300" lon="5.97611000"><ele></ele><time>2014-4-4T15:11:16Z</time></trkpt>
<trkpt lat="45.03563700" lon="5.97598800"><ele></ele><time>2014-4-4T15:11:19Z</time></trkpt>
<trkpt lat="45.03552700" lon="5.97587700"><ele></ele><time>2014-4-4T15:11:22Z</time></trkpt>
<trkpt lat="45.03542600" lon="5.97579300"><ele></ele><time>2014-4-4T15:11:25Z</time></trkpt>
<trkpt lat="45.03530800" lon="5.97565900"><ele></ele><time>2014-4-4T15:11:28Z</time></trkpt>
<trkpt lat="45.03519100" lon="5.97551500"><ele></ele><time>2014-4-4T15:11:31Z</time></trkpt>
<trkpt lat="45.03509600" lon="5.97536600"><ele></ele><time>2014-4-4T15:11:34Z</time></trkpt>
<trkpt lat="45.03502500" lon="5.97513800"><ele></ele><time>2014-4-4T15:11:37Z</time></trkpt>
<trkpt lat="45.03500800" lon="5.97491500"><ele></ele><time>2014-4-4T15:11:40Z</time></trkpt>
<trkpt lat="45.03502200" lon="5.97469500"><ele></ele><time>2014-4-4T15:11:43Z</time></trkpt>
<trkpt lat="45.03498500" lon="5.97455400"><ele></ele><time>2014-4-4T15:11:46Z</time></trkpt>
<trkpt lat="45.03488600" lon="5.97442900"><ele></ele><time>2014-4-4T15:11:49Z</time></trkpt>
<trkpt lat="45.03477900" lon="5.97434300"><ele></ele><time>2014-4-4T15:11:52Z</time></trkpt>
<trkpt lat="45.03464100" lon="5.97424100"><ele></ele><time>2014-4-4T15:11:55Z</time></trkpt>
<trkpt lat="45.03448100" lon="5.97415700"><ele></ele><time>2014-4-4T15:11:58Z</time></trkpt>
<trkpt lat="45.03431300" lon="5.97411500"><ele></ele><time>2014-4-4T15:12:1Z</time></trkpt>
<trkpt lat="45.03411700" lon="5.97412100"><ele></ele><time>2014-4-4T15:12:4Z</time></trkpt>
<trkpt lat="45.03393300" lon="5.97414500"><ele></ele><time>2014-4-4T15:12:7Z</time></trkpt>
<trkpt lat="45.03372000" lon="5.97417500"><ele></ele><time>2014-4-4T15:12:10Z</time></trkpt>
<trkpt lat="45.03353500" lon="5.97419900"><ele></ele><time>2014-4-4T15:12:13Z</time></trkpt>
<trkpt lat="45.03335800" lon="5.97425600"><ele></ele><time>2014-4-4T15:12:16Z</time></trkpt>
<trkpt lat="45.03317400" lon="5.97444400"><ele></ele><time>2014-4-4T15:12:19Z</time></trkpt>
<trkpt lat="45.03300200" lon="5.97465400"><ele></ele><time>2014-4-4T15:12:22Z</time></trkpt>
<trkpt lat="45.03284500" lon="5.97482700"><ele></ele><time>2014-4-4T15:12:25Z</time></trkpt>
<trkpt lat="45.03267800" lon="5.97498100"><ele></ele><time>2014-4-4T15:12:28Z</time></trkpt>
<trkpt lat="45.03252700" lon="5.97501100"><ele></ele><time>2014-4-4T15:12:31Z</time></trkpt>
<trkpt lat="45.03236600" lon="5.97501300"><ele></ele><time>2014-4-4T15:12:34Z</time></trkpt>
<trkpt lat="45.03221300" lon="5.97507400"><ele></ele><time>2014-4-4T15:12:37Z</time></trkpt>
<trkpt lat="45.03203000" lon="5.97509000"><ele></ele><time>2014-4-4T15:12:40Z</time></trkpt>
<trkpt lat="45.03180900" lon="5.97503200"><ele></ele><time>2014-4-4T15:12:43Z</time></trkpt>
<trkpt lat="45.03168000" lon="5.97500000"><ele></ele><time>2014-4-4T15:12:46Z</time></trkpt>
<trkpt lat="45.03152400" lon="5.97497900"><ele></ele><time>2014-4-4T15:12:49Z</time></trkpt>
<trkpt lat="45.03132300" lon="5.97496100"><ele></ele><time>2014-4-4T15:12:52Z</time></trkpt>
<trkpt lat="45.03112500" lon="5.97496700"><ele></ele><time>2014-4-4T15:12:55Z</time></trkpt>
<trkpt lat="45.03097600" lon="5.97494000"><ele></ele><time>2014-4-4T15:12:58Z</time></trkpt>
<trkpt lat="45.03084300" lon="5.97491900"><ele></ele><time>2014-4-4T15:13:1Z</time></trkpt>
<trkpt lat="45.03071500" lon="5.97486400"><ele></ele><time>2014-4-4T15:13:4Z</time></trkpt>
<trkpt lat="45.03054900" lon="5.97474200"><ele></ele><time>2014-4-4T15:13:7Z</time></trkpt>
<trkpt lat="45.03034500" lon="5.97461800"><ele></ele><time>2014-4-4T15:13:10Z</time></trkpt>
<trkpt lat="45.03016100" lon="5.97449600"><ele></ele><time>2014-4-4T15:13:13Z</time></trkpt>
<trkpt lat="45.02999200" lon="5.97436400"><ele></ele><time>2014-4-4T15:13:16Z</time></trkpt>
<trkpt lat="45.02983000" lon="5.97424700"><ele></ele><time>2014-4-4T15:13:19Z</time></trkpt>
<trkpt lat="45.02968100" lon="5.97416400"><ele></ele><time>2014-4-4T15:13:22Z</time></trkpt>
<trkpt lat="45.02954100" lon="5.97411800"><ele></ele><time>2014-4-4T15:13:25Z</time></trkpt>
<trkpt lat="45.02932000" lon="5.97403600"><ele></ele><time>2014-4-4T15:13:28Z</time></trkpt>
<trkpt lat="45.02914700" lon="5.97395800"><ele></ele><time>2014-4-4T15:13:31Z</time></trkpt>
<trkpt lat="45.02902600" lon="5.97386900"><ele></ele><time>2014-4-4T15:13:34Z</time></trkpt>
<trkpt lat="45.02883400" lon="5.97368800"><ele></ele><time>2014-4-4T15:13:37Z</time></trkpt>
<trkpt lat="45.02869000" lon="5.97358100"><ele></ele><time>2014-4-4T15:13:40Z</time></trkpt>
<trkpt lat="45.02857000" lon="5.97352700"><ele></ele><time>2014-4-4T15:13:43Z</time></trkpt>
<trkpt lat="45.02843300" lon="5.97346100"><ele></ele><time>2014-4-4T15:13:46Z</time></trkpt>
<trkpt lat="45.02825700" lon="5.97338100"><ele></ele><time>2014-4-4T15:13:49Z</time></trkpt>
<trkpt lat="45.02807700" lon="5.97329600"><ele></ele><time>2014-4-4T15:13:52Z</time></trkpt>
<trkpt lat="45.02793400" lon="5.97321000"><ele></ele><time>2014-4-4T15:13:55Z</time></trkpt>
<trkpt lat="45.02778800" lon="5.97312900"><ele></ele><time>2014-4-4T15:13:58Z</time></trkpt>
<trkpt lat="45.02765500" lon="5.97299700"><ele></ele><time>2014-4-4T15:14:1Z</time></trkpt>
<trkpt lat="45.02750500" lon="5.97287000"><ele></ele><time>2014-4-4T15:14:4Z</time></trkpt>
<trkpt lat="45.02748900" lon="5.97286700"><ele></ele><time>2014-4-4T15:14:7Z</time></trkpt>
<trkpt lat="45.02749100" lon="5.97285200"><ele></ele><time>2014-4-4T15:14:10Z</time></trkpt>
<trkpt lat="45.02747700" lon="5.97285600"><ele></ele><time>2014-4-4T15:14:13Z</time></trkpt>
<trkpt lat="45.02747400" lon="5.97286100"><ele></ele><time>2014-4-4T15:14:16Z</time></trkpt>
<trkpt lat="45.02742300" lon="5.97308200"><ele></ele><time>2014-4-4T15:14:19Z</time></trkpt>
<trkpt lat="45.02749200" lon="5.97320100"><ele></ele><time>2014-4-4T15:14:22Z</time></trkpt>
<trkpt lat="45.02768200" lon="5.97335000"><ele></ele><time>2014-4-4T15:14:25Z</time></trkpt>
<trkpt lat="45.02779100" lon="5.97348600"><ele></ele><time>2014-4-4T15:14:28Z</time></trkpt>
<trkpt lat="45.02789800" lon="5.97363600"><ele></ele><time>2014-4-4T15:14:31Z</time></trkpt>
<trkpt lat="45.02798700" lon="5.97376100"><ele></ele><time>2014-4-4T15:14:34Z</time></trkpt>
<trkpt lat="45.02822100" lon="5.97407300"><ele></ele><time>2014-4-4T15:14:37Z</time></trkpt>
<trkpt lat="45.02838300" lon="5.97428300"><ele></ele><time>2014-4-4T15:14:40Z</time></trkpt>
<trkpt lat="45.02852800" lon="5.97441200"><ele></ele><time>2014-4-4T15:14:43Z</time></trkpt>
<trkpt lat="45.02866300" lon="5.97454100"><ele></ele><time>2014-4-4T15:14:46Z</time></trkpt>
<trkpt lat="45.02879500" lon="5.97467000"><ele></ele><time>2014-4-4T15:14:49Z</time></trkpt>
<trkpt lat="45.02891800" lon="5.97480300"><ele></ele><time>2014-4-4T15:14:52Z</time></trkpt>
<trkpt lat="45.02904200" lon="5.97493500"><ele></ele><time>2014-4-4T15:14:55Z</time></trkpt>
<trkpt lat="45.02919100" lon="5.97507500"><ele></ele><time>2014-4-4T15:14:58Z</time></trkpt>
<trkpt lat="45.02931200" lon="5.97520400"><ele></ele><time>2014-4-4T15:15:1Z</time></trkpt>
<trkpt lat="45.02947200" lon="5.97536600"><ele></ele><time>2014-4-4T15:15:4Z</time></trkpt>
<trkpt lat="45.02961700" lon="5.97551400"><ele></ele><time>2014-4-4T15:15:7Z</time></trkpt>
<trkpt lat="45.02972700" lon="5.97561300"><ele></ele><time>2014-4-4T15:15:10Z</time></trkpt>
<trkpt lat="45.02986300" lon="5.97572400"><ele></ele><time>2014-4-4T15:15:13Z</time></trkpt>
<trkpt lat="45.03001700" lon="5.97584200"><ele></ele><time>2014-4-4T15:15:16Z</time></trkpt>
<trkpt lat="45.03017000" lon="5.97598500"><ele></ele><time>2014-4-4T15:15:19Z</time></trkpt>
<trkpt lat="45.03018100" lon="5.97601400"><ele></ele><time>2014-4-4T15:15:22Z</time></trkpt>
<trkpt lat="45.03012800" lon="5.97610400"><ele></ele><time>2014-4-4T15:15:25Z</time></trkpt>
<trkpt lat="45.03005800" lon="5.97605100"><ele></ele><time>2014-4-4T15:15:28Z</time></trkpt>
<trkpt lat="45.02985800" lon="5.97585900"><ele></ele><time>2014-4-4T15:15:31Z</time></trkpt>
<trkpt lat="45.02963800" lon="5.97574500"><ele></ele><time>2014-4-4T15:15:34Z</time></trkpt>
<trkpt lat="45.02947400" lon="5.97567200"><ele></ele><time>2014-4-4T15:15:37Z</time></trkpt>
<trkpt lat="45.02923500" lon="5.97554200"><ele></ele><time>2014-4-4T15:15:40Z</time></trkpt>
<trkpt lat="45.02899200" lon="5.97541500"><ele></ele><time>2014-4-4T15:15:43Z</time></trkpt>
<trkpt lat="45.02876900" lon="5.97530700"><ele></ele><time>2014-4-4T15:15:46Z</time></trkpt>
<trkpt lat="45.02859400" lon="5.97522800"><ele></ele><time>2014-4-4T15:15:49Z</time></trkpt>
<trkpt lat="45.02842200" lon="5.97513700"><ele></ele><time>2014-4-4T15:15:52Z</time></trkpt>
<trkpt lat="45.02824500" lon="5.97504500"><ele></ele><time>2014-4-4T15:15:55Z</time></trkpt>
<trkpt lat="45.02807000" lon="5.97495500"><ele></ele><time>2014-4-4T15:15:58Z</time></trkpt>
<trkpt lat="45.02786700" lon="5.97485100"><ele></ele><time>2014-4-4T15:16:1Z</time></trkpt>
<trkpt lat="45.02765100" lon="5.97476300"><ele></ele><time>2014-4-4T15:16:4Z</time></trkpt>
<trkpt lat="45.02746700" lon="5.97473300"><ele></ele><time>2014-4-4T15:16:7Z</time></trkpt>
<trkpt lat="45.02725600" lon="5.97475200"><ele></ele><time>2014-4-4T15:16:10Z</time></trkpt>
<trkpt lat="45.02708000" lon="5.97475600"><ele></ele><time>2014-4-4T15:16:13Z</time></trkpt>
<trkpt lat="45.02688500" lon="5.97477000"><ele></ele><time>2014-4-4T15:16:16Z</time></trkpt>
<trkpt lat="45.02671300" lon="5.97478300"><ele></ele><time>2014-4-4T15:16:19Z</time></trkpt>
<trkpt lat="45.02652200" lon="5.97478400"><ele></ele><time>2014-4-4T15:16:22Z</time></trkpt>
<trkpt lat="45.02633700" lon="5.97475100"><ele></ele><time>2014-4-4T15:16:25Z</time></trkpt>
<trkpt lat="45.02612700" lon="5.97469000"><ele></ele><time>2014-4-4T15:16:28Z</time></trkpt>
<trkpt lat="45.02591300" lon="5.97462100"><ele></ele><time>2014-4-4T15:16:31Z</time></trkpt>
<trkpt lat="45.02572900" lon="5.97457300"><ele></ele><time>2014-4-4T15:16:34Z</time></trkpt>
<trkpt lat="45.02557300" lon="5.97453800"><ele></ele><time>2014-4-4T15:16:37Z</time></trkpt>
<trkpt lat="45.02538800" lon="5.97448500"><ele></ele><time>2014-4-4T15:16:40Z</time></trkpt>
<trkpt lat="45.02518400" lon="5.97443800"><ele></ele><time>2014-4-4T15:16:43Z</time></trkpt>
<trkpt lat="45.02502900" lon="5.97439100"><ele></ele><time>2014-4-4T15:16:46Z</time></trkpt>
<trkpt lat="45.02482800" lon="5.97433500"><ele></ele><time>2014-4-4T15:16:49Z</time></trkpt>
<trkpt lat="45.02462500" lon="5.97426200"><ele></ele><time>2014-4-4T15:16:52Z</time></trkpt>
<trkpt lat="45.02443800" lon="5.97417600"><ele></ele><time>2014-4-4T15:16:55Z</time></trkpt>
<trkpt lat="45.02427700" lon="5.97410500"><ele></ele><time>2014-4-4T15:16:58Z</time></trkpt>
<trkpt lat="45.02411500" lon="5.97403400"><ele></ele><time>2014-4-4T15:17:1Z</time></trkpt>
<trkpt lat="45.02398200" lon="5.97397000"><ele></ele><time>2014-4-4T15:17:4Z</time></trkpt>
<trkpt lat="45.02385200" lon="5.97389100"><ele></ele><time>2014-4-4T15:17:7Z</time></trkpt>
<trkpt lat="45.02365700" lon="5.97380000"><ele></ele><time>2014-4-4T15:17:10Z</time></trkpt>
<trkpt lat="45.02347600" lon="5.97372300"><ele></ele><time>2014-4-4T15:17:13Z</time></trkpt>
<trkpt lat="45.02331200" lon="5.97367000"><ele></ele><time>2014-4-4T15:17:16Z</time></trkpt>
<trkpt lat="45.02315600" lon="5.97360800"><ele></ele><time>2014-4-4T15:17:19Z</time></trkpt>
<trkpt lat="45.02301800" lon="5.97357600"><ele></ele><time>2014-4-4T15:17:22Z</time></trkpt>
<trkpt lat="45.02282500" lon="5.97354800"><ele></ele><time>2014-4-4T15:17:25Z</time></trkpt>
<trkpt lat="45.02270900" lon="5.97354200"><ele></ele><time>2014-4-4T15:17:28Z</time></trkpt>
<trkpt lat="45.02255400" lon="5.97351900"><ele></ele><time>2014-4-4T15:17:31Z</time></trkpt>
<trkpt lat="45.02230800" lon="5.97347800"><ele></ele><time>2014-4-4T15:17:34Z</time></trkpt>
<trkpt lat="45.02213600" lon="5.97346200"><ele></ele><time>2014-4-4T15:17:37Z</time></trkpt>
<trkpt lat="45.02195100" lon="5.97343200"><ele></ele><time>2014-4-4T15:17:40Z</time></trkpt>
<trkpt lat="45.02177300" lon="5.97341100"><ele></ele><time>2014-4-4T15:17:43Z</time></trkpt>
<trkpt lat="45.02162200" lon="5.97338800"><ele></ele><time>2014-4-4T15:17:46Z</time></trkpt>
<trkpt lat="45.02144600" lon="5.97336200"><ele></ele><time>2014-4-4T15:17:49Z</time></trkpt>
<trkpt lat="45.02125500" lon="5.97333600"><ele></ele><time>2014-4-4T15:17:52Z</time></trkpt>
<trkpt lat="45.02098700" lon="5.97330600"><ele></ele><time>2014-4-4T15:17:55Z</time></trkpt>
<trkpt lat="45.02080900" lon="5.97328800"><ele></ele><time>2014-4-4T15:17:58Z</time></trkpt>
<trkpt lat="45.02063100" lon="5.97326400"><ele></ele><time>2014-4-4T15:18:1Z</time></trkpt>
<trkpt lat="45.02048500" lon="5.97324800"><ele></ele><time>2014-4-4T15:18:4Z</time></trkpt>
<trkpt lat="45.02029300" lon="5.97323200"><ele></ele><time>2014-4-4T15:18:7Z</time></trkpt>
<trkpt lat="45.02010500" lon="5.97319200"><ele></ele><time>2014-4-4T15:18:10Z</time></trkpt>
<trkpt lat="45.01990200" lon="5.97313100"><ele></ele><time>2014-4-4T15:18:13Z</time></trkpt>
<trkpt lat="45.01967200" lon="5.97305700"><ele></ele><time>2014-4-4T15:18:16Z</time></trkpt>
<trkpt lat="45.01946900" lon="5.97293600"><ele></ele><time>2014-4-4T15:18:19Z</time></trkpt>
<trkpt lat="45.01934800" lon="5.97276000"><ele></ele><time>2014-4-4T15:18:22Z</time></trkpt>
<trkpt lat="45.01922500" lon="5.97252100"><ele></ele><time>2014-4-4T15:18:25Z</time></trkpt>
<trkpt lat="45.01913700" lon="5.97235400"><ele></ele><time>2014-4-4T15:18:28Z</time></trkpt>
<trkpt lat="45.01905600" lon="5.97217700"><ele></ele><time>2014-4-4T15:18:31Z</time></trkpt>
<trkpt lat="45.01894100" lon="5.97195800"><ele></ele><time>2014-4-4T15:18:34Z</time></trkpt>
<trkpt lat="45.01881300" lon="5.97177300"><ele></ele><time>2014-4-4T15:18:37Z</time></trkpt>
<trkpt lat="45.01868500" lon="5.97166700"><ele></ele><time>2014-4-4T15:18:40Z</time></trkpt>
<trkpt lat="45.01850400" lon="5.97151800"><ele></ele><time>2014-4-4T15:18:43Z</time></trkpt>
<trkpt lat="45.01848500" lon="5.97150300"><ele></ele><time>2014-4-4T15:18:46Z</time></trkpt>
<trkpt lat="45.01828300" lon="5.97134000"><ele></ele><time>2014-4-4T15:18:49Z</time></trkpt>
<trkpt lat="45.01813100" lon="5.97123600"><ele></ele><time>2014-4-4T15:18:52Z</time></trkpt>
<trkpt lat="45.01798600" lon="5.97113200"><ele></ele><time>2014-4-4T15:18:55Z</time></trkpt>
<trkpt lat="45.01786100" lon="5.97102800"><ele></ele><time>2014-4-4T15:18:58Z</time></trkpt>
<trkpt lat="45.01771600" lon="5.97090900"><ele></ele><time>2014-4-4T15:19:1Z</time></trkpt>
<trkpt lat="45.01759600" lon="5.97079800"><ele></ele><time>2014-4-4T15:19:4Z</time></trkpt>
<trkpt lat="45.01742100" lon="5.97063300"><ele></ele><time>2014-4-4T15:19:7Z</time></trkpt>
<trkpt lat="45.01731000" lon="5.97065600"><ele></ele><time>2014-4-4T15:19:10Z</time></trkpt>
<trkpt lat="45.01728100" lon="5.97067500"><ele></ele><time>2014-4-4T15:19:13Z</time></trkpt>
<trkpt lat="45.01725300" lon="5.97068200"><ele></ele><time>2014-4-4T15:19:16Z</time></trkpt>
<trkpt lat="45.01724400" lon="5.97069400"><ele></ele><time>2014-4-4T15:19:19Z</time></trkpt>
<trkpt lat="45.01724300" lon="5.97069400"><ele></ele><time>2014-4-4T15:19:22Z</time></trkpt>
<trkpt lat="45.01722300" lon="5.97060900"><ele></ele><time>2014-4-4T15:19:25Z</time></trkpt>
<trkpt lat="45.01720800" lon="5.97051200"><ele></ele><time>2014-4-4T15:19:28Z</time></trkpt>
<trkpt lat="45.01713200" lon="5.97040700"><ele></ele><time>2014-4-4T15:19:31Z</time></trkpt>
<trkpt lat="45.01693000" lon="5.97025100"><ele></ele><time>2014-4-4T15:19:34Z</time></trkpt>
<trkpt lat="45.01675500" lon="5.97010500"><ele></ele><time>2014-4-4T15:19:37Z</time></trkpt>
<trkpt lat="45.01656000" lon="5.96994200"><ele></ele><time>2014-4-4T15:19:40Z</time></trkpt>
<trkpt lat="45.01634300" lon="5.96978200"><ele></ele><time>2014-4-4T15:19:43Z</time></trkpt>
<trkpt lat="45.01615300" lon="5.96962700"><ele></ele><time>2014-4-4T15:19:46Z</time></trkpt>
<trkpt lat="45.01590400" lon="5.96943700"><ele></ele><time>2014-4-4T15:19:49Z</time></trkpt>
<trkpt lat="45.01574600" lon="5.96932500"><ele></ele><time>2014-4-4T15:19:52Z</time></trkpt>
<trkpt lat="45.01553600" lon="5.96921000"><ele></ele><time>2014-4-4T15:19:55Z</time></trkpt>
<trkpt lat="45.01533300" lon="5.96914800"><ele></ele><time>2014-4-4T15:19:58Z</time></trkpt>
<trkpt lat="45.01514300" lon="5.96908400"><ele></ele><time>2014-4-4T15:20:1Z</time></trkpt>
<trkpt lat="45.01496100" lon="5.96902800"><ele></ele><time>2014-4-4T15:20:4Z</time></trkpt>
<trkpt lat="45.01479100" lon="5.96896200"><ele></ele><time>2014-4-4T15:20:7Z</time></trkpt>
<trkpt lat="45.01453500" lon="5.96888100"><ele></ele><time>2014-4-4T15:20:10Z</time></trkpt>
<trkpt lat="45.01437100" lon="5.96881900"><ele></ele><time>2014-4-4T15:20:13Z</time></trkpt>
<trkpt lat="45.01408300" lon="5.96873100"><ele></ele><time>2014-4-4T15:20:16Z</time></trkpt>
<trkpt lat="45.01385600" lon="5.96865300"><ele></ele><time>2014-4-4T15:20:19Z</time></trkpt>
<trkpt lat="45.01359300" lon="5.96858100"><ele></ele><time>2014-4-4T15:20:22Z</time></trkpt>
<trkpt lat="45.01336700" lon="5.96850100"><ele></ele><time>2014-4-4T15:20:25Z</time></trkpt>
<trkpt lat="45.01308500" lon="5.96841400"><ele></ele><time>2014-4-4T15:20:28Z</time></trkpt>
<trkpt lat="45.01287500" lon="5.96836400"><ele></ele><time>2014-4-4T15:20:31Z</time></trkpt>
<trkpt lat="45.01258600" lon="5.96826700"><ele></ele><time>2014-4-4T15:20:34Z</time></trkpt>
<trkpt lat="45.01235800" lon="5.96821500"><ele></ele><time>2014-4-4T15:20:37Z</time></trkpt>
<trkpt lat="45.01206900" lon="5.96816000"><ele></ele><time>2014-4-4T15:20:40Z</time></trkpt>
<trkpt lat="45.01180700" lon="5.96811300"><ele></ele><time>2014-4-4T15:20:43Z</time></trkpt>
<trkpt lat="45.01145200" lon="5.96804600"><ele></ele><time>2014-4-4T15:20:46Z</time></trkpt>
<trkpt lat="45.01111200" lon="5.96798000"><ele></ele><time>2014-4-4T15:20:49Z</time></trkpt>
<trkpt lat="45.01085000" lon="5.96792600"><ele></ele><time>2014-4-4T15:20:52Z</time></trkpt>
<trkpt lat="45.01038900" lon="5.96783800"><ele></ele><time>2014-4-4T15:20:55Z</time></trkpt>
<trkpt lat="45.00993300" lon="5.96775500"><ele></ele><time>2014-4-4T15:20:58Z</time></trkpt>
<trkpt lat="45.00952700" lon="5.96768900"><ele></ele><time>2014-4-4T15:21:1Z</time></trkpt>
<trkpt lat="45.00909400" lon="5.96760300"><ele></ele><time>2014-4-4T15:21:4Z</time></trkpt>
<trkpt lat="45.00876100" lon="5.96753600"><ele></ele><time>2014-4-4T15:21:7Z</time></trkpt>
<trkpt lat="45.00844900" lon="5.96748100"><ele></ele><time>2014-4-4T15:21:10Z</time></trkpt>
<trkpt lat="45.00827000" lon="5.96745100"><ele></ele><time>2014-4-4T15:21:13Z</time></trkpt>
<trkpt lat="45.00806700" lon="5.96742700"><ele></ele><time>2014-4-4T15:21:16Z</time></trkpt>
<trkpt lat="45.00787500" lon="5.96740100"><ele></ele><time>2014-4-4T15:21:19Z</time></trkpt>
<trkpt lat="45.00763200" lon="5.96734900"><ele></ele><time>2014-4-4T15:21:22Z</time></trkpt>
<trkpt lat="45.00751000" lon="5.96731700"><ele></ele><time>2014-4-4T15:21:25Z</time></trkpt>
<trkpt lat="45.00722600" lon="5.96731900"><ele></ele><time>2014-4-4T15:21:28Z</time></trkpt>
<trkpt lat="45.00699500" lon="5.96747400"><ele></ele><time>2014-4-4T15:21:31Z</time></trkpt>
<trkpt lat="45.00685100" lon="5.96752700"><ele></ele><time>2014-4-4T15:21:34Z</time></trkpt>
<trkpt lat="45.00683600" lon="5.96754300"><ele></ele><time>2014-4-4T15:21:37Z</time></trkpt>
<trkpt lat="45.00691800" lon="5.96737100"><ele></ele><time>2014-4-4T15:21:40Z</time></trkpt>
<trkpt lat="45.00691500" lon="5.96729400"><ele></ele><time>2014-4-4T15:21:43Z</time></trkpt>
<trkpt lat="45.00684300" lon="5.96720700"><ele></ele><time>2014-4-4T15:21:46Z</time></trkpt>
<trkpt lat="45.00663900" lon="5.96714800"><ele></ele><time>2014-4-4T15:21:49Z</time></trkpt>
<trkpt lat="45.00638700" lon="5.96709600"><ele></ele><time>2014-4-4T15:21:52Z</time></trkpt>
<trkpt lat="45.00600700" lon="5.96700800"><ele></ele><time>2014-4-4T15:21:55Z</time></trkpt>
<trkpt lat="45.00560600" lon="5.96694400"><ele></ele><time>2014-4-4T15:21:58Z</time></trkpt>
<trkpt lat="45.00516700" lon="5.96694200"><ele></ele><time>2014-4-4T15:22:1Z</time></trkpt>
<trkpt lat="45.00466800" lon="5.96707100"><ele></ele><time>2014-4-4T15:22:4Z</time></trkpt>
<trkpt lat="45.00395700" lon="5.96742700"><ele></ele><time>2014-4-4T15:22:7Z</time></trkpt>
<trkpt lat="45.00329300" lon="5.96777700"><ele></ele><time>2014-4-4T15:22:10Z</time></trkpt>
<trkpt lat="45.00250000" lon="5.96819000"><ele></ele><time>2014-4-4T15:22:13Z</time></trkpt>
<trkpt lat="45.00197700" lon="5.96846100"><ele></ele><time>2014-4-4T15:22:16Z</time></trkpt>
<trkpt lat="45.00131300" lon="5.96881800"><ele></ele><time>2014-4-4T15:22:19Z</time></trkpt>
<trkpt lat="45.00052200" lon="5.96923200"><ele></ele><time>2014-4-4T15:22:22Z</time></trkpt>
<trkpt lat="45.00008800" lon="5.96958900"><ele></ele><time>2014-4-4T15:22:25Z</time></trkpt>
<trkpt lat="44.99987900" lon="5.96980400"><ele></ele><time>2014-4-4T15:22:28Z</time></trkpt>
<trkpt lat="44.99903300" lon="5.97071400"><ele></ele><time>2014-4-4T15:22:31Z</time></trkpt>
<trkpt lat="44.99844800" lon="5.97123600"><ele></ele><time>2014-4-4T15:22:34Z</time></trkpt>
<trkpt lat="44.99722600" lon="5.97223500"><ele></ele><time>2014-4-4T15:22:37Z</time></trkpt>
<trkpt lat="44.99666800" lon="5.97270200"><ele></ele><time>2014-4-4T15:22:40Z</time></trkpt>
<trkpt lat="44.99658700" lon="5.97278600"><ele></ele><time>2014-4-4T15:22:43Z</time></trkpt>
<trkpt lat="44.99646000" lon="5.97294300"><ele></ele><time>2014-4-4T15:22:46Z</time></trkpt>
<trkpt lat="44.99634900" lon="5.97305200"><ele></ele><time>2014-4-4T15:22:49Z</time></trkpt>
<trkpt lat="44.99624600" lon="5.97299900"><ele></ele><time>2014-4-4T15:22:52Z</time></trkpt>
<trkpt lat="44.99620600" lon="5.97282000"><ele></ele><time>2014-4-4T15:22:55Z</time></trkpt>
<trkpt lat="44.99618100" lon="5.97209500"><ele></ele><time>2014-4-4T15:22:58Z</time></trkpt>
<trkpt lat="44.99613800" lon="5.97123600"><ele></ele><time>2014-4-4T15:23:1Z</time></trkpt>
<trkpt lat="44.99603800" lon="5.97051500"><ele></ele><time>2014-4-4T15:23:4Z</time></trkpt>
<trkpt lat="44.99594900" lon="5.96998600"><ele></ele><time>2014-4-4T15:23:7Z</time></trkpt>
<trkpt lat="44.99586000" lon="5.96944700"><ele></ele><time>2014-4-4T15:23:10Z</time></trkpt>
<trkpt lat="44.99579000" lon="5.96901900"><ele></ele><time>2014-4-4T15:23:13Z</time></trkpt>
<trkpt lat="44.99565400" lon="5.96823800"><ele></ele><time>2014-4-4T15:23:16Z</time></trkpt>
<trkpt lat="44.99545100" lon="5.96700300"><ele></ele><time>2014-4-4T15:23:19Z</time></trkpt>
<trkpt lat="44.99528300" lon="5.96593900"><ele></ele><time>2014-4-4T15:23:22Z</time></trkpt>
<trkpt lat="44.99526500" lon="5.96580600"><ele></ele><time>2014-4-4T15:23:25Z</time></trkpt>
<trkpt lat="44.99516300" lon="5.96553300"><ele></ele><time>2014-4-4T15:23:28Z</time></trkpt>
<trkpt lat="44.99502700" lon="5.96551900"><ele></ele><time>2014-4-4T15:23:31Z</time></trkpt>
<trkpt lat="44.99489900" lon="5.96563700"><ele></ele><time>2014-4-4T15:23:34Z</time></trkpt>
<trkpt lat="44.99454900" lon="5.96604000"><ele></ele><time>2014-4-4T15:23:37Z</time></trkpt>
<trkpt lat="44.99408700" lon="5.96641200"><ele></ele><time>2014-4-4T15:23:40Z</time></trkpt>
<trkpt lat="44.99334700" lon="5.96696200"><ele></ele><time>2014-4-4T15:23:43Z</time></trkpt>
<trkpt lat="44.99267500" lon="5.96756000"><ele></ele><time>2014-4-4T15:23:46Z</time></trkpt>
<trkpt lat="44.99210100" lon="5.96810100"><ele></ele><time>2014-4-4T15:23:49Z</time></trkpt>
<trkpt lat="44.99164000" lon="5.96853100"><ele></ele><time>2014-4-4T15:23:52Z</time></trkpt>
<trkpt lat="44.99135600" lon="5.96879900"><ele></ele><time>2014-4-4T15:23:55Z</time></trkpt>
<trkpt lat="44.99112000" lon="5.96887800"><ele></ele><time>2014-4-4T15:23:58Z</time></trkpt>
<trkpt lat="44.99101900" lon="5.96870600"><ele></ele><time>2014-4-4T15:24:1Z</time></trkpt>
<trkpt lat="44.99099000" lon="5.96858900"><ele></ele><time>2014-4-4T15:24:4Z</time></trkpt>
<trkpt lat="44.99094100" lon="5.96834100"><ele></ele><time>2014-4-4T15:24:7Z</time></trkpt>
<trkpt lat="44.99079700" lon="5.96765500"><ele></ele><time>2014-4-4T15:24:10Z</time></trkpt>
<trkpt lat="44.99073500" lon="5.96735500"><ele></ele><time>2014-4-4T15:24:13Z</time></trkpt>
<trkpt lat="44.99052100" lon="5.96641000"><ele></ele><time>2014-4-4T15:24:16Z</time></trkpt>
<trkpt lat="44.99046100" lon="5.96614800"><ele></ele><time>2014-4-4T15:24:19Z</time></trkpt>
<trkpt lat="44.99032400" lon="5.96595300"><ele></ele><time>2014-4-4T15:24:22Z</time></trkpt>
<trkpt lat="44.99013300" lon="5.96604800"><ele></ele><time>2014-4-4T15:24:25Z</time></trkpt>
<trkpt lat="44.99007400" lon="5.96612100"><ele></ele><time>2014-4-4T15:24:28Z</time></trkpt>
<trkpt lat="44.98965400" lon="5.96664900"><ele></ele><time>2014-4-4T15:24:31Z</time></trkpt>
<trkpt lat="44.98921500" lon="5.96717700"><ele></ele><time>2014-4-4T15:24:34Z</time></trkpt>
<trkpt lat="44.98882700" lon="5.96764600"><ele></ele><time>2014-4-4T15:24:37Z</time></trkpt>
<trkpt lat="44.98821000" lon="5.96839500"><ele></ele><time>2014-4-4T15:24:40Z</time></trkpt>
<trkpt lat="44.98742600" lon="5.96932300"><ele></ele><time>2014-4-4T15:24:43Z</time></trkpt>
<trkpt lat="44.98666800" lon="5.97024700"><ele></ele><time>2014-4-4T15:24:46Z</time></trkpt>
<trkpt lat="44.98658400" lon="5.97035100"><ele></ele><time>2014-4-4T15:24:49Z</time></trkpt>
<trkpt lat="44.98643600" lon="5.97052700"><ele></ele><time>2014-4-4T15:24:52Z</time></trkpt>
<trkpt lat="44.98621500" lon="5.97063500"><ele></ele><time>2014-4-4T15:24:55Z</time></trkpt>
<trkpt lat="44.98608800" lon="5.97051000"><ele></ele><time>2014-4-4T15:24:58Z</time></trkpt>
<trkpt lat="44.98603700" lon="5.97027600"><ele></ele><time>2014-4-4T15:25:1Z</time></trkpt>
<trkpt lat="44.98601000" lon="5.96986900"><ele></ele><time>2014-4-4T15:25:4Z</time></trkpt>
<trkpt lat="44.98594200" lon="5.96930500"><ele></ele><time>2014-4-4T15:25:7Z</time></trkpt>
<trkpt lat="44.98566700" lon="5.96865500"><ele></ele><time>2014-4-4T15:25:10Z</time></trkpt>
<trkpt lat="44.98507500" lon="5.96787600"><ele></ele><time>2014-4-4T15:25:13Z</time></trkpt>
<trkpt lat="44.98453900" lon="5.96716600"><ele></ele><time>2014-4-4T15:25:16Z</time></trkpt>
<trkpt lat="44.98377800" lon="5.96616400"><ele></ele><time>2014-4-4T15:25:19Z</time></trkpt>
<trkpt lat="44.98323300" lon="5.96544600"><ele></ele><time>2014-4-4T15:25:22Z</time></trkpt>
<trkpt lat="44.98315400" lon="5.96533400"><ele></ele><time>2014-4-4T15:25:25Z</time></trkpt>
<trkpt lat="44.98292400" lon="5.96483200"><ele></ele><time>2014-4-4T15:25:28Z</time></trkpt>
<trkpt lat="44.98289100" lon="5.96470800"><ele></ele><time>2014-4-4T15:25:31Z</time></trkpt>
<trkpt lat="44.98268700" lon="5.96389100"><ele></ele><time>2014-4-4T15:25:34Z</time></trkpt>
<trkpt lat="44.98265600" lon="5.96378300"><ele></ele><time>2014-4-4T15:25:37Z</time></trkpt>
<trkpt lat="44.98244100" lon="5.96341800"><ele></ele><time>2014-4-4T15:25:40Z</time></trkpt>
<trkpt lat="44.98218400" lon="5.96327300"><ele></ele><time>2014-4-4T15:25:43Z</time></trkpt>
<trkpt lat="44.98198700" lon="5.96326800"><ele></ele><time>2014-4-4T15:25:46Z</time></trkpt>
<trkpt lat="44.98178800" lon="5.96335700"><ele></ele><time>2014-4-4T15:25:49Z</time></trkpt>
<trkpt lat="44.98106700" lon="5.96388700"><ele></ele><time>2014-4-4T15:25:52Z</time></trkpt>
<trkpt lat="44.98085400" lon="5.96402800"><ele></ele><time>2014-4-4T15:25:55Z</time></trkpt>
<trkpt lat="44.98041700" lon="5.96406000"><ele></ele><time>2014-4-4T15:25:58Z</time></trkpt>
<trkpt lat="44.98022000" lon="5.96390200"><ele></ele><time>2014-4-4T15:26:1Z</time></trkpt>
<trkpt lat="44.98013600" lon="5.96378800"><ele></ele><time>2014-4-4T15:26:4Z</time></trkpt>
<trkpt lat="44.97961200" lon="5.96287700"><ele></ele><time>2014-4-4T15:26:7Z</time></trkpt>
<trkpt lat="44.97946600" lon="5.96261300"><ele></ele><time>2014-4-4T15:26:10Z</time></trkpt>
<trkpt lat="44.97924000" lon="5.96223800"><ele></ele><time>2014-4-4T15:26:13Z</time></trkpt>
<trkpt lat="44.97882900" lon="5.96194300"><ele></ele><time>2014-4-4T15:26:16Z</time></trkpt>
<trkpt lat="44.97800500" lon="5.96167900"><ele></ele><time>2014-4-4T15:26:19Z</time></trkpt>
<trkpt lat="44.97728500" lon="5.96143800"><ele></ele><time>2014-4-4T15:26:22Z</time></trkpt>
<trkpt lat="44.97645800" lon="5.96117000"><ele></ele><time>2014-4-4T15:26:25Z</time></trkpt>
<trkpt lat="44.97583800" lon="5.96097600"><ele></ele><time>2014-4-4T15:26:28Z</time></trkpt>
<trkpt lat="44.97492700" lon="5.96068000"><ele></ele><time>2014-4-4T15:26:31Z</time></trkpt>
<trkpt lat="44.97482400" lon="5.96064700"><ele></ele><time>2014-4-4T15:26:34Z</time></trkpt>
<trkpt lat="44.97367800" lon="5.96027900"><ele></ele><time>2014-4-4T15:26:37Z</time></trkpt>
<trkpt lat="44.97326900" lon="5.96014900"><ele></ele><time>2014-4-4T15:26:40Z</time></trkpt>
<trkpt lat="44.97250400" lon="5.95990000"><ele></ele><time>2014-4-4T15:26:43Z</time></trkpt>
<trkpt lat="44.97241200" lon="5.95986700"><ele></ele><time>2014-4-4T15:26:46Z</time></trkpt>
<trkpt lat="44.97177900" lon="5.95966700"><ele></ele><time>2014-4-4T15:26:49Z</time></trkpt>
<trkpt lat="44.97092900" lon="5.95938100"><ele></ele><time>2014-4-4T15:26:52Z</time></trkpt>
<trkpt lat="44.97061300" lon="5.95944900"><ele></ele><time>2014-4-4T15:26:55Z</time></trkpt>
<trkpt lat="44.97044700" lon="5.95969400"><ele></ele><time>2014-4-4T15:26:58Z</time></trkpt>
<trkpt lat="44.97013500" lon="5.96038200"><ele></ele><time>2014-4-4T15:27:1Z</time></trkpt>
<trkpt lat="44.96992300" lon="5.96073400"><ele></ele><time>2014-4-4T15:27:4Z</time></trkpt>
<trkpt lat="44.96958300" lon="5.96098100"><ele></ele><time>2014-4-4T15:27:7Z</time></trkpt>
<trkpt lat="44.96914400" lon="5.96119300"><ele></ele><time>2014-4-4T15:27:10Z</time></trkpt>
<trkpt lat="44.96888900" lon="5.96130000"><ele></ele><time>2014-4-4T15:27:13Z</time></trkpt>
<trkpt lat="44.96849100" lon="5.96134300"><ele></ele><time>2014-4-4T15:27:16Z</time></trkpt>
<trkpt lat="44.96802200" lon="5.96125700"><ele></ele><time>2014-4-4T15:27:19Z</time></trkpt>
<trkpt lat="44.96725100" lon="5.96103500"><ele></ele><time>2014-4-4T15:27:22Z</time></trkpt>
<trkpt lat="44.96675100" lon="5.96089100"><ele></ele><time>2014-4-4T15:27:25Z</time></trkpt>
<trkpt lat="44.96653100" lon="5.96085100"><ele></ele><time>2014-4-4T15:27:28Z</time></trkpt>
<trkpt lat="44.96602000" lon="5.96089100"><ele></ele><time>2014-4-4T15:27:31Z</time></trkpt>
<trkpt lat="44.96562000" lon="5.96082700"><ele></ele><time>2014-4-4T15:27:34Z</time></trkpt>
<trkpt lat="44.96516300" lon="5.96072800"><ele></ele><time>2014-4-4T15:27:37Z</time></trkpt>
<trkpt lat="44.96485500" lon="5.96085100"><ele></ele><time>2014-4-4T15:27:40Z</time></trkpt>
<trkpt lat="44.96475800" lon="5.96096600"><ele></ele><time>2014-4-4T15:27:43Z</time></trkpt>
<trkpt lat="44.96458300" lon="5.96123600"><ele></ele><time>2014-4-4T15:27:46Z</time></trkpt>
<trkpt lat="44.96434000" lon="5.96139300"><ele></ele><time>2014-4-4T15:27:49Z</time></trkpt>
<trkpt lat="44.96419700" lon="5.96134700"><ele></ele><time>2014-4-4T15:27:52Z</time></trkpt>
<trkpt lat="44.96396900" lon="5.96123100"><ele></ele><time>2014-4-4T15:27:55Z</time></trkpt>
<trkpt lat="44.96363900" lon="5.96124700"><ele></ele><time>2014-4-4T15:27:58Z</time></trkpt>
<trkpt lat="44.96355900" lon="5.96129300"><ele></ele><time>2014-4-4T15:28:1Z</time></trkpt>
<trkpt lat="44.96331500" lon="5.96144100"><ele></ele><time>2014-4-4T15:28:4Z</time></trkpt>
<trkpt lat="44.96295000" lon="5.96148100"><ele></ele><time>2014-4-4T15:28:7Z</time></trkpt>
<trkpt lat="44.96238200" lon="5.96135300"><ele></ele><time>2014-4-4T15:28:10Z</time></trkpt>
<trkpt lat="44.96190600" lon="5.96142500"><ele></ele><time>2014-4-4T15:28:13Z</time></trkpt>
<trkpt lat="44.96131100" lon="5.96153500"><ele></ele><time>2014-4-4T15:28:16Z</time></trkpt>
<trkpt lat="44.96091900" lon="5.96138200"><ele></ele><time>2014-4-4T15:28:19Z</time></trkpt>
<trkpt lat="44.96082500" lon="5.96132200"><ele></ele><time>2014-4-4T15:28:22Z</time></trkpt>
<trkpt lat="44.96023800" lon="5.96114100"><ele></ele><time>2014-4-4T15:28:25Z</time></trkpt>
<trkpt lat="44.95954600" lon="5.96100900"><ele></ele><time>2014-4-4T15:28:28Z</time></trkpt>
<trkpt lat="44.95934600" lon="5.96098400"><ele></ele><time>2014-4-4T15:28:31Z</time></trkpt>
<trkpt lat="44.95896000" lon="5.96111000"><ele></ele><time>2014-4-4T15:28:34Z</time></trkpt>
<trkpt lat="44.95887200" lon="5.96117600"><ele></ele><time>2014-4-4T15:28:37Z</time></trkpt>
<trkpt lat="44.95869900" lon="5.96132200"><ele></ele><time>2014-4-4T15:28:40Z</time></trkpt>
<trkpt lat="44.95830600" lon="5.96150000"><ele></ele><time>2014-4-4T15:28:43Z</time></trkpt>
<trkpt lat="44.95785700" lon="5.96160300"><ele></ele><time>2014-4-4T15:28:46Z</time></trkpt>
<trkpt lat="44.95763700" lon="5.96166300"><ele></ele><time>2014-4-4T15:28:49Z</time></trkpt>
<trkpt lat="44.95743900" lon="5.96168600"><ele></ele><time>2014-4-4T15:28:52Z</time></trkpt>
<trkpt lat="44.95717300" lon="5.96154000"><ele></ele><time>2014-4-4T15:28:55Z</time></trkpt>
<trkpt lat="44.95710700" lon="5.96149100"><ele></ele><time>2014-4-4T15:28:58Z</time></trkpt>
<trkpt lat="44.95683000" lon="5.96146700"><ele></ele><time>2014-4-4T15:29:1Z</time></trkpt>
<trkpt lat="44.95676800" lon="5.96150900"><ele></ele><time>2014-4-4T15:29:4Z</time></trkpt>
<trkpt lat="44.95607100" lon="5.96205600"><ele></ele><time>2014-4-4T15:29:7Z</time></trkpt>
<trkpt lat="44.95591000" lon="5.96218600"><ele></ele><time>2014-4-4T15:29:10Z</time></trkpt>
<trkpt lat="44.95559500" lon="5.96260600"><ele></ele><time>2014-4-4T15:29:13Z</time></trkpt>
<trkpt lat="44.95527300" lon="5.96311900"><ele></ele><time>2014-4-4T15:29:16Z</time></trkpt>
<trkpt lat="44.95497700" lon="5.96358700"><ele></ele><time>2014-4-4T15:29:19Z</time></trkpt>
<trkpt lat="44.95458500" lon="5.96421500"><ele></ele><time>2014-4-4T15:29:22Z</time></trkpt>
<trkpt lat="44.95414700" lon="5.96487800"><ele></ele><time>2014-4-4T15:29:25Z</time></trkpt>
<trkpt lat="44.95391600" lon="5.96515500"><ele></ele><time>2014-4-4T15:29:28Z</time></trkpt>
<trkpt lat="44.95372300" lon="5.96534400"><ele></ele><time>2014-4-4T15:29:31Z</time></trkpt>
<trkpt lat="44.95310900" lon="5.96593100"><ele></ele><time>2014-4-4T15:29:34Z</time></trkpt>
<trkpt lat="44.95271300" lon="5.96619300"><ele></ele><time>2014-4-4T15:29:37Z</time></trkpt>
<trkpt lat="44.95237000" lon="5.96629600"><ele></ele><time>2014-4-4T15:29:40Z</time></trkpt>
<trkpt lat="44.95161400" lon="5.96647300"><ele></ele><time>2014-4-4T15:29:43Z</time></trkpt>
<trkpt lat="44.95109800" lon="5.96640300"><ele></ele><time>2014-4-4T15:29:46Z</time></trkpt>
<trkpt lat="44.95068500" lon="5.96647100"><ele></ele><time>2014-4-4T15:29:49Z</time></trkpt>
<trkpt lat="44.95004900" lon="5.96662500"><ele></ele><time>2014-4-4T15:29:52Z</time></trkpt>
<trkpt lat="44.94989200" lon="5.96662400"><ele></ele><time>2014-4-4T15:29:55Z</time></trkpt>
<trkpt lat="44.94935300" lon="5.96670300"><ele></ele><time>2014-4-4T15:29:58Z</time></trkpt>
<trkpt lat="44.94875000" lon="5.96692700"><ele></ele><time>2014-4-4T15:30:1Z</time></trkpt>
<trkpt lat="44.94805300" lon="5.96727000"><ele></ele><time>2014-4-4T15:30:4Z</time></trkpt>
<trkpt lat="44.94765900" lon="5.96758200"><ele></ele><time>2014-4-4T15:30:7Z</time></trkpt>
<trkpt lat="44.94693200" lon="5.96825000"><ele></ele><time>2014-4-4T15:30:10Z</time></trkpt>
<trkpt lat="44.94655600" lon="5.96862700"><ele></ele><time>2014-4-4T15:30:13Z</time></trkpt>
<trkpt lat="44.94624600" lon="5.96900100"><ele></ele><time>2014-4-4T15:30:16Z</time></trkpt>
<trkpt lat="44.94585900" lon="5.96948000"><ele></ele><time>2014-4-4T15:30:19Z</time></trkpt>
<trkpt lat="44.94545000" lon="5.96995600"><ele></ele><time>2014-4-4T15:30:22Z</time></trkpt>
<trkpt lat="44.94524300" lon="5.97014700"><ele></ele><time>2014-4-4T15:30:25Z</time></trkpt>
<trkpt lat="44.94478100" lon="5.97046900"><ele></ele><time>2014-4-4T15:30:28Z</time></trkpt>
<trkpt lat="44.94411100" lon="5.97082700"><ele></ele><time>2014-4-4T15:30:31Z</time></trkpt>
<trkpt lat="44.94377900" lon="5.97100200"><ele></ele><time>2014-4-4T15:30:34Z</time></trkpt>
<trkpt lat="44.94336600" lon="5.97122700"><ele></ele><time>2014-4-4T15:30:37Z</time></trkpt>
<trkpt lat="44.94268400" lon="5.97160500"><ele></ele><time>2014-4-4T15:30:40Z</time></trkpt>
<trkpt lat="44.94198200" lon="5.97195300"><ele></ele><time>2014-4-4T15:30:43Z</time></trkpt>
<trkpt lat="44.94125600" lon="5.97213300"><ele></ele><time>2014-4-4T15:30:46Z</time></trkpt>
<trkpt lat="44.94083400" lon="5.97223900"><ele></ele><time>2014-4-4T15:30:49Z</time></trkpt>
<trkpt lat="44.94018700" lon="5.97244100"><ele></ele><time>2014-4-4T15:30:52Z</time></trkpt>
<trkpt lat="44.93942700" lon="5.97266900"><ele></ele><time>2014-4-4T15:30:55Z</time></trkpt>
<trkpt lat="44.93897600" lon="5.97281400"><ele></ele><time>2014-4-4T15:30:58Z</time></trkpt>
<trkpt lat="44.93891900" lon="5.97283400"><ele></ele><time>2014-4-4T15:31:1Z</time></trkpt>
<trkpt lat="44.93851500" lon="5.97294800"><ele></ele><time>2014-4-4T15:31:4Z</time></trkpt>
<trkpt lat="44.93823100" lon="5.97303000"><ele></ele><time>2014-4-4T15:31:7Z</time></trkpt>
<trkpt lat="44.93788000" lon="5.97313400"><ele></ele><time>2014-4-4T15:31:10Z</time></trkpt>
<trkpt lat="44.93764500" lon="5.97327400"><ele></ele><time>2014-4-4T15:31:13Z</time></trkpt>
<trkpt lat="44.93736900" lon="5.97349300"><ele></ele><time>2014-4-4T15:31:16Z</time></trkpt>
<trkpt lat="44.93714400" lon="5.97372600"><ele></ele><time>2014-4-4T15:31:19Z</time></trkpt>
<trkpt lat="44.93680800" lon="5.97400800"><ele></ele><time>2014-4-4T15:31:22Z</time></trkpt>
<trkpt lat="44.93672400" lon="5.97409300"><ele></ele><time>2014-4-4T15:31:25Z</time></trkpt>
<trkpt lat="44.93654500" lon="5.97414100"><ele></ele><time>2014-4-4T15:31:28Z</time></trkpt>
<trkpt lat="44.93650000" lon="5.97410100"><ele></ele><time>2014-4-4T15:31:31Z</time></trkpt>
<trkpt lat="44.93615600" lon="5.97370800"><ele></ele><time>2014-4-4T15:31:34Z</time></trkpt>
<trkpt lat="44.93585800" lon="5.97338000"><ele></ele><time>2014-4-4T15:31:37Z</time></trkpt>
<trkpt lat="44.93537600" lon="5.97280000"><ele></ele><time>2014-4-4T15:31:40Z</time></trkpt>
<trkpt lat="44.93505800" lon="5.97248100"><ele></ele><time>2014-4-4T15:31:43Z</time></trkpt>
<trkpt lat="44.93464100" lon="5.97209900"><ele></ele><time>2014-4-4T15:31:46Z</time></trkpt>
<trkpt lat="44.93409000" lon="5.97151700"><ele></ele><time>2014-4-4T15:31:49Z</time></trkpt>
<trkpt lat="44.93371700" lon="5.97124700"><ele></ele><time>2014-4-4T15:31:52Z</time></trkpt>
<trkpt lat="44.93342300" lon="5.97107400"><ele></ele><time>2014-4-4T15:31:55Z</time></trkpt>
<trkpt lat="44.93327000" lon="5.97103200"><ele></ele><time>2014-4-4T15:31:58Z</time></trkpt>
<trkpt lat="44.93288600" lon="5.97104900"><ele></ele><time>2014-4-4T15:32:1Z</time></trkpt>
<trkpt lat="44.93233400" lon="5.97110200"><ele></ele><time>2014-4-4T15:32:4Z</time></trkpt>
<trkpt lat="44.93192100" lon="5.97113300"><ele></ele><time>2014-4-4T15:32:7Z</time></trkpt>
<trkpt lat="44.93143100" lon="5.97105200"><ele></ele><time>2014-4-4T15:32:10Z</time></trkpt>
<trkpt lat="44.93089500" lon="5.97078500"><ele></ele><time>2014-4-4T15:32:13Z</time></trkpt>
<trkpt lat="44.93025400" lon="5.97041100"><ele></ele><time>2014-4-4T15:32:16Z</time></trkpt>
<trkpt lat="44.92997500" lon="5.97010500"><ele></ele><time>2014-4-4T15:32:19Z</time></trkpt>
<trkpt lat="44.92951300" lon="5.96954900"><ele></ele><time>2014-4-4T15:32:22Z</time></trkpt>
<trkpt lat="44.92913900" lon="5.96927500"><ele></ele><time>2014-4-4T15:32:25Z</time></trkpt>
<trkpt lat="44.92874600" lon="5.96897200"><ele></ele><time>2014-4-4T15:32:28Z</time></trkpt>
<trkpt lat="44.92826100" lon="5.96851500"><ele></ele><time>2014-4-4T15:32:31Z</time></trkpt>
<trkpt lat="44.92784000" lon="5.96812100"><ele></ele><time>2014-4-4T15:32:34Z</time></trkpt>
<trkpt lat="44.92741700" lon="5.96766900"><ele></ele><time>2014-4-4T15:32:37Z</time></trkpt>
<trkpt lat="44.92703700" lon="5.96717300"><ele></ele><time>2014-4-4T15:32:40Z</time></trkpt>
<trkpt lat="44.92674900" lon="5.96699000"><ele></ele><time>2014-4-4T15:32:43Z</time></trkpt>
<trkpt lat="44.92623500" lon="5.96687800"><ele></ele><time>2014-4-4T15:32:46Z</time></trkpt>
<trkpt lat="44.92582400" lon="5.96675000"><ele></ele><time>2014-4-4T15:32:49Z</time></trkpt>
<trkpt lat="44.92535100" lon="5.96658400"><ele></ele><time>2014-4-4T15:32:52Z</time></trkpt>
<trkpt lat="44.92496600" lon="5.96643400"><ele></ele><time>2014-4-4T15:32:55Z</time></trkpt>
<trkpt lat="44.92464200" lon="5.96612600"><ele></ele><time>2014-4-4T15:32:58Z</time></trkpt>
<trkpt lat="44.92430300" lon="5.96581800"><ele></ele><time>2014-4-4T15:33:1Z</time></trkpt>
<trkpt lat="44.92378300" lon="5.96549900"><ele></ele><time>2014-4-4T15:33:4Z</time></trkpt>
<trkpt lat="44.92338200" lon="5.96527700"><ele></ele><time>2014-4-4T15:33:7Z</time></trkpt>
<trkpt lat="44.92298800" lon="5.96504000"><ele></ele><time>2014-4-4T15:33:10Z</time></trkpt>
<trkpt lat="44.92245700" lon="5.96474400"><ele></ele><time>2014-4-4T15:33:13Z</time></trkpt>
<trkpt lat="44.92201000" lon="5.96449300"><ele></ele><time>2014-4-4T15:33:16Z</time></trkpt>
<trkpt lat="44.92173000" lon="5.96422900"><ele></ele><time>2014-4-4T15:33:19Z</time></trkpt>
<trkpt lat="44.92140600" lon="5.96387600"><ele></ele><time>2014-4-4T15:33:22Z</time></trkpt>
<trkpt lat="44.92100300" lon="5.96354000"><ele></ele><time>2014-4-4T15:33:25Z</time></trkpt>
<trkpt lat="44.92062700" lon="5.96326000"><ele></ele><time>2014-4-4T15:33:28Z</time></trkpt>
<trkpt lat="44.92032300" lon="5.96303400"><ele></ele><time>2014-4-4T15:33:31Z</time></trkpt>
<trkpt lat="44.91988400" lon="5.96263700"><ele></ele><time>2014-4-4T15:33:34Z</time></trkpt>
<trkpt lat="44.91946700" lon="5.96225000"><ele></ele><time>2014-4-4T15:33:37Z</time></trkpt>
<trkpt lat="44.91916400" lon="5.96207600"><ele></ele><time>2014-4-4T15:33:40Z</time></trkpt>
<trkpt lat="44.91872300" lon="5.96191700"><ele></ele><time>2014-4-4T15:33:43Z</time></trkpt>
<trkpt lat="44.91836000" lon="5.96179900"><ele></ele><time>2014-4-4T15:33:46Z</time></trkpt>
<trkpt lat="44.91808400" lon="5.96149500"><ele></ele><time>2014-4-4T15:33:49Z</time></trkpt>
<trkpt lat="44.91795700" lon="5.96103200"><ele></ele><time>2014-4-4T15:33:52Z</time></trkpt>
<trkpt lat="44.91791000" lon="5.96078900"><ele></ele><time>2014-4-4T15:33:55Z</time></trkpt>
<trkpt lat="44.91773600" lon="5.96035600"><ele></ele><time>2014-4-4T15:33:58Z</time></trkpt>
<trkpt lat="44.91742400" lon="5.95988200"><ele></ele><time>2014-4-4T15:34:1Z</time></trkpt>
<trkpt lat="44.91714100" lon="5.95952600"><ele></ele><time>2014-4-4T15:34:4Z</time></trkpt>
<trkpt lat="44.91695700" lon="5.95905100"><ele></ele><time>2014-4-4T15:34:7Z</time></trkpt>
<trkpt lat="44.91695100" lon="5.95891200"><ele></ele><time>2014-4-4T15:34:10Z</time></trkpt>
<trkpt lat="44.91695600" lon="5.95877200"><ele></ele><time>2014-4-4T15:34:13Z</time></trkpt>
<trkpt lat="44.91697800" lon="5.95849200"><ele></ele><time>2014-4-4T15:34:16Z</time></trkpt>
<trkpt lat="44.91690600" lon="5.95782300"><ele></ele><time>2014-4-4T15:34:19Z</time></trkpt>
<trkpt lat="44.91684800" lon="5.95756100"><ele></ele><time>2014-4-4T15:34:22Z</time></trkpt>
<trkpt lat="44.91664100" lon="5.95670100"><ele></ele><time>2014-4-4T15:34:25Z</time></trkpt>
<trkpt lat="44.91656500" lon="5.95646900"><ele></ele><time>2014-4-4T15:34:28Z</time></trkpt>
<trkpt lat="44.91621700" lon="5.95544800"><ele></ele><time>2014-4-4T15:34:31Z</time></trkpt>
<trkpt lat="44.91600500" lon="5.95481400"><ele></ele><time>2014-4-4T15:34:34Z</time></trkpt>
<trkpt lat="44.91575500" lon="5.95410700"><ele></ele><time>2014-4-4T15:34:37Z</time></trkpt>
<trkpt lat="44.91562400" lon="5.95382000"><ele></ele><time>2014-4-4T15:34:40Z</time></trkpt>
<trkpt lat="44.91521700" lon="5.95293800"><ele></ele><time>2014-4-4T15:34:43Z</time></trkpt>
<trkpt lat="44.91501700" lon="5.95253300"><ele></ele><time>2014-4-4T15:34:46Z</time></trkpt>
<trkpt lat="44.91461600" lon="5.95191900"><ele></ele><time>2014-4-4T15:34:49Z</time></trkpt>
<trkpt lat="44.91417900" lon="5.95125800"><ele></ele><time>2014-4-4T15:34:52Z</time></trkpt>
<trkpt lat="44.91393700" lon="5.95099900"><ele></ele><time>2014-4-4T15:34:55Z</time></trkpt>
<trkpt lat="44.91366700" lon="5.95087000"><ele></ele><time>2014-4-4T15:34:58Z</time></trkpt>
<trkpt lat="44.91310000" lon="5.95082300"><ele></ele><time>2014-4-4T15:35:1Z</time></trkpt>
<trkpt lat="44.91261900" lon="5.95075000"><ele></ele><time>2014-4-4T15:35:4Z</time></trkpt>
<trkpt lat="44.91210200" lon="5.95073400"><ele></ele><time>2014-4-4T15:35:7Z</time></trkpt>
<trkpt lat="44.91162100" lon="5.95062300"><ele></ele><time>2014-4-4T15:35:10Z</time></trkpt>
<trkpt lat="44.91118400" lon="5.95052200"><ele></ele><time>2014-4-4T15:35:13Z</time></trkpt>
<trkpt lat="44.91086400" lon="5.95045800"><ele></ele><time>2014-4-4T15:35:16Z</time></trkpt>
<trkpt lat="44.91052200" lon="5.95034200"><ele></ele><time>2014-4-4T15:35:19Z</time></trkpt>
<trkpt lat="44.91016000" lon="5.95012900"><ele></ele><time>2014-4-4T15:35:22Z</time></trkpt>
<trkpt lat="44.90977300" lon="5.94989200"><ele></ele><time>2014-4-4T15:35:25Z</time></trkpt>
<trkpt lat="44.90944800" lon="5.94956200"><ele></ele><time>2014-4-4T15:35:28Z</time></trkpt>
<trkpt lat="44.90906300" lon="5.94917700"><ele></ele><time>2014-4-4T15:35:31Z</time></trkpt>
<trkpt lat="44.90867700" lon="5.94899000"><ele></ele><time>2014-4-4T15:35:34Z</time></trkpt>
<trkpt lat="44.90824900" lon="5.94891600"><ele></ele><time>2014-4-4T15:35:37Z</time></trkpt>
<trkpt lat="44.90762600" lon="5.94876600"><ele></ele><time>2014-4-4T15:35:40Z</time></trkpt>
<trkpt lat="44.90726200" lon="5.94868900"><ele></ele><time>2014-4-4T15:35:43Z</time></trkpt>
<trkpt lat="44.90684800" lon="5.94840300"><ele></ele><time>2014-4-4T15:35:46Z</time></trkpt>
<trkpt lat="44.90660800" lon="5.94819000"><ele></ele><time>2014-4-4T15:35:49Z</time></trkpt>
<trkpt lat="44.90629800" lon="5.94785700"><ele></ele><time>2014-4-4T15:35:52Z</time></trkpt>
<trkpt lat="44.90600200" lon="5.94770000"><ele></ele><time>2014-4-4T15:35:55Z</time></trkpt>
<trkpt lat="44.90563200" lon="5.94762400"><ele></ele><time>2014-4-4T15:35:58Z</time></trkpt>
<trkpt lat="44.90522200" lon="5.94764900"><ele></ele><time>2014-4-4T15:36:1Z</time></trkpt>
<trkpt lat="44.90473200" lon="5.94775500"><ele></ele><time>2014-4-4T15:36:4Z</time></trkpt>
<trkpt lat="44.90441000" lon="5.94781800"><ele></ele><time>2014-4-4T15:36:7Z</time></trkpt>
<trkpt lat="44.90415600" lon="5.94788700"><ele></ele><time>2014-4-4T15:36:10Z</time></trkpt>
<trkpt lat="44.90383500" lon="5.94798400"><ele></ele><time>2014-4-4T15:36:13Z</time></trkpt>
<trkpt lat="44.90349700" lon="5.94809700"><ele></ele><time>2014-4-4T15:36:16Z</time></trkpt>
<trkpt lat="44.90324800" lon="5.94819000"><ele></ele><time>2014-4-4T15:36:19Z</time></trkpt>
<trkpt lat="44.90306400" lon="5.94828300"><ele></ele><time>2014-4-4T15:36:22Z</time></trkpt>
<trkpt lat="44.90300400" lon="5.94830000"><ele></ele><time>2014-4-4T15:36:25Z</time></trkpt>
<trkpt lat="44.90285000" lon="5.94838000"><ele></ele><time>2014-4-4T15:36:28Z</time></trkpt>
<trkpt lat="44.90267000" lon="5.94846200"><ele></ele><time>2014-4-4T15:36:31Z</time></trkpt>
<trkpt lat="44.90248700" lon="5.94854700"><ele></ele><time>2014-4-4T15:36:34Z</time></trkpt>
<trkpt lat="44.90229100" lon="5.94862600"><ele></ele><time>2014-4-4T15:36:37Z</time></trkpt>
<trkpt lat="44.90207100" lon="5.94870200"><ele></ele><time>2014-4-4T15:36:40Z</time></trkpt>
<trkpt lat="44.90195700" lon="5.94877100"><ele></ele><time>2014-4-4T15:36:43Z</time></trkpt>
<trkpt lat="44.90195100" lon="5.94877700"><ele></ele><time>2014-4-4T15:36:46Z</time></trkpt>
<trkpt lat="44.90191300" lon="5.94882300"><ele></ele><time>2014-4-4T15:36:49Z</time></trkpt>
<trkpt lat="44.90192700" lon="5.94883800"><ele></ele><time>2014-4-4T15:36:52Z</time></trkpt>
<trkpt lat="44.90193100" lon="5.94883700"><ele></ele><time>2014-4-4T15:36:55Z</time></trkpt>
<trkpt lat="44.90193000" lon="5.94884500"><ele></ele><time>2014-4-4T15:36:58Z</time></trkpt>
<trkpt lat="44.90194300" lon="5.94894400"><ele></ele><time>2014-4-4T15:37:1Z</time></trkpt>
<trkpt lat="44.90194500" lon="5.94893900"><ele></ele><time>2014-4-4T15:37:4Z</time></trkpt>
<trkpt lat="44.90194300" lon="5.94893800"><ele></ele><time>2014-4-4T15:37:7Z</time></trkpt>
<trkpt lat="44.90181100" lon="5.94906700"><ele></ele><time>2014-4-4T15:37:10Z</time></trkpt>
<trkpt lat="44.90189800" lon="5.94889000"><ele></ele><time>2014-4-4T15:37:13Z</time></trkpt>
<trkpt lat="44.90178600" lon="5.94895500"><ele></ele><time>2014-4-4T15:37:16Z</time></trkpt>
<trkpt lat="44.90163800" lon="5.94899800"><ele></ele><time>2014-4-4T15:37:19Z</time></trkpt>
<trkpt lat="44.90157000" lon="5.94902100"><ele></ele><time>2014-4-4T15:37:22Z</time></trkpt>
<trkpt lat="44.90150000" lon="5.94889700"><ele></ele><time>2014-4-4T15:37:25Z</time></trkpt>
<trkpt lat="44.90151400" lon="5.94872000"><ele></ele><time>2014-4-4T15:37:28Z</time></trkpt>
<trkpt lat="44.90156300" lon="5.94828900"><ele></ele><time>2014-4-4T15:37:31Z</time></trkpt>
<trkpt lat="44.90152800" lon="5.94795700"><ele></ele><time>2014-4-4T15:37:34Z</time></trkpt>
<trkpt lat="44.90134500" lon="5.94740500"><ele></ele><time>2014-4-4T15:37:37Z</time></trkpt>
<trkpt lat="44.90111600" lon="5.94674200"><ele></ele><time>2014-4-4T15:37:40Z</time></trkpt>
<trkpt lat="44.90095200" lon="5.94638300"><ele></ele><time>2014-4-4T15:37:43Z</time></trkpt>
<trkpt lat="44.90065700" lon="5.94606500"><ele></ele><time>2014-4-4T15:37:46Z</time></trkpt>
<trkpt lat="44.90057800" lon="5.94604700"><ele></ele><time>2014-4-4T15:37:49Z</time></trkpt>
<trkpt lat="44.90041700" lon="5.94603300"><ele></ele><time>2014-4-4T15:37:52Z</time></trkpt>
<trkpt lat="44.90015800" lon="5.94585800"><ele></ele><time>2014-4-4T15:37:55Z</time></trkpt>
<trkpt lat="44.90011800" lon="5.94577200"><ele></ele><time>2014-4-4T15:37:58Z</time></trkpt>
<trkpt lat="44.90006400" lon="5.94547300"><ele></ele><time>2014-4-4T15:38:1Z</time></trkpt>
<trkpt lat="44.90008300" lon="5.94527900"><ele></ele><time>2014-4-4T15:38:4Z</time></trkpt>
<trkpt lat="44.90014200" lon="5.94509400"><ele></ele><time>2014-4-4T15:38:7Z</time></trkpt>
<trkpt lat="44.90025700" lon="5.94475900"><ele></ele><time>2014-4-4T15:38:10Z</time></trkpt>
<trkpt lat="44.90026900" lon="5.94443700"><ele></ele><time>2014-4-4T15:38:13Z</time></trkpt>
<trkpt lat="44.90020900" lon="5.94434600"><ele></ele><time>2014-4-4T15:38:16Z</time></trkpt>
<trkpt lat="44.89992800" lon="5.94401800"><ele></ele><time>2014-4-4T15:38:19Z</time></trkpt>
<trkpt lat="44.89984100" lon="5.94390600"><ele></ele><time>2014-4-4T15:38:22Z</time></trkpt>
<trkpt lat="44.89981600" lon="5.94387200"><ele></ele><time>2014-4-4T15:38:25Z</time></trkpt>
<trkpt lat="44.89969000" lon="5.94370400"><ele></ele><time>2014-4-4T15:38:28Z</time></trkpt>
<trkpt lat="44.89958000" lon="5.94352900"><ele></ele><time>2014-4-4T15:38:31Z</time></trkpt>
<trkpt lat="44.89952000" lon="5.94342800"><ele></ele><time>2014-4-4T15:38:34Z</time></trkpt>
<trkpt lat="44.89940500" lon="5.94320500"><ele></ele><time>2014-4-4T15:38:37Z</time></trkpt>
<trkpt lat="44.89923700" lon="5.94293000"><ele></ele><time>2014-4-4T15:38:40Z</time></trkpt>
<trkpt lat="44.89908900" lon="5.94278600"><ele></ele><time>2014-4-4T15:38:43Z</time></trkpt>
<trkpt lat="44.89886500" lon="5.94261200"><ele></ele><time>2014-4-4T15:38:46Z</time></trkpt>
<trkpt lat="44.89873600" lon="5.94240000"><ele></ele><time>2014-4-4T15:38:49Z</time></trkpt>
<trkpt lat="44.89868900" lon="5.94213600"><ele></ele><time>2014-4-4T15:38:52Z</time></trkpt>
<trkpt lat="44.89870700" lon="5.94192900"><ele></ele><time>2014-4-4T15:38:55Z</time></trkpt>
<trkpt lat="44.89874700" lon="5.94175400"><ele></ele><time>2014-4-4T15:38:58Z</time></trkpt>
<trkpt lat="44.89880700" lon="5.94153800"><ele></ele><time>2014-4-4T15:39:1Z</time></trkpt>
<trkpt lat="44.89888800" lon="5.94127600"><ele></ele><time>2014-4-4T15:39:4Z</time></trkpt>
<trkpt lat="44.89888500" lon="5.94109300"><ele></ele><time>2014-4-4T15:39:7Z</time></trkpt>
<trkpt lat="44.89881700" lon="5.94088200"><ele></ele><time>2014-4-4T15:39:10Z</time></trkpt>
<trkpt lat="44.89873100" lon="5.94068500"><ele></ele><time>2014-4-4T15:39:13Z</time></trkpt>
<trkpt lat="44.89868500" lon="5.94042700"><ele></ele><time>2014-4-4T15:39:16Z</time></trkpt>
<trkpt lat="44.89868700" lon="5.94008500"><ele></ele><time>2014-4-4T15:39:19Z</time></trkpt>
<trkpt lat="44.89869700" lon="5.93979100"><ele></ele><time>2014-4-4T15:39:22Z</time></trkpt>
<trkpt lat="44.89866300" lon="5.93952400"><ele></ele><time>2014-4-4T15:39:25Z</time></trkpt>
<trkpt lat="44.89859800" lon="5.93922300"><ele></ele><time>2014-4-4T15:39:28Z</time></trkpt>
<trkpt lat="44.89854400" lon="5.93900900"><ele></ele><time>2014-4-4T15:39:31Z</time></trkpt>
<trkpt lat="44.89846300" lon="5.93872400"><ele></ele><time>2014-4-4T15:39:34Z</time></trkpt>
<trkpt lat="44.89837500" lon="5.93844100"><ele></ele><time>2014-4-4T15:39:37Z</time></trkpt>
<trkpt lat="44.89831800" lon="5.93821400"><ele></ele><time>2014-4-4T15:39:40Z</time></trkpt>
<trkpt lat="44.89823100" lon="5.93780600"><ele></ele><time>2014-4-4T15:39:43Z</time></trkpt>
<trkpt lat="44.89818700" lon="5.93756800"><ele></ele><time>2014-4-4T15:39:46Z</time></trkpt>
<trkpt lat="44.89806400" lon="5.93703400"><ele></ele><time>2014-4-4T15:39:49Z</time></trkpt>
<trkpt lat="44.89794500" lon="5.93654200"><ele></ele><time>2014-4-4T15:39:52Z</time></trkpt>
<trkpt lat="44.89781600" lon="5.93604700"><ele></ele><time>2014-4-4T15:39:55Z</time></trkpt>
<trkpt lat="44.89769900" lon="5.93568700"><ele></ele><time>2014-4-4T15:39:58Z</time></trkpt>
<trkpt lat="44.89765600" lon="5.93557200"><ele></ele><time>2014-4-4T15:40:1Z</time></trkpt>
<trkpt lat="44.89744500" lon="5.93513700"><ele></ele><time>2014-4-4T15:40:4Z</time></trkpt>
<trkpt lat="44.89724200" lon="5.93477000"><ele></ele><time>2014-4-4T15:40:7Z</time></trkpt>
<trkpt lat="44.89701400" lon="5.93435100"><ele></ele><time>2014-4-4T15:40:10Z</time></trkpt>
<trkpt lat="44.89678600" lon="5.93392300"><ele></ele><time>2014-4-4T15:40:13Z</time></trkpt>
<trkpt lat="44.89663100" lon="5.93365200"><ele></ele><time>2014-4-4T15:40:16Z</time></trkpt>
<trkpt lat="44.89654400" lon="5.93351600"><ele></ele><time>2014-4-4T15:40:19Z</time></trkpt>
<trkpt lat="44.89643600" lon="5.93354300"><ele></ele><time>2014-4-4T15:40:22Z</time></trkpt>
<trkpt lat="44.89625700" lon="5.93369700"><ele></ele><time>2014-4-4T15:40:25Z</time></trkpt>
<trkpt lat="44.89609000" lon="5.93385600"><ele></ele><time>2014-4-4T15:40:28Z</time></trkpt>
<trkpt lat="44.89595100" lon="5.93401300"><ele></ele><time>2014-4-4T15:40:31Z</time></trkpt>
<trkpt lat="44.89583100" lon="5.93413700"><ele></ele><time>2014-4-4T15:40:34Z</time></trkpt>
<trkpt lat="44.89563200" lon="5.93428000"><ele></ele><time>2014-4-4T15:40:37Z</time></trkpt>
<trkpt lat="44.89547100" lon="5.93434400"><ele></ele><time>2014-4-4T15:40:40Z</time></trkpt>
<trkpt lat="44.89527900" lon="5.93422400"><ele></ele><time>2014-4-4T15:40:43Z</time></trkpt>
<trkpt lat="44.89518300" lon="5.93413600"><ele></ele><time>2014-4-4T15:40:46Z</time></trkpt>
<trkpt lat="44.89501800" lon="5.93406000"><ele></ele><time>2014-4-4T15:40:49Z</time></trkpt>
<trkpt lat="44.89486200" lon="5.93403200"><ele></ele><time>2014-4-4T15:40:52Z</time></trkpt>
<trkpt lat="44.89467900" lon="5.93394200"><ele></ele><time>2014-4-4T15:40:55Z</time></trkpt>
<trkpt lat="44.89453600" lon="5.93388000"><ele></ele><time>2014-4-4T15:40:58Z</time></trkpt>
<trkpt lat="44.89433400" lon="5.93369700"><ele></ele><time>2014-4-4T15:41:1Z</time></trkpt>
<trkpt lat="44.89423600" lon="5.93350000"><ele></ele><time>2014-4-4T15:41:4Z</time></trkpt>
<trkpt lat="44.89411100" lon="5.93321100"><ele></ele><time>2014-4-4T15:41:7Z</time></trkpt>
<trkpt lat="44.89409600" lon="5.93316500"><ele></ele><time>2014-4-4T15:41:10Z</time></trkpt>
<trkpt lat="44.89415900" lon="5.93298500"><ele></ele><time>2014-4-4T15:41:13Z</time></trkpt>
<trkpt lat="44.89416900" lon="5.93290400"><ele></ele><time>2014-4-4T15:41:16Z</time></trkpt>
<trkpt lat="44.89410800" lon="5.93256600"><ele></ele><time>2014-4-4T15:41:19Z</time></trkpt>
<trkpt lat="44.89394400" lon="5.93225100"><ele></ele><time>2014-4-4T15:41:22Z</time></trkpt>
<trkpt lat="44.89378300" lon="5.93204400"><ele></ele><time>2014-4-4T15:41:25Z</time></trkpt>
<trkpt lat="44.89359900" lon="5.93189900"><ele></ele><time>2014-4-4T15:41:28Z</time></trkpt>
<trkpt lat="44.89346900" lon="5.93190300"><ele></ele><time>2014-4-4T15:41:31Z</time></trkpt>
<trkpt lat="44.89332700" lon="5.93191300"><ele></ele><time>2014-4-4T15:41:34Z</time></trkpt>
<trkpt lat="44.89314500" lon="5.93184000"><ele></ele><time>2014-4-4T15:41:37Z</time></trkpt>
<trkpt lat="44.89299600" lon="5.93171600"><ele></ele><time>2014-4-4T15:41:40Z</time></trkpt>
<trkpt lat="44.89290400" lon="5.93145400"><ele></ele><time>2014-4-4T15:41:43Z</time></trkpt>
<trkpt lat="44.89284900" lon="5.93114700"><ele></ele><time>2014-4-4T15:41:46Z</time></trkpt>
<trkpt lat="44.89282000" lon="5.93091200"><ele></ele><time>2014-4-4T15:41:49Z</time></trkpt>
<trkpt lat="44.89270000" lon="5.93058900"><ele></ele><time>2014-4-4T15:41:52Z</time></trkpt>
<trkpt lat="44.89256900" lon="5.93021500"><ele></ele><time>2014-4-4T15:41:55Z</time></trkpt>
<trkpt lat="44.89240400" lon="5.92973100"><ele></ele><time>2014-4-4T15:41:58Z</time></trkpt>
<trkpt lat="44.89232300" lon="5.92946700"><ele></ele><time>2014-4-4T15:42:1Z</time></trkpt>
<trkpt lat="44.89217800" lon="5.92911900"><ele></ele><time>2014-4-4T15:42:4Z</time></trkpt>
<trkpt lat="44.89203400" lon="5.92882100"><ele></ele><time>2014-4-4T15:42:7Z</time></trkpt>
<trkpt lat="44.89193800" lon="5.92849900"><ele></ele><time>2014-4-4T15:42:10Z</time></trkpt>
<trkpt lat="44.89183000" lon="5.92833800"><ele></ele><time>2014-4-4T15:42:13Z</time></trkpt>
<trkpt lat="44.89174100" lon="5.92815800"><ele></ele><time>2014-4-4T15:42:16Z</time></trkpt>
<trkpt lat="44.89168600" lon="5.92806000"><ele></ele><time>2014-4-4T15:42:19Z</time></trkpt>
<trkpt lat="44.89153600" lon="5.92789800"><ele></ele><time>2014-4-4T15:42:22Z</time></trkpt>
<trkpt lat="44.89146900" lon="5.92784800"><ele></ele><time>2014-4-4T15:42:25Z</time></trkpt>
<trkpt lat="44.89144700" lon="5.92783200"><ele></ele><time>2014-4-4T15:42:28Z</time></trkpt>
<trkpt lat="44.89128900" lon="5.92768500"><ele></ele><time>2014-4-4T15:42:31Z</time></trkpt>
<trkpt lat="44.89115000" lon="5.92756500"><ele></ele><time>2014-4-4T15:42:34Z</time></trkpt>
<trkpt lat="44.89105800" lon="5.92747700"><ele></ele><time>2014-4-4T15:42:37Z</time></trkpt>
<trkpt lat="44.89094500" lon="5.92734400"><ele></ele><time>2014-4-4T15:42:40Z</time></trkpt>
<trkpt lat="44.89083300" lon="5.92717400"><ele></ele><time>2014-4-4T15:42:43Z</time></trkpt>
<trkpt lat="44.89071700" lon="5.92711000"><ele></ele><time>2014-4-4T15:42:46Z</time></trkpt>
<trkpt lat="44.89058400" lon="5.92703700"><ele></ele><time>2014-4-4T15:42:49Z</time></trkpt>
<trkpt lat="44.89054100" lon="5.92687000"><ele></ele><time>2014-4-4T15:42:52Z</time></trkpt>
<trkpt lat="44.89048800" lon="5.92666500"><ele></ele><time>2014-4-4T15:42:55Z</time></trkpt>
<trkpt lat="44.89041000" lon="5.92646100"><ele></ele><time>2014-4-4T15:42:58Z</time></trkpt>
<trkpt lat="44.89032400" lon="5.92628000"><ele></ele><time>2014-4-4T15:43:1Z</time></trkpt>
<trkpt lat="44.89026500" lon="5.92604700"><ele></ele><time>2014-4-4T15:43:4Z</time></trkpt>
<trkpt lat="44.89018700" lon="5.92578100"><ele></ele><time>2014-4-4T15:43:7Z</time></trkpt>
<trkpt lat="44.89013800" lon="5.92557900"><ele></ele><time>2014-4-4T15:43:10Z</time></trkpt>
<trkpt lat="44.89010300" lon="5.92543400"><ele></ele><time>2014-4-4T15:43:13Z</time></trkpt>
<trkpt lat="44.89008700" lon="5.92520700"><ele></ele><time>2014-4-4T15:43:16Z</time></trkpt>
<trkpt lat="44.89007300" lon="5.92498800"><ele></ele><time>2014-4-4T15:43:19Z</time></trkpt>
<trkpt lat="44.89004700" lon="5.92477500"><ele></ele><time>2014-4-4T15:43:22Z</time></trkpt>
<trkpt lat="44.88997700" lon="5.92453100"><ele></ele><time>2014-4-4T15:43:25Z</time></trkpt>
<trkpt lat="44.88988500" lon="5.92426800"><ele></ele><time>2014-4-4T15:43:28Z</time></trkpt>
<trkpt lat="44.88979700" lon="5.92407300"><ele></ele><time>2014-4-4T15:43:31Z</time></trkpt>
<trkpt lat="44.88969700" lon="5.92403900"><ele></ele><time>2014-4-4T15:43:34Z</time></trkpt>
<trkpt lat="44.88962000" lon="5.92405300"><ele></ele><time>2014-4-4T15:43:37Z</time></trkpt>
<trkpt lat="44.88945700" lon="5.92414300"><ele></ele><time>2014-4-4T15:43:40Z</time></trkpt>
<trkpt lat="44.88940500" lon="5.92430300"><ele></ele><time>2014-4-4T15:43:43Z</time></trkpt>
<trkpt lat="44.88942000" lon="5.92455300"><ele></ele><time>2014-4-4T15:43:46Z</time></trkpt>
<trkpt lat="44.88944100" lon="5.92478000"><ele></ele><time>2014-4-4T15:43:49Z</time></trkpt>
<trkpt lat="44.88946100" lon="5.92505700"><ele></ele><time>2014-4-4T15:43:52Z</time></trkpt>
<trkpt lat="44.88944100" lon="5.92530400"><ele></ele><time>2014-4-4T15:43:55Z</time></trkpt>
<trkpt lat="44.88933300" lon="5.92540200"><ele></ele><time>2014-4-4T15:43:58Z</time></trkpt>
<trkpt lat="44.88930600" lon="5.92540300"><ele></ele><time>2014-4-4T15:44:1Z</time></trkpt>
<trkpt lat="44.88919700" lon="5.92522300"><ele></ele><time>2014-4-4T15:44:4Z</time></trkpt>
<trkpt lat="44.88918400" lon="5.92514500"><ele></ele><time>2014-4-4T15:44:7Z</time></trkpt>
<trkpt lat="44.88909900" lon="5.92477100"><ele></ele><time>2014-4-4T15:44:10Z</time></trkpt>
<trkpt lat="44.88903400" lon="5.92453000"><ele></ele><time>2014-4-4T15:44:13Z</time></trkpt>
<trkpt lat="44.88894600" lon="5.92429400"><ele></ele><time>2014-4-4T15:44:16Z</time></trkpt>
<trkpt lat="44.88883700" lon="5.92428000"><ele></ele><time>2014-4-4T15:44:19Z</time></trkpt>
<trkpt lat="44.88876400" lon="5.92439600"><ele></ele><time>2014-4-4T15:44:22Z</time></trkpt>
<trkpt lat="44.88875800" lon="5.92465200"><ele></ele><time>2014-4-4T15:44:25Z</time></trkpt>
<trkpt lat="44.88877000" lon="5.92494000"><ele></ele><time>2014-4-4T15:44:28Z</time></trkpt>
<trkpt lat="44.88878200" lon="5.92533000"><ele></ele><time>2014-4-4T15:44:31Z</time></trkpt>
<trkpt lat="44.88879100" lon="5.92566800"><ele></ele><time>2014-4-4T15:44:34Z</time></trkpt>
<trkpt lat="44.88880500" lon="5.92600200"><ele></ele><time>2014-4-4T15:44:37Z</time></trkpt>
<trkpt lat="44.88883200" lon="5.92623000"><ele></ele><time>2014-4-4T15:44:40Z</time></trkpt>
<trkpt lat="44.88885700" lon="5.92649200"><ele></ele><time>2014-4-4T15:44:43Z</time></trkpt>
<trkpt lat="44.88885700" lon="5.92657500"><ele></ele><time>2014-4-4T15:44:46Z</time></trkpt>
<trkpt lat="44.88885800" lon="5.92657500"><ele></ele><time>2014-4-4T15:44:49Z</time></trkpt>
<trkpt lat="44.88888300" lon="5.92658800"><ele></ele><time>2014-4-4T15:44:52Z</time></trkpt>
<trkpt lat="44.88889200" lon="5.92659300"><ele></ele><time>2014-4-4T15:44:55Z</time></trkpt>
<trkpt lat="44.88888700" lon="5.92659500"><ele></ele><time>2014-4-4T15:44:58Z</time></trkpt>
<trkpt lat="44.88888700" lon="5.92659400"><ele></ele><time>2014-4-4T15:45:1Z</time></trkpt>
<trkpt lat="44.88873100" lon="5.92648400"><ele></ele><time>2014-4-4T15:45:4Z</time></trkpt>
<trkpt lat="44.88865600" lon="5.92635100"><ele></ele><time>2014-4-4T15:45:7Z</time></trkpt>
<trkpt lat="44.88861000" lon="5.92625800"><ele></ele><time>2014-4-4T15:45:10Z</time></trkpt>
<trkpt lat="44.88858300" lon="5.92621400"><ele></ele><time>2014-4-4T15:45:13Z</time></trkpt>
<trkpt lat="44.88849200" lon="5.92604700"><ele></ele><time>2014-4-4T15:45:16Z</time></trkpt>
<trkpt lat="44.88836500" lon="5.92594100"><ele></ele><time>2014-4-4T15:45:19Z</time></trkpt>
<trkpt lat="44.88823200" lon="5.92585500"><ele></ele><time>2014-4-4T15:45:22Z</time></trkpt>
<trkpt lat="44.88814600" lon="5.92576600"><ele></ele><time>2014-4-4T15:45:25Z</time></trkpt>
<trkpt lat="44.88803300" lon="5.92568600"><ele></ele><time>2014-4-4T15:45:28Z</time></trkpt>
<trkpt lat="44.88792600" lon="5.92561800"><ele></ele><time>2014-4-4T15:45:31Z</time></trkpt>
<trkpt lat="44.88780000" lon="5.92549000"><ele></ele><time>2014-4-4T15:45:34Z</time></trkpt>
<trkpt lat="44.88771900" lon="5.92537300"><ele></ele><time>2014-4-4T15:45:37Z</time></trkpt>
<trkpt lat="44.88761100" lon="5.92522800"><ele></ele><time>2014-4-4T15:45:40Z</time></trkpt>
<trkpt lat="44.88751700" lon="5.92510600"><ele></ele><time>2014-4-4T15:45:43Z</time></trkpt>
<trkpt lat="44.88741100" lon="5.92497300"><ele></ele><time>2014-4-4T15:45:46Z</time></trkpt>
<trkpt lat="44.88731700" lon="5.92485500"><ele></ele><time>2014-4-4T15:45:49Z</time></trkpt>
<trkpt lat="44.88722000" lon="5.92476700"><ele></ele><time>2014-4-4T15:45:52Z</time></trkpt>
<trkpt lat="44.88711200" lon="5.92464800"><ele></ele><time>2014-4-4T15:45:55Z</time></trkpt>
<trkpt lat="44.88701000" lon="5.92453000"><ele></ele><time>2014-4-4T15:45:58Z</time></trkpt>
<trkpt lat="44.88698900" lon="5.92449200"><ele></ele><time>2014-4-4T15:46:1Z</time></trkpt>
<trkpt lat="44.88690400" lon="5.92443100"><ele></ele><time>2014-4-4T15:46:4Z</time></trkpt>
<trkpt lat="44.88677200" lon="5.92435500"><ele></ele><time>2014-4-4T15:46:7Z</time></trkpt>
<trkpt lat="44.88671700" lon="5.92441600"><ele></ele><time>2014-4-4T15:46:10Z</time></trkpt>
<trkpt lat="44.88673800" lon="5.92463700"><ele></ele><time>2014-4-4T15:46:13Z</time></trkpt>
<trkpt lat="44.88677400" lon="5.92484100"><ele></ele><time>2014-4-4T15:46:16Z</time></trkpt>
<trkpt lat="44.88679000" lon="5.92500100"><ele></ele><time>2014-4-4T15:46:19Z</time></trkpt>
<trkpt lat="44.88678500" lon="5.92520000"><ele></ele><time>2014-4-4T15:46:22Z</time></trkpt>
<trkpt lat="44.88672900" lon="5.92537000"><ele></ele><time>2014-4-4T15:46:25Z</time></trkpt>
<trkpt lat="44.88666700" lon="5.92547100"><ele></ele><time>2014-4-4T15:46:28Z</time></trkpt>
<trkpt lat="44.88660200" lon="5.92558300"><ele></ele><time>2014-4-4T15:46:31Z</time></trkpt>
<trkpt lat="44.88652600" lon="5.92568500"><ele></ele><time>2014-4-4T15:46:34Z</time></trkpt>
<trkpt lat="44.88644700" lon="5.92581300"><ele></ele><time>2014-4-4T15:46:37Z</time></trkpt>
<trkpt lat="44.88634600" lon="5.92594700"><ele></ele><time>2014-4-4T15:46:40Z</time></trkpt>
<trkpt lat="44.88628800" lon="5.92603100"><ele></ele><time>2014-4-4T15:46:43Z</time></trkpt>
<trkpt lat="44.88622800" lon="5.92613500"><ele></ele><time>2014-4-4T15:46:46Z</time></trkpt>
<trkpt lat="44.88620500" lon="5.92618700"><ele></ele><time>2014-4-4T15:46:49Z</time></trkpt>
<trkpt lat="44.88610500" lon="5.92632800"><ele></ele><time>2014-4-4T15:46:52Z</time></trkpt>
<trkpt lat="44.88605000" lon="5.92645200"><ele></ele><time>2014-4-4T15:46:55Z</time></trkpt>
<trkpt lat="44.88603700" lon="5.92651300"><ele></ele><time>2014-4-4T15:46:58Z</time></trkpt>
<trkpt lat="44.88602800" lon="5.92657500"><ele></ele><time>2014-4-4T15:47:1Z</time></trkpt>
<trkpt lat="44.88609000" lon="5.92670300"><ele></ele><time>2014-4-4T15:47:4Z</time></trkpt>
<trkpt lat="44.88615800" lon="5.92679600"><ele></ele><time>2014-4-4T15:47:7Z</time></trkpt>
<trkpt lat="44.88623700" lon="5.92689500"><ele></ele><time>2014-4-4T15:47:10Z</time></trkpt>
<trkpt lat="44.88629900" lon="5.92697700"><ele></ele><time>2014-4-4T15:47:13Z</time></trkpt>
<trkpt lat="44.88636400" lon="5.92707900"><ele></ele><time>2014-4-4T15:47:16Z</time></trkpt>
<trkpt lat="44.88642700" lon="5.92721800"><ele></ele><time>2014-4-4T15:47:19Z</time></trkpt>
<trkpt lat="44.88646100" lon="5.92728100"><ele></ele><time>2014-4-4T15:47:22Z</time></trkpt>
<trkpt lat="44.88649000" lon="5.92740500"><ele></ele><time>2014-4-4T15:47:25Z</time></trkpt>
<trkpt lat="44.88649600" lon="5.92742300"><ele></ele><time>2014-4-4T15:47:28Z</time></trkpt>
<trkpt lat="44.88653900" lon="5.92752700"><ele></ele><time>2014-4-4T15:47:31Z</time></trkpt>
<trkpt lat="44.88655400" lon="5.92756500"><ele></ele><time>2014-4-4T15:47:34Z</time></trkpt>
<trkpt lat="44.88662900" lon="5.92766000"><ele></ele><time>2014-4-4T15:47:37Z</time></trkpt>
<trkpt lat="44.88669000" lon="5.92771600"><ele></ele><time>2014-4-4T15:47:40Z</time></trkpt>
<trkpt lat="44.88673100" lon="5.92777500"><ele></ele><time>2014-4-4T15:47:43Z</time></trkpt>
<trkpt lat="44.88673800" lon="5.92787000"><ele></ele><time>2014-4-4T15:47:46Z</time></trkpt>
<trkpt lat="44.88662800" lon="5.92791600"><ele></ele><time>2014-4-4T15:47:49Z</time></trkpt>
<trkpt lat="44.88649300" lon="5.92780100"><ele></ele><time>2014-4-4T15:47:52Z</time></trkpt>
<trkpt lat="44.88637300" lon="5.92765800"><ele></ele><time>2014-4-4T15:47:55Z</time></trkpt>
<trkpt lat="44.88628800" lon="5.92753300"><ele></ele><time>2014-4-4T15:47:58Z</time></trkpt>
<trkpt lat="44.88622400" lon="5.92745400"><ele></ele><time>2014-4-4T15:48:1Z</time></trkpt>
<trkpt lat="44.88614700" lon="5.92738100"><ele></ele><time>2014-4-4T15:48:4Z</time></trkpt>
<trkpt lat="44.88607600" lon="5.92725200"><ele></ele><time>2014-4-4T15:48:7Z</time></trkpt>
<trkpt lat="44.88607000" lon="5.92723200"><ele></ele><time>2014-4-4T15:48:10Z</time></trkpt>
<trkpt lat="44.88604000" lon="5.92719000"><ele></ele><time>2014-4-4T15:48:13Z</time></trkpt>
<trkpt lat="44.88595200" lon="5.92709000"><ele></ele><time>2014-4-4T15:48:16Z</time></trkpt>
<trkpt lat="44.88588700" lon="5.92693900"><ele></ele><time>2014-4-4T15:48:19Z</time></trkpt>
<trkpt lat="44.88587200" lon="5.92690700"><ele></ele><time>2014-4-4T15:48:22Z</time></trkpt>
<trkpt lat="44.88585400" lon="5.92688100"><ele></ele><time>2014-4-4T15:48:25Z</time></trkpt>
<trkpt lat="44.88581400" lon="5.92678100"><ele></ele><time>2014-4-4T15:48:28Z</time></trkpt>
<trkpt lat="44.88578200" lon="5.92671400"><ele></ele><time>2014-4-4T15:48:31Z</time></trkpt>
<trkpt lat="44.88573500" lon="5.92666600"><ele></ele><time>2014-4-4T15:48:34Z</time></trkpt>
<trkpt lat="44.88569900" lon="5.92662400"><ele></ele><time>2014-4-4T15:48:37Z</time></trkpt>
<trkpt lat="44.88565200" lon="5.92654600"><ele></ele><time>2014-4-4T15:48:40Z</time></trkpt>
<trkpt lat="44.88562300" lon="5.92648900"><ele></ele><time>2014-4-4T15:48:43Z</time></trkpt>
<trkpt lat="44.88554100" lon="5.92640800"><ele></ele><time>2014-4-4T15:48:46Z</time></trkpt>
<trkpt lat="44.88546300" lon="5.92632500"><ele></ele><time>2014-4-4T15:48:49Z</time></trkpt>
<trkpt lat="44.88543500" lon="5.92628400"><ele></ele><time>2014-4-4T15:48:52Z</time></trkpt>
<trkpt lat="44.88533800" lon="5.92613900"><ele></ele><time>2014-4-4T15:48:55Z</time></trkpt>
<trkpt lat="44.88528800" lon="5.92606100"><ele></ele><time>2014-4-4T15:48:58Z</time></trkpt>
<trkpt lat="44.88527200" lon="5.92599300"><ele></ele><time>2014-4-4T15:49:1Z</time></trkpt>
<trkpt lat="44.88516200" lon="5.92595200"><ele></ele><time>2014-4-4T15:49:4Z</time></trkpt>
<trkpt lat="44.88506700" lon="5.92594400"><ele></ele><time>2014-4-4T15:49:7Z</time></trkpt>
<trkpt lat="44.88500700" lon="5.92592800"><ele></ele><time>2014-4-4T15:49:10Z</time></trkpt>
<trkpt lat="44.88492100" lon="5.92592000"><ele></ele><time>2014-4-4T15:49:13Z</time></trkpt>
<trkpt lat="44.88481500" lon="5.92582900"><ele></ele><time>2014-4-4T15:49:16Z</time></trkpt>
<trkpt lat="44.88470400" lon="5.92573200"><ele></ele><time>2014-4-4T15:49:19Z</time></trkpt>
<trkpt lat="44.88466000" lon="5.92565000"><ele></ele><time>2014-4-4T15:49:22Z</time></trkpt>
<trkpt lat="44.88455800" lon="5.92555900"><ele></ele><time>2014-4-4T15:49:25Z</time></trkpt>
<trkpt lat="44.88448000" lon="5.92546900"><ele></ele><time>2014-4-4T15:49:28Z</time></trkpt>
<trkpt lat="44.88441200" lon="5.92551500"><ele></ele><time>2014-4-4T15:49:31Z</time></trkpt>
<trkpt lat="44.88438700" lon="5.92566800"><ele></ele><time>2014-4-4T15:49:34Z</time></trkpt>
<trkpt lat="44.88441000" lon="5.92574400"><ele></ele><time>2014-4-4T15:49:37Z</time></trkpt>
<trkpt lat="44.88443900" lon="5.92587300"><ele></ele><time>2014-4-4T15:49:40Z</time></trkpt>
<trkpt lat="44.88444400" lon="5.92589500"><ele></ele><time>2014-4-4T15:49:43Z</time></trkpt>
<trkpt lat="44.88444300" lon="5.92593500"><ele></ele><time>2014-4-4T15:49:46Z</time></trkpt>
<trkpt lat="44.88452100" lon="5.92609300"><ele></ele><time>2014-4-4T15:49:49Z</time></trkpt>
<trkpt lat="44.88459500" lon="5.92615600"><ele></ele><time>2014-4-4T15:49:52Z</time></trkpt>
<trkpt lat="44.88465000" lon="5.92620400"><ele></ele><time>2014-4-4T15:49:55Z</time></trkpt>
<trkpt lat="44.88474600" lon="5.92623800"><ele></ele><time>2014-4-4T15:49:58Z</time></trkpt>
<trkpt lat="44.88486600" lon="5.92628300"><ele></ele><time>2014-4-4T15:50:1Z</time></trkpt>
<trkpt lat="44.88496800" lon="5.92633500"><ele></ele><time>2014-4-4T15:50:4Z</time></trkpt>
<trkpt lat="44.88504200" lon="5.92647300"><ele></ele><time>2014-4-4T15:50:7Z</time></trkpt>
<trkpt lat="44.88506100" lon="5.92654000"><ele></ele><time>2014-4-4T15:50:10Z</time></trkpt>
<trkpt lat="44.88514700" lon="5.92672500"><ele></ele><time>2014-4-4T15:50:13Z</time></trkpt>
<trkpt lat="44.88518600" lon="5.92686100"><ele></ele><time>2014-4-4T15:50:16Z</time></trkpt>
<trkpt lat="44.88519300" lon="5.92687900"><ele></ele><time>2014-4-4T15:50:19Z</time></trkpt>
<trkpt lat="44.88522400" lon="5.92704100"><ele></ele><time>2014-4-4T15:50:22Z</time></trkpt>
<trkpt lat="44.88527300" lon="5.92717000"><ele></ele><time>2014-4-4T15:50:25Z</time></trkpt>
<trkpt lat="44.88531400" lon="5.92731300"><ele></ele><time>2014-4-4T15:50:28Z</time></trkpt>
<trkpt lat="44.88532300" lon="5.92732700"><ele></ele><time>2014-4-4T15:50:31Z</time></trkpt>
<trkpt lat="44.88536100" lon="5.92748600"><ele></ele><time>2014-4-4T15:50:34Z</time></trkpt>
<trkpt lat="44.88540900" lon="5.92762600"><ele></ele><time>2014-4-4T15:50:37Z</time></trkpt>
<trkpt lat="44.88541500" lon="5.92776000"><ele></ele><time>2014-4-4T15:50:40Z</time></trkpt>
<trkpt lat="44.88546700" lon="5.92794300"><ele></ele><time>2014-4-4T15:50:43Z</time></trkpt>
<trkpt lat="44.88547500" lon="5.92798200"><ele></ele><time>2014-4-4T15:50:46Z</time></trkpt>
<trkpt lat="44.88548000" lon="5.92805800"><ele></ele><time>2014-4-4T15:50:49Z</time></trkpt>
<trkpt lat="44.88552200" lon="5.92815700"><ele></ele><time>2014-4-4T15:50:52Z</time></trkpt>
<trkpt lat="44.88551500" lon="5.92824900"><ele></ele><time>2014-4-4T15:50:55Z</time></trkpt>
<trkpt lat="44.88556500" lon="5.92842600"><ele></ele><time>2014-4-4T15:50:58Z</time></trkpt>
<trkpt lat="44.88558600" lon="5.92855000"><ele></ele><time>2014-4-4T15:51:1Z</time></trkpt>
<trkpt lat="44.88560300" lon="5.92869500"><ele></ele><time>2014-4-4T15:51:4Z</time></trkpt>
<trkpt lat="44.88563600" lon="5.92884600"><ele></ele><time>2014-4-4T15:51:7Z</time></trkpt>
<trkpt lat="44.88564600" lon="5.92890500"><ele></ele><time>2014-4-4T15:51:10Z</time></trkpt>
<trkpt lat="44.88568400" lon="5.92907500"><ele></ele><time>2014-4-4T15:51:13Z</time></trkpt>
<trkpt lat="44.88571400" lon="5.92918400"><ele></ele><time>2014-4-4T15:51:16Z</time></trkpt>
<trkpt lat="44.88576000" lon="5.92930600"><ele></ele><time>2014-4-4T15:51:19Z</time></trkpt>
<trkpt lat="44.88577800" lon="5.92942400"><ele></ele><time>2014-4-4T15:51:22Z</time></trkpt>
<trkpt lat="44.88580600" lon="5.92946600"><ele></ele><time>2014-4-4T15:51:25Z</time></trkpt>
<trkpt lat="44.88585500" lon="5.92962700"><ele></ele><time>2014-4-4T15:51:28Z</time></trkpt>
<trkpt lat="44.88591900" lon="5.92981600"><ele></ele><time>2014-4-4T15:51:31Z</time></trkpt>
<trkpt lat="44.88596500" lon="5.92999400"><ele></ele><time>2014-4-4T15:51:34Z</time></trkpt>
<trkpt lat="44.88599800" lon="5.93015100"><ele></ele><time>2014-4-4T15:51:37Z</time></trkpt>
<trkpt lat="44.88600700" lon="5.93029600"><ele></ele><time>2014-4-4T15:51:40Z</time></trkpt>
<trkpt lat="44.88599000" lon="5.93047100"><ele></ele><time>2014-4-4T15:51:43Z</time></trkpt>
<trkpt lat="44.88599300" lon="5.93062500"><ele></ele><time>2014-4-4T15:51:46Z</time></trkpt>
<trkpt lat="44.88598200" lon="5.93080500"><ele></ele><time>2014-4-4T15:51:49Z</time></trkpt>
<trkpt lat="44.88594900" lon="5.93093000"><ele></ele><time>2014-4-4T15:51:52Z</time></trkpt>
<trkpt lat="44.88596300" lon="5.93107300"><ele></ele><time>2014-4-4T15:51:55Z</time></trkpt>
<trkpt lat="44.88595100" lon="5.93114000"><ele></ele><time>2014-4-4T15:51:58Z</time></trkpt>
<trkpt lat="44.88593500" lon="5.93123600"><ele></ele><time>2014-4-4T15:52:1Z</time></trkpt>
<trkpt lat="44.88594600" lon="5.93132000"><ele></ele><time>2014-4-4T15:52:4Z</time></trkpt>
<trkpt lat="44.88595500" lon="5.93140100"><ele></ele><time>2014-4-4T15:52:7Z</time></trkpt>
<trkpt lat="44.88599100" lon="5.93154100"><ele></ele><time>2014-4-4T15:52:10Z</time></trkpt>
<trkpt lat="44.88607200" lon="5.93156000"><ele></ele><time>2014-4-4T15:52:13Z</time></trkpt>
<trkpt lat="44.88609500" lon="5.93153600"><ele></ele><time>2014-4-4T15:52:16Z</time></trkpt>
<trkpt lat="44.88608900" lon="5.93166100"><ele></ele><time>2014-4-4T15:52:19Z</time></trkpt>
<trkpt lat="44.88608600" lon="5.93165100"><ele></ele><time>2014-4-4T15:52:22Z</time></trkpt>
<trkpt lat="44.88617700" lon="5.93142400"><ele></ele><time>2014-4-4T15:52:25Z</time></trkpt>
<trkpt lat="44.88619100" lon="5.93142100"><ele></ele><time>2014-4-4T15:52:28Z</time></trkpt>
<trkpt lat="44.88628000" lon="5.93139100"><ele></ele><time>2014-4-4T15:52:31Z</time></trkpt>
<trkpt lat="44.88636900" lon="5.93137000"><ele></ele><time>2014-4-4T15:52:34Z</time></trkpt>
<trkpt lat="44.88645100" lon="5.93134900"><ele></ele><time>2014-4-4T15:52:37Z</time></trkpt>
<trkpt lat="44.88656900" lon="5.93135200"><ele></ele><time>2014-4-4T15:52:40Z</time></trkpt>
<trkpt lat="44.88667900" lon="5.93130300"><ele></ele><time>2014-4-4T15:52:43Z</time></trkpt>
<trkpt lat="44.88679600" lon="5.93122200"><ele></ele><time>2014-4-4T15:52:46Z</time></trkpt>
<trkpt lat="44.88692400" lon="5.93112600"><ele></ele><time>2014-4-4T15:52:49Z</time></trkpt>
<trkpt lat="44.88704300" lon="5.93106400"><ele></ele><time>2014-4-4T15:52:52Z</time></trkpt>
<trkpt lat="44.88715800" lon="5.93103800"><ele></ele><time>2014-4-4T15:52:55Z</time></trkpt>
<trkpt lat="44.88723100" lon="5.93103600"><ele></ele><time>2014-4-4T15:52:58Z</time></trkpt>
<trkpt lat="44.88730300" lon="5.93105600"><ele></ele><time>2014-4-4T15:53:1Z</time></trkpt>
<trkpt lat="44.88743400" lon="5.93114800"><ele></ele><time>2014-4-4T15:53:4Z</time></trkpt>
<trkpt lat="44.88752800" lon="5.93124000"><ele></ele><time>2014-4-4T15:53:7Z</time></trkpt>
<trkpt lat="44.88761700" lon="5.93129600"><ele></ele><time>2014-4-4T15:53:10Z</time></trkpt>
<trkpt lat="44.88769800" lon="5.93130000"><ele></ele><time>2014-4-4T15:53:13Z</time></trkpt>
<trkpt lat="44.88780000" lon="5.93125500"><ele></ele><time>2014-4-4T15:53:16Z</time></trkpt>
<trkpt lat="44.88790800" lon="5.93115200"><ele></ele><time>2014-4-4T15:53:19Z</time></trkpt>
<trkpt lat="44.88799400" lon="5.93107500"><ele></ele><time>2014-4-4T15:53:22Z</time></trkpt>
<trkpt lat="44.88809000" lon="5.93101600"><ele></ele><time>2014-4-4T15:53:25Z</time></trkpt>
<trkpt lat="44.88820900" lon="5.93097200"><ele></ele><time>2014-4-4T15:53:28Z</time></trkpt>
<trkpt lat="44.88832800" lon="5.93091100"><ele></ele><time>2014-4-4T15:53:31Z</time></trkpt>
<trkpt lat="44.88843600" lon="5.93081400"><ele></ele><time>2014-4-4T15:53:34Z</time></trkpt>
<trkpt lat="44.88847800" lon="5.93077100"><ele></ele><time>2014-4-4T15:53:37Z</time></trkpt>
<trkpt lat="44.88858900" lon="5.93067900"><ele></ele><time>2014-4-4T15:53:40Z</time></trkpt>
<trkpt lat="44.88869600" lon="5.93058500"><ele></ele><time>2014-4-4T15:53:43Z</time></trkpt>
<trkpt lat="44.88880400" lon="5.93056900"><ele></ele><time>2014-4-4T15:53:46Z</time></trkpt>
<trkpt lat="44.88888500" lon="5.93058100"><ele></ele><time>2014-4-4T15:53:49Z</time></trkpt>
<trkpt lat="44.88893100" lon="5.93063500"><ele></ele><time>2014-4-4T15:53:52Z</time></trkpt>
<trkpt lat="44.88897200" lon="5.93077000"><ele></ele><time>2014-4-4T15:53:55Z</time></trkpt>
<trkpt lat="44.88907000" lon="5.93095400"><ele></ele><time>2014-4-4T15:53:58Z</time></trkpt>
<trkpt lat="44.88915000" lon="5.93105800"><ele></ele><time>2014-4-4T15:54:1Z</time></trkpt>
<trkpt lat="44.88924500" lon="5.93118900"><ele></ele><time>2014-4-4T15:54:4Z</time></trkpt>
<trkpt lat="44.88933900" lon="5.93130000"><ele></ele><time>2014-4-4T15:54:7Z</time></trkpt>
<trkpt lat="44.88940200" lon="5.93139900"><ele></ele><time>2014-4-4T15:54:10Z</time></trkpt>
<trkpt lat="44.88948900" lon="5.93151700"><ele></ele><time>2014-4-4T15:54:13Z</time></trkpt>
<trkpt lat="44.88955400" lon="5.93165800"><ele></ele><time>2014-4-4T15:54:16Z</time></trkpt>
<trkpt lat="44.88962000" lon="5.93176200"><ele></ele><time>2014-4-4T15:54:19Z</time></trkpt>
<trkpt lat="44.88963300" lon="5.93190500"><ele></ele><time>2014-4-4T15:54:22Z</time></trkpt>
<trkpt lat="44.88965800" lon="5.93207600"><ele></ele><time>2014-4-4T15:54:25Z</time></trkpt>
<trkpt lat="44.88966800" lon="5.93220900"><ele></ele><time>2014-4-4T15:54:28Z</time></trkpt>
<trkpt lat="44.88965100" lon="5.93234500"><ele></ele><time>2014-4-4T15:54:31Z</time></trkpt>
<trkpt lat="44.88962200" lon="5.93247100"><ele></ele><time>2014-4-4T15:54:34Z</time></trkpt>
<trkpt lat="44.88960900" lon="5.93258100"><ele></ele><time>2014-4-4T15:54:37Z</time></trkpt>
<trkpt lat="44.88960200" lon="5.93259800"><ele></ele><time>2014-4-4T15:54:40Z</time></trkpt>
<trkpt lat="44.88954500" lon="5.93275800"><ele></ele><time>2014-4-4T15:54:43Z</time></trkpt>
<trkpt lat="44.88952200" lon="5.93291500"><ele></ele><time>2014-4-4T15:54:46Z</time></trkpt>
<trkpt lat="44.88953800" lon="5.93303800"><ele></ele><time>2014-4-4T15:54:49Z</time></trkpt>
<trkpt lat="44.88960000" lon="5.93311000"><ele></ele><time>2014-4-4T15:54:52Z</time></trkpt>
<trkpt lat="44.88959600" lon="5.93311700"><ele></ele><time>2014-4-4T15:54:55Z</time></trkpt>
<trkpt lat="44.88957900" lon="5.93317400"><ele></ele><time>2014-4-4T15:54:58Z</time></trkpt>
<trkpt lat="44.88957900" lon="5.93309700"><ele></ele><time>2014-4-4T15:55:1Z</time></trkpt>
<trkpt lat="44.88958200" lon="5.93310100"><ele></ele><time>2014-4-4T15:55:4Z</time></trkpt>
<trkpt lat="44.88958300" lon="5.93310200"><ele></ele><time>2014-4-4T15:55:7Z</time></trkpt>
<trkpt lat="44.88959900" lon="5.93314300"><ele></ele><time>2014-4-4T15:55:10Z</time></trkpt>
<trkpt lat="44.88963000" lon="5.93326500"><ele></ele><time>2014-4-4T15:55:13Z</time></trkpt>
<trkpt lat="44.88963900" lon="5.93332900"><ele></ele><time>2014-4-4T15:55:16Z</time></trkpt>
<trkpt lat="44.88968000" lon="5.93350100"><ele></ele><time>2014-4-4T15:55:19Z</time></trkpt>
<trkpt lat="44.88970400" lon="5.93363300"><ele></ele><time>2014-4-4T15:55:22Z</time></trkpt>
<trkpt lat="44.88972000" lon="5.93378300"><ele></ele><time>2014-4-4T15:55:25Z</time></trkpt>
<trkpt lat="44.88968700" lon="5.93396500"><ele></ele><time>2014-4-4T15:55:28Z</time></trkpt>
<trkpt lat="44.88961800" lon="5.93411200"><ele></ele><time>2014-4-4T15:55:31Z</time></trkpt>
<trkpt lat="44.88954600" lon="5.93423900"><ele></ele><time>2014-4-4T15:55:34Z</time></trkpt>
<trkpt lat="44.88949000" lon="5.93439800"><ele></ele><time>2014-4-4T15:55:37Z</time></trkpt>
<trkpt lat="44.88946400" lon="5.93455800"><ele></ele><time>2014-4-4T15:55:40Z</time></trkpt>
<trkpt lat="44.88952400" lon="5.93470600"><ele></ele><time>2014-4-4T15:55:43Z</time></trkpt>
<trkpt lat="44.88958200" lon="5.93477800"><ele></ele><time>2014-4-4T15:55:46Z</time></trkpt>
<trkpt lat="44.88964100" lon="5.93482600"><ele></ele><time>2014-4-4T15:55:49Z</time></trkpt>
<trkpt lat="44.88972400" lon="5.93491500"><ele></ele><time>2014-4-4T15:55:52Z</time></trkpt>
<trkpt lat="44.88979200" lon="5.93508800"><ele></ele><time>2014-4-4T15:55:55Z</time></trkpt>
<trkpt lat="44.88979600" lon="5.93512700"><ele></ele><time>2014-4-4T15:55:58Z</time></trkpt>
<trkpt lat="44.88975700" lon="5.93526800"><ele></ele><time>2014-4-4T15:56:1Z</time></trkpt>
<trkpt lat="44.88972200" lon="5.93543100"><ele></ele><time>2014-4-4T15:56:4Z</time></trkpt>
<trkpt lat="44.88968200" lon="5.93553500"><ele></ele><time>2014-4-4T15:56:7Z</time></trkpt>
<trkpt lat="44.88965400" lon="5.93569500"><ele></ele><time>2014-4-4T15:56:10Z</time></trkpt>
<trkpt lat="44.88969000" lon="5.93586000"><ele></ele><time>2014-4-4T15:56:13Z</time></trkpt>
<trkpt lat="44.88973200" lon="5.93599600"><ele></ele><time>2014-4-4T15:56:16Z</time></trkpt>
<trkpt lat="44.88979200" lon="5.93610300"><ele></ele><time>2014-4-4T15:56:19Z</time></trkpt>
<trkpt lat="44.88984900" lon="5.93622800"><ele></ele><time>2014-4-4T15:56:22Z</time></trkpt>
<trkpt lat="44.88986400" lon="5.93641900"><ele></ele><time>2014-4-4T15:56:25Z</time></trkpt>
<trkpt lat="44.88980000" lon="5.93653400"><ele></ele><time>2014-4-4T15:56:28Z</time></trkpt>
<trkpt lat="44.88969600" lon="5.93660500"><ele></ele><time>2014-4-4T15:56:31Z</time></trkpt>
<trkpt lat="44.88960800" lon="5.93665800"><ele></ele><time>2014-4-4T15:56:34Z</time></trkpt>
<trkpt lat="44.88949500" lon="5.93671200"><ele></ele><time>2014-4-4T15:56:37Z</time></trkpt>
<trkpt lat="44.88938600" lon="5.93681600"><ele></ele><time>2014-4-4T15:56:40Z</time></trkpt>
<trkpt lat="44.88935200" lon="5.93686300"><ele></ele><time>2014-4-4T15:56:43Z</time></trkpt>
<trkpt lat="44.88926700" lon="5.93699200"><ele></ele><time>2014-4-4T15:56:46Z</time></trkpt>
<trkpt lat="44.88916100" lon="5.93713800"><ele></ele><time>2014-4-4T15:56:49Z</time></trkpt>
<trkpt lat="44.88908400" lon="5.93724400"><ele></ele><time>2014-4-4T15:56:52Z</time></trkpt>
<trkpt lat="44.88899100" lon="5.93738200"><ele></ele><time>2014-4-4T15:56:55Z</time></trkpt>
<trkpt lat="44.88890000" lon="5.93750200"><ele></ele><time>2014-4-4T15:56:58Z</time></trkpt>
<trkpt lat="44.88882400" lon="5.93761000"><ele></ele><time>2014-4-4T15:57:1Z</time></trkpt>
<trkpt lat="44.88873800" lon="5.93781800"><ele></ele><time>2014-4-4T15:57:4Z</time></trkpt>
<trkpt lat="44.88868900" lon="5.93805100"><ele></ele><time>2014-4-4T15:57:7Z</time></trkpt>
<trkpt lat="44.88866100" lon="5.93820100"><ele></ele><time>2014-4-4T15:57:10Z</time></trkpt>
<trkpt lat="44.88863700" lon="5.93837300"><ele></ele><time>2014-4-4T15:57:13Z</time></trkpt>
<trkpt lat="44.88862300" lon="5.93858800"><ele></ele><time>2014-4-4T15:57:16Z</time></trkpt>
<trkpt lat="44.88861700" lon="5.93875000"><ele></ele><time>2014-4-4T15:57:19Z</time></trkpt>
<trkpt lat="44.88863900" lon="5.93894800"><ele></ele><time>2014-4-4T15:57:22Z</time></trkpt>
<trkpt lat="44.88863700" lon="5.93913200"><ele></ele><time>2014-4-4T15:57:25Z</time></trkpt>
<trkpt lat="44.88864400" lon="5.93933600"><ele></ele><time>2014-4-4T15:57:28Z</time></trkpt>
<trkpt lat="44.88866400" lon="5.93953500"><ele></ele><time>2014-4-4T15:57:31Z</time></trkpt>
<trkpt lat="44.88872400" lon="5.93976600"><ele></ele><time>2014-4-4T15:57:34Z</time></trkpt>
<trkpt lat="44.88882600" lon="5.93993200"><ele></ele><time>2014-4-4T15:57:37Z</time></trkpt>
<trkpt lat="44.88892000" lon="5.94006800"><ele></ele><time>2014-4-4T15:57:40Z</time></trkpt>
<trkpt lat="44.88902300" lon="5.94023100"><ele></ele><time>2014-4-4T15:57:43Z</time></trkpt>
<trkpt lat="44.88909500" lon="5.94036500"><ele></ele><time>2014-4-4T15:57:46Z</time></trkpt>
<trkpt lat="44.88911200" lon="5.94052200"><ele></ele><time>2014-4-4T15:57:49Z</time></trkpt>
<trkpt lat="44.88910500" lon="5.94065300"><ele></ele><time>2014-4-4T15:57:52Z</time></trkpt>
<trkpt lat="44.88910100" lon="5.94071000"><ele></ele><time>2014-4-4T15:57:55Z</time></trkpt>
<trkpt lat="44.88904800" lon="5.94079400"><ele></ele><time>2014-4-4T15:57:58Z</time></trkpt>
<trkpt lat="44.88900100" lon="5.94084100"><ele></ele><time>2014-4-4T15:58:1Z</time></trkpt>
<trkpt lat="44.88890100" lon="5.94096800"><ele></ele><time>2014-4-4T15:58:4Z</time></trkpt>
<trkpt lat="44.88885800" lon="5.94114100"><ele></ele><time>2014-4-4T15:58:7Z</time></trkpt>
<trkpt lat="44.88889100" lon="5.94127300"><ele></ele><time>2014-4-4T15:58:10Z</time></trkpt>
<trkpt lat="44.88894900" lon="5.94143100"><ele></ele><time>2014-4-4T15:58:13Z</time></trkpt>
<trkpt lat="44.88899200" lon="5.94153400"><ele></ele><time>2014-4-4T15:58:16Z</time></trkpt>
<trkpt lat="44.88904300" lon="5.94162100"><ele></ele><time>2014-4-4T15:58:19Z</time></trkpt>
<trkpt lat="44.88913600" lon="5.94167600"><ele></ele><time>2014-4-4T15:58:22Z</time></trkpt>
<trkpt lat="44.88925200" lon="5.94173700"><ele></ele><time>2014-4-4T15:58:25Z</time></trkpt>
<trkpt lat="44.88935400" lon="5.94176900"><ele></ele><time>2014-4-4T15:58:28Z</time></trkpt>
<trkpt lat="44.88946800" lon="5.94179300"><ele></ele><time>2014-4-4T15:58:31Z</time></trkpt>
<trkpt lat="44.88958700" lon="5.94183300"><ele></ele><time>2014-4-4T15:58:34Z</time></trkpt>
<trkpt lat="44.88970000" lon="5.94187100"><ele></ele><time>2014-4-4T15:58:37Z</time></trkpt>
<trkpt lat="44.88971300" lon="5.94186900"><ele></ele><time>2014-4-4T15:58:40Z</time></trkpt>
<trkpt lat="44.88984000" lon="5.94190900"><ele></ele><time>2014-4-4T15:58:43Z</time></trkpt>
<trkpt lat="44.88997000" lon="5.94193900"><ele></ele><time>2014-4-4T15:58:46Z</time></trkpt>
<trkpt lat="44.89011000" lon="5.94193900"><ele></ele><time>2014-4-4T15:58:49Z</time></trkpt>
<trkpt lat="44.89024300" lon="5.94187200"><ele></ele><time>2014-4-4T15:58:52Z</time></trkpt>
<trkpt lat="44.89031300" lon="5.94183100"><ele></ele><time>2014-4-4T15:58:55Z</time></trkpt>
<trkpt lat="44.89039100" lon="5.94191500"><ele></ele><time>2014-4-4T15:58:58Z</time></trkpt>
<trkpt lat="44.89038300" lon="5.94196100"><ele></ele><time>2014-4-4T15:59:1Z</time></trkpt>
<trkpt lat="44.89021900" lon="5.94180800"><ele></ele><time>2014-4-4T15:59:4Z</time></trkpt>
<trkpt lat="44.89022200" lon="5.94181800"><ele></ele><time>2014-4-4T15:59:7Z</time></trkpt>
<trkpt lat="44.89019800" lon="5.94202500"><ele></ele><time>2014-4-4T15:59:10Z</time></trkpt>
<trkpt lat="44.89010800" lon="5.94209000"><ele></ele><time>2014-4-4T15:59:13Z</time></trkpt>
<trkpt lat="44.89001300" lon="5.94209100"><ele></ele><time>2014-4-4T15:59:16Z</time></trkpt>
<trkpt lat="44.88986500" lon="5.94207800"><ele></ele><time>2014-4-4T15:59:19Z</time></trkpt>
<trkpt lat="44.88970900" lon="5.94205500"><ele></ele><time>2014-4-4T15:59:22Z</time></trkpt>
<trkpt lat="44.88956000" lon="5.94203000"><ele></ele><time>2014-4-4T15:59:25Z</time></trkpt>
<trkpt lat="44.88946200" lon="5.94201700"><ele></ele><time>2014-4-4T15:59:28Z</time></trkpt>
<trkpt lat="44.88941100" lon="5.94203900"><ele></ele><time>2014-4-4T15:59:31Z</time></trkpt>
<trkpt lat="44.88928600" lon="5.94207000"><ele></ele><time>2014-4-4T15:59:34Z</time></trkpt>
<trkpt lat="44.88919100" lon="5.94208700"><ele></ele><time>2014-4-4T15:59:37Z</time></trkpt>
<trkpt lat="44.88906800" lon="5.94206700"><ele></ele><time>2014-4-4T15:59:40Z</time></trkpt>
<trkpt lat="44.88895900" lon="5.94203900"><ele></ele><time>2014-4-4T15:59:43Z</time></trkpt>
<trkpt lat="44.88888100" lon="5.94204000"><ele></ele><time>2014-4-4T15:59:46Z</time></trkpt>
<trkpt lat="44.88874200" lon="5.94202900"><ele></ele><time>2014-4-4T15:59:49Z</time></trkpt>
<trkpt lat="44.88862100" lon="5.94201200"><ele></ele><time>2014-4-4T15:59:52Z</time></trkpt>
<trkpt lat="44.88851600" lon="5.94197800"><ele></ele><time>2014-4-4T15:59:55Z</time></trkpt>
<trkpt lat="44.88841400" lon="5.94196400"><ele></ele><time>2014-4-4T15:59:58Z</time></trkpt>
<trkpt lat="44.88834000" lon="5.94195400"><ele></ele><time>2014-4-4T16:0:1Z</time></trkpt>
<trkpt lat="44.88825300" lon="5.94187500"><ele></ele><time>2014-4-4T16:0:4Z</time></trkpt>
<trkpt lat="44.88820500" lon="5.94180400"><ele></ele><time>2014-4-4T16:0:7Z</time></trkpt>
<trkpt lat="44.88816500" lon="5.94171000"><ele></ele><time>2014-4-4T16:0:10Z</time></trkpt>
<trkpt lat="44.88811900" lon="5.94153600"><ele></ele><time>2014-4-4T16:0:13Z</time></trkpt>
<trkpt lat="44.88806200" lon="5.94137000"><ele></ele><time>2014-4-4T16:0:16Z</time></trkpt>
<trkpt lat="44.88800500" lon="5.94127100"><ele></ele><time>2014-4-4T16:0:19Z</time></trkpt>
<trkpt lat="44.88791700" lon="5.94117500"><ele></ele><time>2014-4-4T16:0:22Z</time></trkpt>
<trkpt lat="44.88781100" lon="5.94110400"><ele></ele><time>2014-4-4T16:0:25Z</time></trkpt>
<trkpt lat="44.88774100" lon="5.94103900"><ele></ele><time>2014-4-4T16:0:28Z</time></trkpt>
<trkpt lat="44.88765000" lon="5.94097800"><ele></ele><time>2014-4-4T16:0:31Z</time></trkpt>
<trkpt lat="44.88758500" lon="5.94096500"><ele></ele><time>2014-4-4T16:0:34Z</time></trkpt>
<trkpt lat="44.88754000" lon="5.94092900"><ele></ele><time>2014-4-4T16:0:37Z</time></trkpt>
<trkpt lat="44.88745700" lon="5.94085800"><ele></ele><time>2014-4-4T16:0:40Z</time></trkpt>
<trkpt lat="44.88735800" lon="5.94080700"><ele></ele><time>2014-4-4T16:0:43Z</time></trkpt>
<trkpt lat="44.88725100" lon="5.94070700"><ele></ele><time>2014-4-4T16:0:46Z</time></trkpt>
<trkpt lat="44.88716400" lon="5.94058200"><ele></ele><time>2014-4-4T16:0:49Z</time></trkpt>
<trkpt lat="44.88708400" lon="5.94050400"><ele></ele><time>2014-4-4T16:0:52Z</time></trkpt>
<trkpt lat="44.88698500" lon="5.94038700"><ele></ele><time>2014-4-4T16:0:55Z</time></trkpt>
<trkpt lat="44.88687700" lon="5.94030000"><ele></ele><time>2014-4-4T16:0:58Z</time></trkpt>
<trkpt lat="44.88678400" lon="5.94017800"><ele></ele><time>2014-4-4T16:1:1Z</time></trkpt>
<trkpt lat="44.88674000" lon="5.94010300"><ele></ele><time>2014-4-4T16:1:4Z</time></trkpt>
<trkpt lat="44.88669400" lon="5.93997500"><ele></ele><time>2014-4-4T16:1:7Z</time></trkpt>
<trkpt lat="44.88664700" lon="5.93980300"><ele></ele><time>2014-4-4T16:1:10Z</time></trkpt>
<trkpt lat="44.88664500" lon="5.93976800"><ele></ele><time>2014-4-4T16:1:13Z</time></trkpt>
<trkpt lat="44.88663100" lon="5.93964200"><ele></ele><time>2014-4-4T16:1:16Z</time></trkpt>
<trkpt lat="44.88662900" lon="5.93962500"><ele></ele><time>2014-4-4T16:1:19Z</time></trkpt>
<trkpt lat="44.88660200" lon="5.93948300"><ele></ele><time>2014-4-4T16:1:22Z</time></trkpt>
<trkpt lat="44.88658000" lon="5.93936800"><ele></ele><time>2014-4-4T16:1:25Z</time></trkpt>
<trkpt lat="44.88654700" lon="5.93919300"><ele></ele><time>2014-4-4T16:1:28Z</time></trkpt>
<trkpt lat="44.88653800" lon="5.93905600"><ele></ele><time>2014-4-4T16:1:31Z</time></trkpt>
<trkpt lat="44.88652400" lon="5.93891100"><ele></ele><time>2014-4-4T16:1:34Z</time></trkpt>
<trkpt lat="44.88659200" lon="5.93870500"><ele></ele><time>2014-4-4T16:1:37Z</time></trkpt>
<trkpt lat="44.88653800" lon="5.93856000"><ele></ele><time>2014-4-4T16:1:40Z</time></trkpt>
<trkpt lat="44.88643900" lon="5.93840700"><ele></ele><time>2014-4-4T16:1:43Z</time></trkpt>
<trkpt lat="44.88634200" lon="5.93827900"><ele></ele><time>2014-4-4T16:1:46Z</time></trkpt>
<trkpt lat="44.88624100" lon="5.93815900"><ele></ele><time>2014-4-4T16:1:49Z</time></trkpt>
<trkpt lat="44.88613500" lon="5.93804000"><ele></ele><time>2014-4-4T16:1:52Z</time></trkpt>
<trkpt lat="44.88604200" lon="5.93792800"><ele></ele><time>2014-4-4T16:1:55Z</time></trkpt>
<trkpt lat="44.88597200" lon="5.93784200"><ele></ele><time>2014-4-4T16:1:58Z</time></trkpt>
<trkpt lat="44.88589600" lon="5.93775900"><ele></ele><time>2014-4-4T16:2:1Z</time></trkpt>
<trkpt lat="44.88587200" lon="5.93771400"><ele></ele><time>2014-4-4T16:2:4Z</time></trkpt>
<trkpt lat="44.88582300" lon="5.93765300"><ele></ele><time>2014-4-4T16:2:7Z</time></trkpt>
<trkpt lat="44.88574300" lon="5.93756000"><ele></ele><time>2014-4-4T16:2:10Z</time></trkpt>
<trkpt lat="44.88569900" lon="5.93751000"><ele></ele><time>2014-4-4T16:2:13Z</time></trkpt>
<trkpt lat="44.88566700" lon="5.93744000"><ele></ele><time>2014-4-4T16:2:16Z</time></trkpt>
<trkpt lat="44.88563500" lon="5.93740500"><ele></ele><time>2014-4-4T16:2:19Z</time></trkpt>
<trkpt lat="44.88554300" lon="5.93729500"><ele></ele><time>2014-4-4T16:2:22Z</time></trkpt>
<trkpt lat="44.88547700" lon="5.93720500"><ele></ele><time>2014-4-4T16:2:25Z</time></trkpt>
<trkpt lat="44.88541500" lon="5.93712900"><ele></ele><time>2014-4-4T16:2:28Z</time></trkpt>
<trkpt lat="44.88535400" lon="5.93705500"><ele></ele><time>2014-4-4T16:2:31Z</time></trkpt>
<trkpt lat="44.88528300" lon="5.93695900"><ele></ele><time>2014-4-4T16:2:34Z</time></trkpt>
<trkpt lat="44.88522700" lon="5.93688400"><ele></ele><time>2014-4-4T16:2:37Z</time></trkpt>
<trkpt lat="44.88515700" lon="5.93679800"><ele></ele><time>2014-4-4T16:2:40Z</time></trkpt>
<trkpt lat="44.88506900" lon="5.93670200"><ele></ele><time>2014-4-4T16:2:43Z</time></trkpt>
<trkpt lat="44.88499000" lon="5.93663400"><ele></ele><time>2014-4-4T16:2:46Z</time></trkpt>
<trkpt lat="44.88492200" lon="5.93656300"><ele></ele><time>2014-4-4T16:2:49Z</time></trkpt>
<trkpt lat="44.88485400" lon="5.93652000"><ele></ele><time>2014-4-4T16:2:52Z</time></trkpt>
<trkpt lat="44.88483100" lon="5.93649700"><ele></ele><time>2014-4-4T16:2:55Z</time></trkpt>
<trkpt lat="44.88470500" lon="5.93642900"><ele></ele><time>2014-4-4T16:2:58Z</time></trkpt>
<trkpt lat="44.88462100" lon="5.93638200"><ele></ele><time>2014-4-4T16:3:1Z</time></trkpt>
<trkpt lat="44.88452200" lon="5.93632800"><ele></ele><time>2014-4-4T16:3:4Z</time></trkpt>
<trkpt lat="44.88451000" lon="5.93631900"><ele></ele><time>2014-4-4T16:3:7Z</time></trkpt>
<trkpt lat="44.88439200" lon="5.93630900"><ele></ele><time>2014-4-4T16:3:10Z</time></trkpt>
<trkpt lat="44.88429000" lon="5.93631400"><ele></ele><time>2014-4-4T16:3:13Z</time></trkpt>
<trkpt lat="44.88417200" lon="5.93627100"><ele></ele><time>2014-4-4T16:3:16Z</time></trkpt>
<trkpt lat="44.88409400" lon="5.93627500"><ele></ele><time>2014-4-4T16:3:19Z</time></trkpt>
<trkpt lat="44.88399000" lon="5.93626800"><ele></ele><time>2014-4-4T16:3:22Z</time></trkpt>
<trkpt lat="44.88390200" lon="5.93627700"><ele></ele><time>2014-4-4T16:3:25Z</time></trkpt>
<trkpt lat="44.88379400" lon="5.93632000"><ele></ele><time>2014-4-4T16:3:28Z</time></trkpt>
<trkpt lat="44.88368700" lon="5.93626500"><ele></ele><time>2014-4-4T16:3:31Z</time></trkpt>
<trkpt lat="44.88361800" lon="5.93626300"><ele></ele><time>2014-4-4T16:3:34Z</time></trkpt>
<trkpt lat="44.88350200" lon="5.93615400"><ele></ele><time>2014-4-4T16:3:37Z</time></trkpt>
<trkpt lat="44.88349200" lon="5.93614400"><ele></ele><time>2014-4-4T16:3:40Z</time></trkpt>
<trkpt lat="44.88339900" lon="5.93604000"><ele></ele><time>2014-4-4T16:3:43Z</time></trkpt>
<trkpt lat="44.88332300" lon="5.93591400"><ele></ele><time>2014-4-4T16:3:46Z</time></trkpt>
<trkpt lat="44.88320700" lon="5.93586900"><ele></ele><time>2014-4-4T16:3:49Z</time></trkpt>
<trkpt lat="44.88310000" lon="5.93584900"><ele></ele><time>2014-4-4T16:3:52Z</time></trkpt>
<trkpt lat="44.88297900" lon="5.93578800"><ele></ele><time>2014-4-4T16:3:55Z</time></trkpt>
<trkpt lat="44.88292700" lon="5.93574500"><ele></ele><time>2014-4-4T16:3:58Z</time></trkpt>
<trkpt lat="44.88283500" lon="5.93570800"><ele></ele><time>2014-4-4T16:4:1Z</time></trkpt>
<trkpt lat="44.88276100" lon="5.93566600"><ele></ele><time>2014-4-4T16:4:4Z</time></trkpt>
<trkpt lat="44.88273300" lon="5.93561500"><ele></ele><time>2014-4-4T16:4:7Z</time></trkpt>
<trkpt lat="44.88271300" lon="5.93556200"><ele></ele><time>2014-4-4T16:4:10Z</time></trkpt>
<trkpt lat="44.88271000" lon="5.93555200"><ele></ele><time>2014-4-4T16:4:13Z</time></trkpt>
<trkpt lat="44.88268200" lon="5.93544600"><ele></ele><time>2014-4-4T16:4:16Z</time></trkpt>
<trkpt lat="44.88263600" lon="5.93532100"><ele></ele><time>2014-4-4T16:4:19Z</time></trkpt>
<trkpt lat="44.88262700" lon="5.93526700"><ele></ele><time>2014-4-4T16:4:22Z</time></trkpt>
<trkpt lat="44.88261800" lon="5.93518700"><ele></ele><time>2014-4-4T16:4:25Z</time></trkpt>
<trkpt lat="44.88260600" lon="5.93508300"><ele></ele><time>2014-4-4T16:4:28Z</time></trkpt>
<trkpt lat="44.88258500" lon="5.93494000"><ele></ele><time>2014-4-4T16:4:31Z</time></trkpt>
<trkpt lat="44.88255300" lon="5.93480400"><ele></ele><time>2014-4-4T16:4:34Z</time></trkpt>
<trkpt lat="44.88254300" lon="5.93474300"><ele></ele><time>2014-4-4T16:4:37Z</time></trkpt>
<trkpt lat="44.88248700" lon="5.93459700"><ele></ele><time>2014-4-4T16:4:40Z</time></trkpt>
<trkpt lat="44.88244000" lon="5.93446700"><ele></ele><time>2014-4-4T16:4:43Z</time></trkpt>
<trkpt lat="44.88238900" lon="5.93432600"><ele></ele><time>2014-4-4T16:4:46Z</time></trkpt>
<trkpt lat="44.88235100" lon="5.93419100"><ele></ele><time>2014-4-4T16:4:49Z</time></trkpt>
<trkpt lat="44.88234500" lon="5.93403100"><ele></ele><time>2014-4-4T16:4:52Z</time></trkpt>
<trkpt lat="44.88231400" lon="5.93388600"><ele></ele><time>2014-4-4T16:4:55Z</time></trkpt>
<trkpt lat="44.88231300" lon="5.93371800"><ele></ele><time>2014-4-4T16:4:58Z</time></trkpt>
<trkpt lat="44.88229400" lon="5.93358000"><ele></ele><time>2014-4-4T16:5:1Z</time></trkpt>
<trkpt lat="44.88227900" lon="5.93349200"><ele></ele><time>2014-4-4T16:5:4Z</time></trkpt>
<trkpt lat="44.88227400" lon="5.93339000"><ele></ele><time>2014-4-4T16:5:7Z</time></trkpt>
<trkpt lat="44.88227100" lon="5.93336900"><ele></ele><time>2014-4-4T16:5:10Z</time></trkpt>
<trkpt lat="44.88224300" lon="5.93323300"><ele></ele><time>2014-4-4T16:5:13Z</time></trkpt>
<trkpt lat="44.88223400" lon="5.93316900"><ele></ele><time>2014-4-4T16:5:16Z</time></trkpt>
<trkpt lat="44.88223300" lon="5.93301800"><ele></ele><time>2014-4-4T16:5:19Z</time></trkpt>
<trkpt lat="44.88223700" lon="5.93287600"><ele></ele><time>2014-4-4T16:5:22Z</time></trkpt>
<trkpt lat="44.88222800" lon="5.93273800"><ele></ele><time>2014-4-4T16:5:25Z</time></trkpt>
<trkpt lat="44.88221600" lon="5.93263700"><ele></ele><time>2014-4-4T16:5:28Z</time></trkpt>
<trkpt lat="44.88217500" lon="5.93247300"><ele></ele><time>2014-4-4T16:5:31Z</time></trkpt>
<trkpt lat="44.88208900" lon="5.93232700"><ele></ele><time>2014-4-4T16:5:34Z</time></trkpt>
<trkpt lat="44.88201800" lon="5.93220900"><ele></ele><time>2014-4-4T16:5:37Z</time></trkpt>
<trkpt lat="44.88190400" lon="5.93216400"><ele></ele><time>2014-4-4T16:5:40Z</time></trkpt>
<trkpt lat="44.88179300" lon="5.93220600"><ele></ele><time>2014-4-4T16:5:43Z</time></trkpt>
<trkpt lat="44.88166400" lon="5.93231500"><ele></ele><time>2014-4-4T16:5:46Z</time></trkpt>
<trkpt lat="44.88158400" lon="5.93239900"><ele></ele><time>2014-4-4T16:5:49Z</time></trkpt>
<trkpt lat="44.88149000" lon="5.93248300"><ele></ele><time>2014-4-4T16:5:52Z</time></trkpt>
<trkpt lat="44.88140500" lon="5.93257800"><ele></ele><time>2014-4-4T16:5:55Z</time></trkpt>
<trkpt lat="44.88134600" lon="5.93260600"><ele></ele><time>2014-4-4T16:5:58Z</time></trkpt>
<trkpt lat="44.88128100" lon="5.93269400"><ele></ele><time>2014-4-4T16:6:1Z</time></trkpt>
<trkpt lat="44.88120700" lon="5.93280300"><ele></ele><time>2014-4-4T16:6:4Z</time></trkpt>
<trkpt lat="44.88112300" lon="5.93289100"><ele></ele><time>2014-4-4T16:6:7Z</time></trkpt>
<trkpt lat="44.88104200" lon="5.93297500"><ele></ele><time>2014-4-4T16:6:10Z</time></trkpt>
<trkpt lat="44.88097800" lon="5.93304500"><ele></ele><time>2014-4-4T16:6:13Z</time></trkpt>
<trkpt lat="44.88090200" lon="5.93314000"><ele></ele><time>2014-4-4T16:6:16Z</time></trkpt>
<trkpt lat="44.88080300" lon="5.93330200"><ele></ele><time>2014-4-4T16:6:19Z</time></trkpt>
<trkpt lat="44.88073500" lon="5.93337700"><ele></ele><time>2014-4-4T16:6:22Z</time></trkpt>
<trkpt lat="44.88059100" lon="5.93342800"><ele></ele><time>2014-4-4T16:6:25Z</time></trkpt>
<trkpt lat="44.88045300" lon="5.93348500"><ele></ele><time>2014-4-4T16:6:28Z</time></trkpt>
<trkpt lat="44.88034100" lon="5.93352900"><ele></ele><time>2014-4-4T16:6:31Z</time></trkpt>
<trkpt lat="44.88024700" lon="5.93350800"><ele></ele><time>2014-4-4T16:6:34Z</time></trkpt>
<trkpt lat="44.88013900" lon="5.93352500"><ele></ele><time>2014-4-4T16:6:37Z</time></trkpt>
<trkpt lat="44.88012600" lon="5.93352600"><ele></ele><time>2014-4-4T16:6:40Z</time></trkpt>
<trkpt lat="44.88008800" lon="5.93354600"><ele></ele><time>2014-4-4T16:6:43Z</time></trkpt>
<trkpt lat="44.88003500" lon="5.93357200"><ele></ele><time>2014-4-4T16:6:46Z</time></trkpt>
<trkpt lat="44.87997500" lon="5.93353300"><ele></ele><time>2014-4-4T16:6:49Z</time></trkpt>
<trkpt lat="44.87986800" lon="5.93347600"><ele></ele><time>2014-4-4T16:6:52Z</time></trkpt>
<trkpt lat="44.87978800" lon="5.93339200"><ele></ele><time>2014-4-4T16:6:55Z</time></trkpt>
<trkpt lat="44.87967600" lon="5.93331100"><ele></ele><time>2014-4-4T16:6:58Z</time></trkpt>
<trkpt lat="44.87960700" lon="5.93319700"><ele></ele><time>2014-4-4T16:7:1Z</time></trkpt>
<trkpt lat="44.87960100" lon="5.93308900"><ele></ele><time>2014-4-4T16:7:4Z</time></trkpt>
<trkpt lat="44.87959900" lon="5.93306600"><ele></ele><time>2014-4-4T16:7:7Z</time></trkpt>
<trkpt lat="44.87961300" lon="5.93303200"><ele></ele><time>2014-4-4T16:7:10Z</time></trkpt>
<trkpt lat="44.87961300" lon="5.93294000"><ele></ele><time>2014-4-4T16:7:13Z</time></trkpt>
<trkpt lat="44.87954800" lon="5.93279100"><ele></ele><time>2014-4-4T16:7:16Z</time></trkpt>
<trkpt lat="44.87950800" lon="5.93274000"><ele></ele><time>2014-4-4T16:7:19Z</time></trkpt>
<trkpt lat="44.87941500" lon="5.93260400"><ele></ele><time>2014-4-4T16:7:22Z</time></trkpt>
<trkpt lat="44.87933800" lon="5.93252400"><ele></ele><time>2014-4-4T16:7:25Z</time></trkpt>
<trkpt lat="44.87922300" lon="5.93243200"><ele></ele><time>2014-4-4T16:7:28Z</time></trkpt>
<trkpt lat="44.87908800" lon="5.93236900"><ele></ele><time>2014-4-4T16:7:31Z</time></trkpt>
<trkpt lat="44.87897500" lon="5.93229900"><ele></ele><time>2014-4-4T16:7:34Z</time></trkpt>
<trkpt lat="44.87885400" lon="5.93224200"><ele></ele><time>2014-4-4T16:7:37Z</time></trkpt>
<trkpt lat="44.87873100" lon="5.93216500"><ele></ele><time>2014-4-4T16:7:40Z</time></trkpt>
<trkpt lat="44.87871900" lon="5.93211900"><ele></ele><time>2014-4-4T16:7:43Z</time></trkpt>
<trkpt lat="44.87869200" lon="5.93206600"><ele></ele><time>2014-4-4T16:7:46Z</time></trkpt>
<trkpt lat="44.87862300" lon="5.93192400"><ele></ele><time>2014-4-4T16:7:49Z</time></trkpt>
<trkpt lat="44.87858700" lon="5.93180300"><ele></ele><time>2014-4-4T16:7:52Z</time></trkpt>
<trkpt lat="44.87854100" lon="5.93167400"><ele></ele><time>2014-4-4T16:7:55Z</time></trkpt>
<trkpt lat="44.87852300" lon="5.93156500"><ele></ele><time>2014-4-4T16:7:58Z</time></trkpt>
<trkpt lat="44.87845200" lon="5.93141900"><ele></ele><time>2014-4-4T16:8:1Z</time></trkpt>
<trkpt lat="44.87844200" lon="5.93127100"><ele></ele><time>2014-4-4T16:8:4Z</time></trkpt>
<trkpt lat="44.87849600" lon="5.93111900"><ele></ele><time>2014-4-4T16:8:7Z</time></trkpt>
<trkpt lat="44.87851600" lon="5.93095700"><ele></ele><time>2014-4-4T16:8:10Z</time></trkpt>
<trkpt lat="44.87847800" lon="5.93077200"><ele></ele><time>2014-4-4T16:8:13Z</time></trkpt>
<trkpt lat="44.87845700" lon="5.93071000"><ele></ele><time>2014-4-4T16:8:16Z</time></trkpt>
<trkpt lat="44.87839800" lon="5.93067000"><ele></ele><time>2014-4-4T16:8:19Z</time></trkpt>
<trkpt lat="44.87839500" lon="5.93067000"><ele></ele><time>2014-4-4T16:8:22Z</time></trkpt>
<trkpt lat="44.87837400" lon="5.93065800"><ele></ele><time>2014-4-4T16:8:25Z</time></trkpt>
<trkpt lat="44.87830600" lon="5.93061400"><ele></ele><time>2014-4-4T16:8:28Z</time></trkpt>
<trkpt lat="44.87829700" lon="5.93058700"><ele></ele><time>2014-4-4T16:8:31Z</time></trkpt>
<trkpt lat="44.87827500" lon="5.93053100"><ele></ele><time>2014-4-4T16:8:34Z</time></trkpt>
<trkpt lat="44.87827300" lon="5.93052700"><ele></ele><time>2014-4-4T16:8:37Z</time></trkpt>
<trkpt lat="44.87820700" lon="5.93039000"><ele></ele><time>2014-4-4T16:8:40Z</time></trkpt>
<trkpt lat="44.87811000" lon="5.93028200"><ele></ele><time>2014-4-4T16:8:43Z</time></trkpt>
<trkpt lat="44.87807900" lon="5.93018700"><ele></ele><time>2014-4-4T16:8:46Z</time></trkpt>
<trkpt lat="44.87805100" lon="5.93009600"><ele></ele><time>2014-4-4T16:8:49Z</time></trkpt>
<trkpt lat="44.87803900" lon="5.92989900"><ele></ele><time>2014-4-4T16:8:52Z</time></trkpt>
<trkpt lat="44.87803800" lon="5.92975100"><ele></ele><time>2014-4-4T16:8:55Z</time></trkpt>
<trkpt lat="44.87805100" lon="5.92957300"><ele></ele><time>2014-4-4T16:8:58Z</time></trkpt>
<trkpt lat="44.87805300" lon="5.92938700"><ele></ele><time>2014-4-4T16:9:1Z</time></trkpt>
<trkpt lat="44.87805200" lon="5.92921600"><ele></ele><time>2014-4-4T16:9:4Z</time></trkpt>
<trkpt lat="44.87803800" lon="5.92906900"><ele></ele><time>2014-4-4T16:9:7Z</time></trkpt>
<trkpt lat="44.87801700" lon="5.92889500"><ele></ele><time>2014-4-4T16:9:10Z</time></trkpt>
<trkpt lat="44.87799800" lon="5.92877800"><ele></ele><time>2014-4-4T16:9:13Z</time></trkpt>
<trkpt lat="44.87796700" lon="5.92865200"><ele></ele><time>2014-4-4T16:9:16Z</time></trkpt>
<trkpt lat="44.87796500" lon="5.92861100"><ele></ele><time>2014-4-4T16:9:19Z</time></trkpt>
<trkpt lat="44.87791700" lon="5.92844900"><ele></ele><time>2014-4-4T16:9:22Z</time></trkpt>
<trkpt lat="44.87791100" lon="5.92835600"><ele></ele><time>2014-4-4T16:9:25Z</time></trkpt>
<trkpt lat="44.87791600" lon="5.92820600"><ele></ele><time>2014-4-4T16:9:28Z</time></trkpt>
<trkpt lat="44.87791600" lon="5.92816800"><ele></ele><time>2014-4-4T16:9:31Z</time></trkpt>
<trkpt lat="44.87789900" lon="5.92802200"><ele></ele><time>2014-4-4T16:9:34Z</time></trkpt>
<trkpt lat="44.87788200" lon="5.92785200"><ele></ele><time>2014-4-4T16:9:37Z</time></trkpt>
<trkpt lat="44.87785100" lon="5.92771500"><ele></ele><time>2014-4-4T16:9:40Z</time></trkpt>
<trkpt lat="44.87780000" lon="5.92756800"><ele></ele><time>2014-4-4T16:9:43Z</time></trkpt>
<trkpt lat="44.87774600" lon="5.92739500"><ele></ele><time>2014-4-4T16:9:46Z</time></trkpt>
<trkpt lat="44.87768600" lon="5.92727200"><ele></ele><time>2014-4-4T16:9:49Z</time></trkpt>
<trkpt lat="44.87762600" lon="5.92716400"><ele></ele><time>2014-4-4T16:9:52Z</time></trkpt>
<trkpt lat="44.87760500" lon="5.92714600"><ele></ele><time>2014-4-4T16:9:55Z</time></trkpt>
<trkpt lat="44.87757700" lon="5.92709000"><ele></ele><time>2014-4-4T16:9:58Z</time></trkpt>
<trkpt lat="44.87748200" lon="5.92700900"><ele></ele><time>2014-4-4T16:10:1Z</time></trkpt>
<trkpt lat="44.87740000" lon="5.92702000"><ele></ele><time>2014-4-4T16:10:4Z</time></trkpt>
<trkpt lat="44.87730300" lon="5.92700600"><ele></ele><time>2014-4-4T16:10:7Z</time></trkpt>
<trkpt lat="44.87724500" lon="5.92698100"><ele></ele><time>2014-4-4T16:10:10Z</time></trkpt>
<trkpt lat="44.87714700" lon="5.92689800"><ele></ele><time>2014-4-4T16:10:13Z</time></trkpt>
<trkpt lat="44.87706000" lon="5.92686000"><ele></ele><time>2014-4-4T16:10:16Z</time></trkpt>
<trkpt lat="44.87703500" lon="5.92685200"><ele></ele><time>2014-4-4T16:10:19Z</time></trkpt>
<trkpt lat="44.87697800" lon="5.92692100"><ele></ele><time>2014-4-4T16:10:22Z</time></trkpt>
<trkpt lat="44.87695200" lon="5.92694800"><ele></ele><time>2014-4-4T16:10:25Z</time></trkpt>
<trkpt lat="44.87681400" lon="5.92711700"><ele></ele><time>2014-4-4T16:10:28Z</time></trkpt>
<trkpt lat="44.87674100" lon="5.92724900"><ele></ele><time>2014-4-4T16:10:31Z</time></trkpt>
<trkpt lat="44.87668200" lon="5.92730900"><ele></ele><time>2014-4-4T16:10:34Z</time></trkpt>
<trkpt lat="44.87657900" lon="5.92745100"><ele></ele><time>2014-4-4T16:10:37Z</time></trkpt>
<trkpt lat="44.87643900" lon="5.92758500"><ele></ele><time>2014-4-4T16:10:40Z</time></trkpt>
<trkpt lat="44.87631200" lon="5.92769200"><ele></ele><time>2014-4-4T16:10:43Z</time></trkpt>
<trkpt lat="44.87616900" lon="5.92775100"><ele></ele><time>2014-4-4T16:10:46Z</time></trkpt>
<trkpt lat="44.87611600" lon="5.92779000"><ele></ele><time>2014-4-4T16:10:49Z</time></trkpt>
<trkpt lat="44.87608100" lon="5.92785500"><ele></ele><time>2014-4-4T16:10:52Z</time></trkpt>
<trkpt lat="44.87606000" lon="5.92791000"><ele></ele><time>2014-4-4T16:10:55Z</time></trkpt>
<trkpt lat="44.87602000" lon="5.92791100"><ele></ele><time>2014-4-4T16:10:58Z</time></trkpt>
<trkpt lat="44.87607100" lon="5.92793400"><ele></ele><time>2014-4-4T16:11:1Z</time></trkpt>
<trkpt lat="44.87607100" lon="5.92793400"><ele></ele><time>2014-4-4T16:11:4Z</time></trkpt>
<trkpt lat="44.87608900" lon="5.92774500"><ele></ele><time>2014-4-4T16:11:7Z</time></trkpt>
<trkpt lat="44.87608800" lon="5.92766000"><ele></ele><time>2014-4-4T16:11:10Z</time></trkpt>
<trkpt lat="44.87620300" lon="5.92727900"><ele></ele><time>2014-4-4T16:11:13Z</time></trkpt>
<trkpt lat="44.87636100" lon="5.92684300"><ele></ele><time>2014-4-4T16:11:16Z</time></trkpt>
<trkpt lat="44.87634800" lon="5.92642700"><ele></ele><time>2014-4-4T16:11:19Z</time></trkpt>
<trkpt lat="44.87633600" lon="5.92619300"><ele></ele><time>2014-4-4T16:11:22Z</time></trkpt>
<trkpt lat="44.87632200" lon="5.92602900"><ele></ele><time>2014-4-4T16:11:25Z</time></trkpt>
<trkpt lat="44.87620900" lon="5.92567000"><ele></ele><time>2014-4-4T16:11:28Z</time></trkpt>
<trkpt lat="44.87618600" lon="5.92558800"><ele></ele><time>2014-4-4T16:11:31Z</time></trkpt>
<trkpt lat="44.87599700" lon="5.92528400"><ele></ele><time>2014-4-4T16:11:34Z</time></trkpt>
<trkpt lat="44.87593500" lon="5.92505100"><ele></ele><time>2014-4-4T16:11:37Z</time></trkpt>
<trkpt lat="44.87609400" lon="5.92501600"><ele></ele><time>2014-4-4T16:11:40Z</time></trkpt>
<trkpt lat="44.87629000" lon="5.92510500"><ele></ele><time>2014-4-4T16:11:43Z</time></trkpt>
<trkpt lat="44.87637600" lon="5.92502800"><ele></ele><time>2014-4-4T16:11:46Z</time></trkpt>
<trkpt lat="44.87637900" lon="5.92497000"><ele></ele><time>2014-4-4T16:11:49Z</time></trkpt>
<trkpt lat="44.87645300" lon="5.92454100"><ele></ele><time>2014-4-4T16:11:52Z</time></trkpt>
<trkpt lat="44.87648600" lon="5.92443500"><ele></ele><time>2014-4-4T16:11:55Z</time></trkpt>
<trkpt lat="44.87653500" lon="5.92381000"><ele></ele><time>2014-4-4T16:11:58Z</time></trkpt>
<trkpt lat="44.87645400" lon="5.92336900"><ele></ele><time>2014-4-4T16:12:1Z</time></trkpt>
<trkpt lat="44.87633600" lon="5.92316800"><ele></ele><time>2014-4-4T16:12:4Z</time></trkpt>
<trkpt lat="44.87623400" lon="5.92308700"><ele></ele><time>2014-4-4T16:12:7Z</time></trkpt>
<trkpt lat="44.87578700" lon="5.92285100"><ele></ele><time>2014-4-4T16:12:10Z</time></trkpt>
<trkpt lat="44.87559800" lon="5.92267500"><ele></ele><time>2014-4-4T16:12:13Z</time></trkpt>
<trkpt lat="44.87541800" lon="5.92237500"><ele></ele><time>2014-4-4T16:12:16Z</time></trkpt>
<trkpt lat="44.87519800" lon="5.92175400"><ele></ele><time>2014-4-4T16:12:19Z</time></trkpt>
<trkpt lat="44.87501800" lon="5.92146400"><ele></ele><time>2014-4-4T16:12:22Z</time></trkpt>
<trkpt lat="44.87486300" lon="5.92122000"><ele></ele><time>2014-4-4T16:12:25Z</time></trkpt>
<trkpt lat="44.87467800" lon="5.92094100"><ele></ele><time>2014-4-4T16:12:28Z</time></trkpt>
<trkpt lat="44.87450400" lon="5.92070200"><ele></ele><time>2014-4-4T16:12:31Z</time></trkpt>
<trkpt lat="44.87433800" lon="5.92048100"><ele></ele><time>2014-4-4T16:12:34Z</time></trkpt>
<trkpt lat="44.87419300" lon="5.92034500"><ele></ele><time>2014-4-4T16:12:37Z</time></trkpt>
<trkpt lat="44.87402600" lon="5.92021100"><ele></ele><time>2014-4-4T16:12:40Z</time></trkpt>
<trkpt lat="44.87386300" lon="5.92002800"><ele></ele><time>2014-4-4T16:12:43Z</time></trkpt>
<trkpt lat="44.87370800" lon="5.91984700"><ele></ele><time>2014-4-4T16:12:46Z</time></trkpt>
<trkpt lat="44.87359700" lon="5.91962200"><ele></ele><time>2014-4-4T16:12:49Z</time></trkpt>
<trkpt lat="44.87358200" lon="5.91945000"><ele></ele><time>2014-4-4T16:12:52Z</time></trkpt>
<trkpt lat="44.87363800" lon="5.91913700"><ele></ele><time>2014-4-4T16:12:55Z</time></trkpt>
<trkpt lat="44.87360400" lon="5.91881100"><ele></ele><time>2014-4-4T16:12:58Z</time></trkpt>
<trkpt lat="44.87341000" lon="5.91826800"><ele></ele><time>2014-4-4T16:13:1Z</time></trkpt>
<trkpt lat="44.87335000" lon="5.91808700"><ele></ele><time>2014-4-4T16:13:4Z</time></trkpt>
<trkpt lat="44.87332400" lon="5.91799300"><ele></ele><time>2014-4-4T16:13:7Z</time></trkpt>
<trkpt lat="44.87331800" lon="5.91761600"><ele></ele><time>2014-4-4T16:13:10Z</time></trkpt>
<trkpt lat="44.87346100" lon="5.91740100"><ele></ele><time>2014-4-4T16:13:13Z</time></trkpt>
<trkpt lat="44.87353100" lon="5.91734900"><ele></ele><time>2014-4-4T16:13:16Z</time></trkpt>
<trkpt lat="44.87408200" lon="5.91699400"><ele></ele><time>2014-4-4T16:13:19Z</time></trkpt>
<trkpt lat="44.87427800" lon="5.91685000"><ele></ele><time>2014-4-4T16:13:22Z</time></trkpt>
<trkpt lat="44.87442500" lon="5.91664700"><ele></ele><time>2014-4-4T16:13:25Z</time></trkpt>
<trkpt lat="44.87443500" lon="5.91652800"><ele></ele><time>2014-4-4T16:13:28Z</time></trkpt>
<trkpt lat="44.87443100" lon="5.91651200"><ele></ele><time>2014-4-4T16:13:31Z</time></trkpt>
<trkpt lat="44.87438200" lon="5.91646900"><ele></ele><time>2014-4-4T16:13:34Z</time></trkpt>
<trkpt lat="44.87437600" lon="5.91646200"><ele></ele><time>2014-4-4T16:13:37Z</time></trkpt>
<trkpt lat="44.87438000" lon="5.91649900"><ele></ele><time>2014-4-4T16:13:40Z</time></trkpt>
<trkpt lat="44.87437900" lon="5.91649800"><ele></ele><time>2014-4-4T16:13:43Z</time></trkpt>
<trkpt lat="44.87424800" lon="5.91660500"><ele></ele><time>2014-4-4T16:13:46Z</time></trkpt>
<trkpt lat="44.87402400" lon="5.91666200"><ele></ele><time>2014-4-4T16:13:49Z</time></trkpt>
<trkpt lat="44.87383000" lon="5.91658500"><ele></ele><time>2014-4-4T16:13:52Z</time></trkpt>
<trkpt lat="44.87336900" lon="5.91639400"><ele></ele><time>2014-4-4T16:13:55Z</time></trkpt>
<trkpt lat="44.87272700" lon="5.91627100"><ele></ele><time>2014-4-4T16:13:58Z</time></trkpt>
<trkpt lat="44.87218500" lon="5.91621000"><ele></ele><time>2014-4-4T16:14:1Z</time></trkpt>
<trkpt lat="44.87209600" lon="5.91620400"><ele></ele><time>2014-4-4T16:14:4Z</time></trkpt>
<trkpt lat="44.87168500" lon="5.91628100"><ele></ele><time>2014-4-4T16:14:7Z</time></trkpt>
<trkpt lat="44.87133400" lon="5.91618600"><ele></ele><time>2014-4-4T16:14:10Z</time></trkpt>
<trkpt lat="44.87071900" lon="5.91571200"><ele></ele><time>2014-4-4T16:14:13Z</time></trkpt>
<trkpt lat="44.87009100" lon="5.91527400"><ele></ele><time>2014-4-4T16:14:16Z</time></trkpt>
<trkpt lat="44.86958800" lon="5.91490700"><ele></ele><time>2014-4-4T16:14:19Z</time></trkpt>
<trkpt lat="44.86904100" lon="5.91452600"><ele></ele><time>2014-4-4T16:14:22Z</time></trkpt>
<trkpt lat="44.86846200" lon="5.91400400"><ele></ele><time>2014-4-4T16:14:25Z</time></trkpt>
<trkpt lat="44.86839100" lon="5.91392800"><ele></ele><time>2014-4-4T16:14:28Z</time></trkpt>
<trkpt lat="44.86813300" lon="5.91360400"><ele></ele><time>2014-4-4T16:14:31Z</time></trkpt>
<trkpt lat="44.86797600" lon="5.91316900"><ele></ele><time>2014-4-4T16:14:34Z</time></trkpt>
<trkpt lat="44.86791400" lon="5.91282300"><ele></ele><time>2014-4-4T16:14:37Z</time></trkpt>
<trkpt lat="44.86797200" lon="5.91236100"><ele></ele><time>2014-4-4T16:14:40Z</time></trkpt>
<trkpt lat="44.86815200" lon="5.91212200"><ele></ele><time>2014-4-4T16:14:43Z</time></trkpt>
<trkpt lat="44.86831400" lon="5.91204900"><ele></ele><time>2014-4-4T16:14:46Z</time></trkpt>
<trkpt lat="44.86850200" lon="5.91200800"><ele></ele><time>2014-4-4T16:14:49Z</time></trkpt>
<trkpt lat="44.86902100" lon="5.91209100"><ele></ele><time>2014-4-4T16:14:52Z</time></trkpt>
<trkpt lat="44.86951800" lon="5.91230000"><ele></ele><time>2014-4-4T16:14:55Z</time></trkpt>
<trkpt lat="44.86960000" lon="5.91235300"><ele></ele><time>2014-4-4T16:14:58Z</time></trkpt>
<trkpt lat="44.86985800" lon="5.91238600"><ele></ele><time>2014-4-4T16:15:1Z</time></trkpt>
<trkpt lat="44.86990300" lon="5.91232800"><ele></ele><time>2014-4-4T16:15:4Z</time></trkpt>
<trkpt lat="44.87024700" lon="5.91185200"><ele></ele><time>2014-4-4T16:15:7Z</time></trkpt>
<trkpt lat="44.87038300" lon="5.91137700"><ele></ele><time>2014-4-4T16:15:10Z</time></trkpt>
<trkpt lat="44.87029000" lon="5.91107500"><ele></ele><time>2014-4-4T16:15:13Z</time></trkpt>
<trkpt lat="44.87024000" lon="5.91097700"><ele></ele><time>2014-4-4T16:15:16Z</time></trkpt>
<trkpt lat="44.86986600" lon="5.91054600"><ele></ele><time>2014-4-4T16:15:19Z</time></trkpt>
<trkpt lat="44.86957600" lon="5.91046800"><ele></ele><time>2014-4-4T16:15:22Z</time></trkpt>
<trkpt lat="44.86929700" lon="5.91038600"><ele></ele><time>2014-4-4T16:15:25Z</time></trkpt>
<trkpt lat="44.86912900" lon="5.91021400"><ele></ele><time>2014-4-4T16:15:28Z</time></trkpt>
<trkpt lat="44.86853300" lon="5.90945400"><ele></ele><time>2014-4-4T16:15:31Z</time></trkpt>
<trkpt lat="44.86811100" lon="5.90915200"><ele></ele><time>2014-4-4T16:15:34Z</time></trkpt>
<trkpt lat="44.86745500" lon="5.90882900"><ele></ele><time>2014-4-4T16:15:37Z</time></trkpt>
<trkpt lat="44.86714100" lon="5.90864200"><ele></ele><time>2014-4-4T16:15:40Z</time></trkpt>
<trkpt lat="44.86701700" lon="5.90857100"><ele></ele><time>2014-4-4T16:15:43Z</time></trkpt>
<trkpt lat="44.86686800" lon="5.90842000"><ele></ele><time>2014-4-4T16:15:46Z</time></trkpt>
<trkpt lat="44.86657400" lon="5.90825000"><ele></ele><time>2014-4-4T16:15:49Z</time></trkpt>
<trkpt lat="44.86639300" lon="5.90829700"><ele></ele><time>2014-4-4T16:15:52Z</time></trkpt>
<trkpt lat="44.86627400" lon="5.90848200"><ele></ele><time>2014-4-4T16:15:55Z</time></trkpt>
<trkpt lat="44.86621300" lon="5.90862200"><ele></ele><time>2014-4-4T16:15:58Z</time></trkpt>
<trkpt lat="44.86609500" lon="5.90918300"><ele></ele><time>2014-4-4T16:16:1Z</time></trkpt>
<trkpt lat="44.86607500" lon="5.90971200"><ele></ele><time>2014-4-4T16:16:4Z</time></trkpt>
<trkpt lat="44.86608500" lon="5.91034700"><ele></ele><time>2014-4-4T16:16:7Z</time></trkpt>
<trkpt lat="44.86603400" lon="5.91122700"><ele></ele><time>2014-4-4T16:16:10Z</time></trkpt>
<trkpt lat="44.86598200" lon="5.91180500"><ele></ele><time>2014-4-4T16:16:13Z</time></trkpt>
<trkpt lat="44.86589700" lon="5.91210900"><ele></ele><time>2014-4-4T16:16:16Z</time></trkpt>
<trkpt lat="44.86583600" lon="5.91251200"><ele></ele><time>2014-4-4T16:16:19Z</time></trkpt>
<trkpt lat="44.86588500" lon="5.91276700"><ele></ele><time>2014-4-4T16:16:22Z</time></trkpt>
<trkpt lat="44.86610900" lon="5.91342500"><ele></ele><time>2014-4-4T16:16:25Z</time></trkpt>
<trkpt lat="44.86620800" lon="5.91396500"><ele></ele><time>2014-4-4T16:16:28Z</time></trkpt>
<trkpt lat="44.86635100" lon="5.91447800"><ele></ele><time>2014-4-4T16:16:31Z</time></trkpt>
<trkpt lat="44.86664100" lon="5.91497500"><ele></ele><time>2014-4-4T16:16:34Z</time></trkpt>
<trkpt lat="44.86697600" lon="5.91540800"><ele></ele><time>2014-4-4T16:16:37Z</time></trkpt>
<trkpt lat="44.86730700" lon="5.91571500"><ele></ele><time>2014-4-4T16:16:40Z</time></trkpt>
<trkpt lat="44.86748000" lon="5.91581200"><ele></ele><time>2014-4-4T16:16:43Z</time></trkpt>
<trkpt lat="44.86766200" lon="5.91602600"><ele></ele><time>2014-4-4T16:16:46Z</time></trkpt>
<trkpt lat="44.86763800" lon="5.91615500"><ele></ele><time>2014-4-4T16:16:49Z</time></trkpt>
<trkpt lat="44.86751300" lon="5.91621100"><ele></ele><time>2014-4-4T16:16:52Z</time></trkpt>
<trkpt lat="44.86705500" lon="5.91621500"><ele></ele><time>2014-4-4T16:16:55Z</time></trkpt>
<trkpt lat="44.86659900" lon="5.91615400"><ele></ele><time>2014-4-4T16:16:58Z</time></trkpt>
<trkpt lat="44.86631400" lon="5.91605800"><ele></ele><time>2014-4-4T16:17:1Z</time></trkpt>
<trkpt lat="44.86609600" lon="5.91591800"><ele></ele><time>2014-4-4T16:17:4Z</time></trkpt>
<trkpt lat="44.86556500" lon="5.91535200"><ele></ele><time>2014-4-4T16:17:7Z</time></trkpt>
<trkpt lat="44.86524200" lon="5.91497500"><ele></ele><time>2014-4-4T16:17:10Z</time></trkpt>
<trkpt lat="44.86496300" lon="5.91452700"><ele></ele><time>2014-4-4T16:17:13Z</time></trkpt>
<trkpt lat="44.86472000" lon="5.91403800"><ele></ele><time>2014-4-4T16:17:16Z</time></trkpt>
<trkpt lat="44.86465000" lon="5.91391600"><ele></ele><time>2014-4-4T16:17:19Z</time></trkpt>
<trkpt lat="44.86441600" lon="5.91347000"><ele></ele><time>2014-4-4T16:17:22Z</time></trkpt>
<trkpt lat="44.86426100" lon="5.91291200"><ele></ele><time>2014-4-4T16:17:25Z</time></trkpt>
<trkpt lat="44.86416900" lon="5.91259100"><ele></ele><time>2014-4-4T16:17:28Z</time></trkpt>
<trkpt lat="44.86396400" lon="5.91218600"><ele></ele><time>2014-4-4T16:17:31Z</time></trkpt>
<trkpt lat="44.86380400" lon="5.91174300"><ele></ele><time>2014-4-4T16:17:34Z</time></trkpt>
<trkpt lat="44.86364700" lon="5.91129400"><ele></ele><time>2014-4-4T16:17:37Z</time></trkpt>
<trkpt lat="44.86350500" lon="5.91091300"><ele></ele><time>2014-4-4T16:17:40Z</time></trkpt>
<trkpt lat="44.86336300" lon="5.91054600"><ele></ele><time>2014-4-4T16:17:43Z</time></trkpt>
<trkpt lat="44.86312600" lon="5.90998300"><ele></ele><time>2014-4-4T16:17:46Z</time></trkpt>
<trkpt lat="44.86288900" lon="5.90955200"><ele></ele><time>2014-4-4T16:17:49Z</time></trkpt>
<trkpt lat="44.86285400" lon="5.90948900"><ele></ele><time>2014-4-4T16:17:52Z</time></trkpt>
<trkpt lat="44.86270800" lon="5.90912300"><ele></ele><time>2014-4-4T16:17:55Z</time></trkpt>
<trkpt lat="44.86255800" lon="5.90858100"><ele></ele><time>2014-4-4T16:17:58Z</time></trkpt>
<trkpt lat="44.86244300" lon="5.90824800"><ele></ele><time>2014-4-4T16:18:1Z</time></trkpt>
<trkpt lat="44.86228900" lon="5.90776800"><ele></ele><time>2014-4-4T16:18:4Z</time></trkpt>
<trkpt lat="44.86213400" lon="5.90732700"><ele></ele><time>2014-4-4T16:18:7Z</time></trkpt>
<trkpt lat="44.86207100" lon="5.90685100"><ele></ele><time>2014-4-4T16:18:10Z</time></trkpt>
<trkpt lat="44.86192500" lon="5.90644400"><ele></ele><time>2014-4-4T16:18:13Z</time></trkpt>
<trkpt lat="44.86182100" lon="5.90631100"><ele></ele><time>2014-4-4T16:18:16Z</time></trkpt>
<trkpt lat="44.86155600" lon="5.90587000"><ele></ele><time>2014-4-4T16:18:19Z</time></trkpt>
<trkpt lat="44.86145400" lon="5.90571700"><ele></ele><time>2014-4-4T16:18:22Z</time></trkpt>
<trkpt lat="44.86128000" lon="5.90551200"><ele></ele><time>2014-4-4T16:18:25Z</time></trkpt>
<trkpt lat="44.86111500" lon="5.90500400"><ele></ele><time>2014-4-4T16:18:28Z</time></trkpt>
<trkpt lat="44.86109300" lon="5.90485400"><ele></ele><time>2014-4-4T16:18:31Z</time></trkpt>
<trkpt lat="44.86111200" lon="5.90469500"><ele></ele><time>2014-4-4T16:18:34Z</time></trkpt>
<trkpt lat="44.86111900" lon="5.90451200"><ele></ele><time>2014-4-4T16:18:37Z</time></trkpt>
<trkpt lat="44.86107300" lon="5.90411300"><ele></ele><time>2014-4-4T16:18:40Z</time></trkpt>
<trkpt lat="44.86085400" lon="5.90344800"><ele></ele><time>2014-4-4T16:18:43Z</time></trkpt>
<trkpt lat="44.86082100" lon="5.90336200"><ele></ele><time>2014-4-4T16:18:46Z</time></trkpt>
<trkpt lat="44.86061900" lon="5.90313100"><ele></ele><time>2014-4-4T16:18:49Z</time></trkpt>
<trkpt lat="44.86043600" lon="5.90311400"><ele></ele><time>2014-4-4T16:18:52Z</time></trkpt>
<trkpt lat="44.86032200" lon="5.90316900"><ele></ele><time>2014-4-4T16:18:55Z</time></trkpt>
<trkpt lat="44.85993000" lon="5.90348000"><ele></ele><time>2014-4-4T16:18:58Z</time></trkpt>
<trkpt lat="44.85978400" lon="5.90356800"><ele></ele><time>2014-4-4T16:19:1Z</time></trkpt>
<trkpt lat="44.85940800" lon="5.90365700"><ele></ele><time>2014-4-4T16:19:4Z</time></trkpt>
<trkpt lat="44.85894600" lon="5.90384000"><ele></ele><time>2014-4-4T16:19:7Z</time></trkpt>
<trkpt lat="44.85844900" lon="5.90404500"><ele></ele><time>2014-4-4T16:19:10Z</time></trkpt>
<trkpt lat="44.85800000" lon="5.90419900"><ele></ele><time>2014-4-4T16:19:13Z</time></trkpt>
<trkpt lat="44.85746400" lon="5.90436900"><ele></ele><time>2014-4-4T16:19:16Z</time></trkpt>
<trkpt lat="44.85705500" lon="5.90445900"><ele></ele><time>2014-4-4T16:19:19Z</time></trkpt>
<trkpt lat="44.85681600" lon="5.90448000"><ele></ele><time>2014-4-4T16:19:22Z</time></trkpt>
<trkpt lat="44.85653900" lon="5.90451900"><ele></ele><time>2014-4-4T16:19:25Z</time></trkpt>
<trkpt lat="44.85627800" lon="5.90457200"><ele></ele><time>2014-4-4T16:19:28Z</time></trkpt>
<trkpt lat="44.85607700" lon="5.90462300"><ele></ele><time>2014-4-4T16:19:31Z</time></trkpt>
<trkpt lat="44.85580800" lon="5.90467400"><ele></ele><time>2014-4-4T16:19:34Z</time></trkpt>
<trkpt lat="44.85553800" lon="5.90461500"><ele></ele><time>2014-4-4T16:19:37Z</time></trkpt>
<trkpt lat="44.85529100" lon="5.90461900"><ele></ele><time>2014-4-4T16:19:40Z</time></trkpt>
<trkpt lat="44.85513300" lon="5.90473300"><ele></ele><time>2014-4-4T16:19:43Z</time></trkpt>
<trkpt lat="44.85495300" lon="5.90493900"><ele></ele><time>2014-4-4T16:19:46Z</time></trkpt>
<trkpt lat="44.85472500" lon="5.90538000"><ele></ele><time>2014-4-4T16:19:49Z</time></trkpt>
<trkpt lat="44.85447200" lon="5.90588000"><ele></ele><time>2014-4-4T16:19:52Z</time></trkpt>
<trkpt lat="44.85427900" lon="5.90621900"><ele></ele><time>2014-4-4T16:19:55Z</time></trkpt>
<trkpt lat="44.85390300" lon="5.90655800"><ele></ele><time>2014-4-4T16:19:58Z</time></trkpt>
<trkpt lat="44.85315200" lon="5.90694400"><ele></ele><time>2014-4-4T16:20:1Z</time></trkpt>
<trkpt lat="44.85280700" lon="5.90720100"><ele></ele><time>2014-4-4T16:20:4Z</time></trkpt>
<trkpt lat="44.85267400" lon="5.90733800"><ele></ele><time>2014-4-4T16:20:7Z</time></trkpt>
<trkpt lat="44.85253400" lon="5.90770500"><ele></ele><time>2014-4-4T16:20:10Z</time></trkpt>
<trkpt lat="44.85253300" lon="5.90782800"><ele></ele><time>2014-4-4T16:20:13Z</time></trkpt>
<trkpt lat="44.85253900" lon="5.90835200"><ele></ele><time>2014-4-4T16:20:16Z</time></trkpt>
<trkpt lat="44.85239800" lon="5.90884500"><ele></ele><time>2014-4-4T16:20:19Z</time></trkpt>
<trkpt lat="44.85233400" lon="5.90895700"><ele></ele><time>2014-4-4T16:20:22Z</time></trkpt>
<trkpt lat="44.85195900" lon="5.90969700"><ele></ele><time>2014-4-4T16:20:25Z</time></trkpt>
<trkpt lat="44.85161300" lon="5.91057500"><ele></ele><time>2014-4-4T16:20:28Z</time></trkpt>
<trkpt lat="44.85139800" lon="5.91114400"><ele></ele><time>2014-4-4T16:20:31Z</time></trkpt>
<trkpt lat="44.85132500" lon="5.91131000"><ele></ele><time>2014-4-4T16:20:34Z</time></trkpt>
<trkpt lat="44.85123900" lon="5.91137000"><ele></ele><time>2014-4-4T16:20:37Z</time></trkpt>
<trkpt lat="44.85122000" lon="5.91132900"><ele></ele><time>2014-4-4T16:20:40Z</time></trkpt>
<trkpt lat="44.85123200" lon="5.91114900"><ele></ele><time>2014-4-4T16:20:43Z</time></trkpt>
<trkpt lat="44.85124300" lon="5.91094700"><ele></ele><time>2014-4-4T16:20:46Z</time></trkpt>
<trkpt lat="44.85120600" lon="5.91042100"><ele></ele><time>2014-4-4T16:20:49Z</time></trkpt>
<trkpt lat="44.85107500" lon="5.91016700"><ele></ele><time>2014-4-4T16:20:52Z</time></trkpt>
<trkpt lat="44.85091000" lon="5.91021100"><ele></ele><time>2014-4-4T16:20:55Z</time></trkpt>
<trkpt lat="44.85073300" lon="5.91045400"><ele></ele><time>2014-4-4T16:20:58Z</time></trkpt>
<trkpt lat="44.85067700" lon="5.91050800"><ele></ele><time>2014-4-4T16:21:1Z</time></trkpt>
<trkpt lat="44.85035500" lon="5.91081300"><ele></ele><time>2014-4-4T16:21:4Z</time></trkpt>
<trkpt lat="44.85011700" lon="5.91103600"><ele></ele><time>2014-4-4T16:21:7Z</time></trkpt>
<trkpt lat="44.84989000" lon="5.91125800"><ele></ele><time>2014-4-4T16:21:10Z</time></trkpt>
<trkpt lat="44.84985200" lon="5.91130000"><ele></ele><time>2014-4-4T16:21:13Z</time></trkpt>
<trkpt lat="44.84964400" lon="5.91168700"><ele></ele><time>2014-4-4T16:21:16Z</time></trkpt>
<trkpt lat="44.84944400" lon="5.91217900"><ele></ele><time>2014-4-4T16:21:19Z</time></trkpt>
<trkpt lat="44.84933900" lon="5.91242400"><ele></ele><time>2014-4-4T16:21:22Z</time></trkpt>
<trkpt lat="44.84925000" lon="5.91273200"><ele></ele><time>2014-4-4T16:21:25Z</time></trkpt>
<trkpt lat="44.84907400" lon="5.91299400"><ele></ele><time>2014-4-4T16:21:28Z</time></trkpt>
<trkpt lat="44.84890700" lon="5.91296800"><ele></ele><time>2014-4-4T16:21:31Z</time></trkpt>
<trkpt lat="44.84885400" lon="5.91291400"><ele></ele><time>2014-4-4T16:21:34Z</time></trkpt>
<trkpt lat="44.84870700" lon="5.91281000"><ele></ele><time>2014-4-4T16:21:37Z</time></trkpt>
<trkpt lat="44.84837000" lon="5.91273000"><ele></ele><time>2014-4-4T16:21:40Z</time></trkpt>
<trkpt lat="44.84801100" lon="5.91273900"><ele></ele><time>2014-4-4T16:21:43Z</time></trkpt>
<trkpt lat="44.84756100" lon="5.91286800"><ele></ele><time>2014-4-4T16:21:46Z</time></trkpt>
<trkpt lat="44.84724900" lon="5.91307200"><ele></ele><time>2014-4-4T16:21:49Z</time></trkpt>
<trkpt lat="44.84678100" lon="5.91347200"><ele></ele><time>2014-4-4T16:21:52Z</time></trkpt>
<trkpt lat="44.84642400" lon="5.91388700"><ele></ele><time>2014-4-4T16:21:55Z</time></trkpt>
<trkpt lat="44.84638100" lon="5.91393600"><ele></ele><time>2014-4-4T16:21:58Z</time></trkpt>
<trkpt lat="44.84608700" lon="5.91441100"><ele></ele><time>2014-4-4T16:22:1Z</time></trkpt>
<trkpt lat="44.84594200" lon="5.91464100"><ele></ele><time>2014-4-4T16:22:4Z</time></trkpt>
<trkpt lat="44.84591100" lon="5.91470100"><ele></ele><time>2014-4-4T16:22:7Z</time></trkpt>
<trkpt lat="44.84584500" lon="5.91490100"><ele></ele><time>2014-4-4T16:22:10Z</time></trkpt>
<trkpt lat="44.84565100" lon="5.91515900"><ele></ele><time>2014-4-4T16:22:13Z</time></trkpt>
<trkpt lat="44.84559500" lon="5.91518000"><ele></ele><time>2014-4-4T16:22:16Z</time></trkpt>
<trkpt lat="44.84531000" lon="5.91529900"><ele></ele><time>2014-4-4T16:22:19Z</time></trkpt>
<trkpt lat="44.84486400" lon="5.91565100"><ele></ele><time>2014-4-4T16:22:22Z</time></trkpt>
<trkpt lat="44.84443500" lon="5.91600500"><ele></ele><time>2014-4-4T16:22:25Z</time></trkpt>
<trkpt lat="44.84398500" lon="5.91633000"><ele></ele><time>2014-4-4T16:22:28Z</time></trkpt>
<trkpt lat="44.84361100" lon="5.91651500"><ele></ele><time>2014-4-4T16:22:31Z</time></trkpt>
<trkpt lat="44.84326000" lon="5.91661200"><ele></ele><time>2014-4-4T16:22:34Z</time></trkpt>
<trkpt lat="44.84302000" lon="5.91661900"><ele></ele><time>2014-4-4T16:22:37Z</time></trkpt>
<trkpt lat="44.84254100" lon="5.91646000"><ele></ele><time>2014-4-4T16:22:40Z</time></trkpt>
<trkpt lat="44.84219500" lon="5.91627100"><ele></ele><time>2014-4-4T16:22:43Z</time></trkpt>
<trkpt lat="44.84196700" lon="5.91630700"><ele></ele><time>2014-4-4T16:22:46Z</time></trkpt>
<trkpt lat="44.84182000" lon="5.91653400"><ele></ele><time>2014-4-4T16:22:49Z</time></trkpt>
<trkpt lat="44.84182200" lon="5.91676400"><ele></ele><time>2014-4-4T16:22:52Z</time></trkpt>
<trkpt lat="44.84191700" lon="5.91711100"><ele></ele><time>2014-4-4T16:22:55Z</time></trkpt>
<trkpt lat="44.84195900" lon="5.91740800"><ele></ele><time>2014-4-4T16:22:58Z</time></trkpt>
<trkpt lat="44.84195800" lon="5.91770000"><ele></ele><time>2014-4-4T16:23:1Z</time></trkpt>
<trkpt lat="44.84191400" lon="5.91830000"><ele></ele><time>2014-4-4T16:23:4Z</time></trkpt>
<trkpt lat="44.84180500" lon="5.91882400"><ele></ele><time>2014-4-4T16:23:7Z</time></trkpt>
<trkpt lat="44.84162000" lon="5.91945200"><ele></ele><time>2014-4-4T16:23:10Z</time></trkpt>
<trkpt lat="44.84163800" lon="5.91993100"><ele></ele><time>2014-4-4T16:23:13Z</time></trkpt>
<trkpt lat="44.84180300" lon="5.92024900"><ele></ele><time>2014-4-4T16:23:16Z</time></trkpt>
<trkpt lat="44.84188000" lon="5.92033600"><ele></ele><time>2014-4-4T16:23:19Z</time></trkpt>
<trkpt lat="44.84205200" lon="5.92049200"><ele></ele><time>2014-4-4T16:23:22Z</time></trkpt>
<trkpt lat="44.84255700" lon="5.92079300"><ele></ele><time>2014-4-4T16:23:25Z</time></trkpt>
<trkpt lat="44.84283800" lon="5.92102500"><ele></ele><time>2014-4-4T16:23:28Z</time></trkpt>
<trkpt lat="44.84312800" lon="5.92143800"><ele></ele><time>2014-4-4T16:23:31Z</time></trkpt>
<trkpt lat="44.84339100" lon="5.92211900"><ele></ele><time>2014-4-4T16:23:34Z</time></trkpt>
<trkpt lat="44.84339900" lon="5.92238900"><ele></ele><time>2014-4-4T16:23:37Z</time></trkpt>
<trkpt lat="44.84330300" lon="5.92249400"><ele></ele><time>2014-4-4T16:23:40Z</time></trkpt>
<trkpt lat="44.84313900" lon="5.92232100"><ele></ele><time>2014-4-4T16:23:43Z</time></trkpt>
<trkpt lat="44.84304700" lon="5.92219900"><ele></ele><time>2014-4-4T16:23:46Z</time></trkpt>
<trkpt lat="44.84277200" lon="5.92209800"><ele></ele><time>2014-4-4T16:23:49Z</time></trkpt>
<trkpt lat="44.84262500" lon="5.92215300"><ele></ele><time>2014-4-4T16:23:52Z</time></trkpt>
<trkpt lat="44.84222800" lon="5.92244200"><ele></ele><time>2014-4-4T16:23:55Z</time></trkpt>
<trkpt lat="44.84199700" lon="5.92265500"><ele></ele><time>2014-4-4T16:23:58Z</time></trkpt>
<trkpt lat="44.84173800" lon="5.92285100"><ele></ele><time>2014-4-4T16:24:1Z</time></trkpt>
<trkpt lat="44.84166900" lon="5.92291400"><ele></ele><time>2014-4-4T16:24:4Z</time></trkpt>
<trkpt lat="44.84150200" lon="5.92316800"><ele></ele><time>2014-4-4T16:24:7Z</time></trkpt>
<trkpt lat="44.84125100" lon="5.92342200"><ele></ele><time>2014-4-4T16:24:10Z</time></trkpt>
<trkpt lat="44.84098800" lon="5.92357500"><ele></ele><time>2014-4-4T16:24:13Z</time></trkpt>
<trkpt lat="44.84078500" lon="5.92369300"><ele></ele><time>2014-4-4T16:24:16Z</time></trkpt>
<trkpt lat="44.84040100" lon="5.92380100"><ele></ele><time>2014-4-4T16:24:19Z</time></trkpt>
<trkpt lat="44.84001100" lon="5.92397800"><ele></ele><time>2014-4-4T16:24:22Z</time></trkpt>
<trkpt lat="44.83963400" lon="5.92405500"><ele></ele><time>2014-4-4T16:24:25Z</time></trkpt>
<trkpt lat="44.83911300" lon="5.92426500"><ele></ele><time>2014-4-4T16:24:28Z</time></trkpt>
<trkpt lat="44.83853600" lon="5.92448600"><ele></ele><time>2014-4-4T16:24:31Z</time></trkpt>
<trkpt lat="44.83818700" lon="5.92460000"><ele></ele><time>2014-4-4T16:24:34Z</time></trkpt>
<trkpt lat="44.83759800" lon="5.92455700"><ele></ele><time>2014-4-4T16:24:37Z</time></trkpt>
<trkpt lat="44.83747900" lon="5.92454300"><ele></ele><time>2014-4-4T16:24:40Z</time></trkpt>
<trkpt lat="44.83673500" lon="5.92465700"><ele></ele><time>2014-4-4T16:24:43Z</time></trkpt>
<trkpt lat="44.83624000" lon="5.92479400"><ele></ele><time>2014-4-4T16:24:46Z</time></trkpt>
<trkpt lat="44.83589400" lon="5.92496400"><ele></ele><time>2014-4-4T16:24:49Z</time></trkpt>
<trkpt lat="44.83564700" lon="5.92520600"><ele></ele><time>2014-4-4T16:24:52Z</time></trkpt>
<trkpt lat="44.83559400" lon="5.92532500"><ele></ele><time>2014-4-4T16:24:55Z</time></trkpt>
<trkpt lat="44.83550200" lon="5.92558900"><ele></ele><time>2014-4-4T16:24:58Z</time></trkpt>
<trkpt lat="44.83524300" lon="5.92592500"><ele></ele><time>2014-4-4T16:25:1Z</time></trkpt>
<trkpt lat="44.83508100" lon="5.92589800"><ele></ele><time>2014-4-4T16:25:4Z</time></trkpt>
<trkpt lat="44.83500400" lon="5.92584000"><ele></ele><time>2014-4-4T16:25:7Z</time></trkpt>
<trkpt lat="44.83458200" lon="5.92563700"><ele></ele><time>2014-4-4T16:25:10Z</time></trkpt>
<trkpt lat="44.83420900" lon="5.92577900"><ele></ele><time>2014-4-4T16:25:13Z</time></trkpt>
<trkpt lat="44.83384700" lon="5.92612300"><ele></ele><time>2014-4-4T16:25:16Z</time></trkpt>
<trkpt lat="44.83317100" lon="5.92701900"><ele></ele><time>2014-4-4T16:25:19Z</time></trkpt>
<trkpt lat="44.83273500" lon="5.92775700"><ele></ele><time>2014-4-4T16:25:22Z</time></trkpt>
<trkpt lat="44.83243000" lon="5.92848000"><ele></ele><time>2014-4-4T16:25:25Z</time></trkpt>
<trkpt lat="44.83233700" lon="5.92877400"><ele></ele><time>2014-4-4T16:25:28Z</time></trkpt>
<trkpt lat="44.83226200" lon="5.92937400"><ele></ele><time>2014-4-4T16:25:31Z</time></trkpt>
<trkpt lat="44.83226400" lon="5.92952200"><ele></ele><time>2014-4-4T16:25:34Z</time></trkpt>
<trkpt lat="44.83238900" lon="5.93009800"><ele></ele><time>2014-4-4T16:25:37Z</time></trkpt>
<trkpt lat="44.83264800" lon="5.93077800"><ele></ele><time>2014-4-4T16:25:40Z</time></trkpt>
<trkpt lat="44.83298900" lon="5.93127900"><ele></ele><time>2014-4-4T16:25:43Z</time></trkpt>
<trkpt lat="44.83305400" lon="5.93138000"><ele></ele><time>2014-4-4T16:25:46Z</time></trkpt>
<trkpt lat="44.83322600" lon="5.93186200"><ele></ele><time>2014-4-4T16:25:49Z</time></trkpt>
<trkpt lat="44.83327400" lon="5.93238200"><ele></ele><time>2014-4-4T16:25:52Z</time></trkpt>
<trkpt lat="44.83326900" lon="5.93250500"><ele></ele><time>2014-4-4T16:25:55Z</time></trkpt>
<trkpt lat="44.83321600" lon="5.93297500"><ele></ele><time>2014-4-4T16:25:58Z</time></trkpt>
<trkpt lat="44.83325200" lon="5.93353300"><ele></ele><time>2014-4-4T16:26:1Z</time></trkpt>
<trkpt lat="44.83326900" lon="5.93363400"><ele></ele><time>2014-4-4T16:26:4Z</time></trkpt>
<trkpt lat="44.83345900" lon="5.93413700"><ele></ele><time>2014-4-4T16:26:7Z</time></trkpt>
<trkpt lat="44.83355500" lon="5.93434800"><ele></ele><time>2014-4-4T16:26:10Z</time></trkpt>
<trkpt lat="44.83360200" lon="5.93474000"><ele></ele><time>2014-4-4T16:26:13Z</time></trkpt>
<trkpt lat="44.83349300" lon="5.93502700"><ele></ele><time>2014-4-4T16:26:16Z</time></trkpt>
<trkpt lat="44.83311000" lon="5.93557600"><ele></ele><time>2014-4-4T16:26:19Z</time></trkpt>
<trkpt lat="44.83274900" lon="5.93611600"><ele></ele><time>2014-4-4T16:26:22Z</time></trkpt>
<trkpt lat="44.83252600" lon="5.93658300"><ele></ele><time>2014-4-4T16:26:25Z</time></trkpt>
<trkpt lat="44.83246500" lon="5.93672300"><ele></ele><time>2014-4-4T16:26:28Z</time></trkpt>
<trkpt lat="44.83241100" lon="5.93690300"><ele></ele><time>2014-4-4T16:26:31Z</time></trkpt>
<trkpt lat="44.83240400" lon="5.93714500"><ele></ele><time>2014-4-4T16:26:34Z</time></trkpt>
<trkpt lat="44.83248600" lon="5.93752700"><ele></ele><time>2014-4-4T16:26:37Z</time></trkpt>
<trkpt lat="44.83255000" lon="5.93789000"><ele></ele><time>2014-4-4T16:26:40Z</time></trkpt>
<trkpt lat="44.83266100" lon="5.93824800"><ele></ele><time>2014-4-4T16:26:43Z</time></trkpt>
<trkpt lat="44.83288100" lon="5.93846500"><ele></ele><time>2014-4-4T16:26:46Z</time></trkpt>
<trkpt lat="44.83303100" lon="5.93853300"><ele></ele><time>2014-4-4T16:26:49Z</time></trkpt>
<trkpt lat="44.83348000" lon="5.93885600"><ele></ele><time>2014-4-4T16:26:52Z</time></trkpt>
<trkpt lat="44.83395900" lon="5.93923100"><ele></ele><time>2014-4-4T16:26:55Z</time></trkpt>
<trkpt lat="44.83402400" lon="5.93929800"><ele></ele><time>2014-4-4T16:26:58Z</time></trkpt>
<trkpt lat="44.83412700" lon="5.93951200"><ele></ele><time>2014-4-4T16:27:1Z</time></trkpt>
<trkpt lat="44.83405100" lon="5.93963300"><ele></ele><time>2014-4-4T16:27:4Z</time></trkpt>
<trkpt lat="44.83392600" lon="5.93968000"><ele></ele><time>2014-4-4T16:27:7Z</time></trkpt>
<trkpt lat="44.83363200" lon="5.93981600"><ele></ele><time>2014-4-4T16:27:10Z</time></trkpt>
<trkpt lat="44.83357400" lon="5.93990300"><ele></ele><time>2014-4-4T16:27:13Z</time></trkpt>
<trkpt lat="44.83352500" lon="5.93998400"><ele></ele><time>2014-4-4T16:27:16Z</time></trkpt>
<trkpt lat="44.83333600" lon="5.94020600"><ele></ele><time>2014-4-4T16:27:19Z</time></trkpt>
<trkpt lat="44.83321100" lon="5.94030800"><ele></ele><time>2014-4-4T16:27:22Z</time></trkpt>
<trkpt lat="44.83305400" lon="5.94033100"><ele></ele><time>2014-4-4T16:27:25Z</time></trkpt>
<trkpt lat="44.83282400" lon="5.94037000"><ele></ele><time>2014-4-4T16:27:28Z</time></trkpt>
<trkpt lat="44.83256700" lon="5.94041200"><ele></ele><time>2014-4-4T16:27:31Z</time></trkpt>
<trkpt lat="44.83208900" lon="5.94055400"><ele></ele><time>2014-4-4T16:27:34Z</time></trkpt>
<trkpt lat="44.83176900" lon="5.94066900"><ele></ele><time>2014-4-4T16:27:37Z</time></trkpt>
<trkpt lat="44.83149300" lon="5.94061500"><ele></ele><time>2014-4-4T16:27:40Z</time></trkpt>
<trkpt lat="44.83143600" lon="5.94056100"><ele></ele><time>2014-4-4T16:27:43Z</time></trkpt>
<trkpt lat="44.83105700" lon="5.94012300"><ele></ele><time>2014-4-4T16:27:46Z</time></trkpt>
<trkpt lat="44.83063500" lon="5.93967900"><ele></ele><time>2014-4-4T16:27:49Z</time></trkpt>
<trkpt lat="44.83019400" lon="5.93917500"><ele></ele><time>2014-4-4T16:27:52Z</time></trkpt>
<trkpt lat="44.83001700" lon="5.93886000"><ele></ele><time>2014-4-4T16:27:55Z</time></trkpt>
<trkpt lat="44.82969800" lon="5.93809700"><ele></ele><time>2014-4-4T16:27:58Z</time></trkpt>
<trkpt lat="44.82964400" lon="5.93795700"><ele></ele><time>2014-4-4T16:28:1Z</time></trkpt>
<trkpt lat="44.82943600" lon="5.93740700"><ele></ele><time>2014-4-4T16:28:4Z</time></trkpt>
<trkpt lat="44.82931700" lon="5.93680000"><ele></ele><time>2014-4-4T16:28:7Z</time></trkpt>
<trkpt lat="44.82926300" lon="5.93618300"><ele></ele><time>2014-4-4T16:28:10Z</time></trkpt>
<trkpt lat="44.82928200" lon="5.93586900"><ele></ele><time>2014-4-4T16:28:13Z</time></trkpt>
<trkpt lat="44.82932400" lon="5.93557400"><ele></ele><time>2014-4-4T16:28:16Z</time></trkpt>
<trkpt lat="44.82933600" lon="5.93531000"><ele></ele><time>2014-4-4T16:28:19Z</time></trkpt>
<trkpt lat="44.82924900" lon="5.93502600"><ele></ele><time>2014-4-4T16:28:22Z</time></trkpt>
<trkpt lat="44.82903900" lon="5.93487600"><ele></ele><time>2014-4-4T16:28:25Z</time></trkpt>
<trkpt lat="44.82867900" lon="5.93480100"><ele></ele><time>2014-4-4T16:28:28Z</time></trkpt>
<trkpt lat="44.82847900" lon="5.93481600"><ele></ele><time>2014-4-4T16:28:31Z</time></trkpt>
<trkpt lat="44.82806200" lon="5.93491200"><ele></ele><time>2014-4-4T16:28:34Z</time></trkpt>
<trkpt lat="44.82778000" lon="5.93514100"><ele></ele><time>2014-4-4T16:28:37Z</time></trkpt>
<trkpt lat="44.82772200" lon="5.93534500"><ele></ele><time>2014-4-4T16:28:40Z</time></trkpt>
<trkpt lat="44.82771400" lon="5.93542100"><ele></ele><time>2014-4-4T16:28:43Z</time></trkpt>
<trkpt lat="44.82773600" lon="5.93568800"><ele></ele><time>2014-4-4T16:28:46Z</time></trkpt>
<trkpt lat="44.82772900" lon="5.93582900"><ele></ele><time>2014-4-4T16:28:49Z</time></trkpt>
<trkpt lat="44.82771700" lon="5.93599300"><ele></ele><time>2014-4-4T16:28:52Z</time></trkpt>
<trkpt lat="44.82769100" lon="5.93650700"><ele></ele><time>2014-4-4T16:28:55Z</time></trkpt>
<trkpt lat="44.82773000" lon="5.93720400"><ele></ele><time>2014-4-4T16:28:58Z</time></trkpt>
<trkpt lat="44.82773800" lon="5.93769000"><ele></ele><time>2014-4-4T16:29:1Z</time></trkpt>
<trkpt lat="44.82769600" lon="5.93870500"><ele></ele><time>2014-4-4T16:29:4Z</time></trkpt>
<trkpt lat="44.82768000" lon="5.93907900"><ele></ele><time>2014-4-4T16:29:7Z</time></trkpt>
<trkpt lat="44.82755300" lon="5.93959900"><ele></ele><time>2014-4-4T16:29:10Z</time></trkpt>
<trkpt lat="44.82749900" lon="5.93972400"><ele></ele><time>2014-4-4T16:29:13Z</time></trkpt>
<trkpt lat="44.82710800" lon="5.94068200"><ele></ele><time>2014-4-4T16:29:16Z</time></trkpt>
<trkpt lat="44.82680200" lon="5.94117600"><ele></ele><time>2014-4-4T16:29:19Z</time></trkpt>
<trkpt lat="44.82641300" lon="5.94154900"><ele></ele><time>2014-4-4T16:29:22Z</time></trkpt>
<trkpt lat="44.82539200" lon="5.94239200"><ele></ele><time>2014-4-4T16:29:25Z</time></trkpt>
<trkpt lat="44.82512300" lon="5.94270200"><ele></ele><time>2014-4-4T16:29:28Z</time></trkpt>
<trkpt lat="44.82489000" lon="5.94323900"><ele></ele><time>2014-4-4T16:29:31Z</time></trkpt>
<trkpt lat="44.82486300" lon="5.94368100"><ele></ele><time>2014-4-4T16:29:34Z</time></trkpt>
<trkpt lat="44.82484700" lon="5.94444400"><ele></ele><time>2014-4-4T16:29:37Z</time></trkpt>
<trkpt lat="44.82471000" lon="5.94482200"><ele></ele><time>2014-4-4T16:29:40Z</time></trkpt>
<trkpt lat="44.82463900" lon="5.94492500"><ele></ele><time>2014-4-4T16:29:43Z</time></trkpt>
<trkpt lat="44.82448300" lon="5.94511100"><ele></ele><time>2014-4-4T16:29:46Z</time></trkpt>
<trkpt lat="44.82403700" lon="5.94594800"><ele></ele><time>2014-4-4T16:29:49Z</time></trkpt>
<trkpt lat="44.82397600" lon="5.94607400"><ele></ele><time>2014-4-4T16:29:52Z</time></trkpt>
<trkpt lat="44.82348300" lon="5.94711400"><ele></ele><time>2014-4-4T16:29:55Z</time></trkpt>
<trkpt lat="44.82326200" lon="5.94760800"><ele></ele><time>2014-4-4T16:29:58Z</time></trkpt>
<trkpt lat="44.82315100" lon="5.94820400"><ele></ele><time>2014-4-4T16:30:1Z</time></trkpt>
<trkpt lat="44.82313400" lon="5.94830500"><ele></ele><time>2014-4-4T16:30:4Z</time></trkpt>
<trkpt lat="44.82311600" lon="5.94847600"><ele></ele><time>2014-4-4T16:30:7Z</time></trkpt>
<trkpt lat="44.82309000" lon="5.94858800"><ele></ele><time>2014-4-4T16:30:10Z</time></trkpt>
<trkpt lat="44.82305000" lon="5.94864200"><ele></ele><time>2014-4-4T16:30:13Z</time></trkpt>
<trkpt lat="44.82300900" lon="5.94866300"><ele></ele><time>2014-4-4T16:30:16Z</time></trkpt>
<trkpt lat="44.82300800" lon="5.94866000"><ele></ele><time>2014-4-4T16:30:19Z</time></trkpt>
<trkpt lat="44.82299400" lon="5.94866600"><ele></ele><time>2014-4-4T16:30:22Z</time></trkpt>
<trkpt lat="44.82297900" lon="5.94867500"><ele></ele><time>2014-4-4T16:30:25Z</time></trkpt>
<trkpt lat="44.82293300" lon="5.94880200"><ele></ele><time>2014-4-4T16:30:28Z</time></trkpt>
<trkpt lat="44.82293400" lon="5.94898000"><ele></ele><time>2014-4-4T16:30:31Z</time></trkpt>
<trkpt lat="44.82292700" lon="5.94913200"><ele></ele><time>2014-4-4T16:30:34Z</time></trkpt>
<trkpt lat="44.82293600" lon="5.94959400"><ele></ele><time>2014-4-4T16:30:37Z</time></trkpt>
<trkpt lat="44.82294800" lon="5.95007700"><ele></ele><time>2014-4-4T16:30:40Z</time></trkpt>
<trkpt lat="44.82295200" lon="5.95054100"><ele></ele><time>2014-4-4T16:30:43Z</time></trkpt>
<trkpt lat="44.82297600" lon="5.95107800"><ele></ele><time>2014-4-4T16:30:46Z</time></trkpt>
<trkpt lat="44.82304300" lon="5.95161800"><ele></ele><time>2014-4-4T16:30:49Z</time></trkpt>
<trkpt lat="44.82312500" lon="5.95216000"><ele></ele><time>2014-4-4T16:30:52Z</time></trkpt>
<trkpt lat="44.82305800" lon="5.95248500"><ele></ele><time>2014-4-4T16:30:55Z</time></trkpt>
<trkpt lat="44.82288900" lon="5.95259100"><ele></ele><time>2014-4-4T16:30:58Z</time></trkpt>
<trkpt lat="44.82272100" lon="5.95251900"><ele></ele><time>2014-4-4T16:31:1Z</time></trkpt>
<trkpt lat="44.82260500" lon="5.95233300"><ele></ele><time>2014-4-4T16:31:4Z</time></trkpt>
<trkpt lat="44.82247400" lon="5.95191900"><ele></ele><time>2014-4-4T16:31:7Z</time></trkpt>
<trkpt lat="44.82244400" lon="5.95180500"><ele></ele><time>2014-4-4T16:31:10Z</time></trkpt>
<trkpt lat="44.82232000" lon="5.95137100"><ele></ele><time>2014-4-4T16:31:13Z</time></trkpt>
<trkpt lat="44.82223800" lon="5.95113700"><ele></ele><time>2014-4-4T16:31:16Z</time></trkpt>
<trkpt lat="44.82213500" lon="5.95088600"><ele></ele><time>2014-4-4T16:31:19Z</time></trkpt>
<trkpt lat="44.82200300" lon="5.95057300"><ele></ele><time>2014-4-4T16:31:22Z</time></trkpt>
<trkpt lat="44.82188900" lon="5.95029900"><ele></ele><time>2014-4-4T16:31:25Z</time></trkpt>
<trkpt lat="44.82181100" lon="5.95012100"><ele></ele><time>2014-4-4T16:31:28Z</time></trkpt>
<trkpt lat="44.82175300" lon="5.95000400"><ele></ele><time>2014-4-4T16:31:31Z</time></trkpt>
<trkpt lat="44.82161700" lon="5.94978000"><ele></ele><time>2014-4-4T16:31:34Z</time></trkpt>
<trkpt lat="44.82152400" lon="5.94965800"><ele></ele><time>2014-4-4T16:31:37Z</time></trkpt>
<trkpt lat="44.82151700" lon="5.94965300"><ele></ele><time>2014-4-4T16:31:40Z</time></trkpt>
<trkpt lat="44.82141100" lon="5.94958500"><ele></ele><time>2014-4-4T16:31:43Z</time></trkpt>
<trkpt lat="44.82131100" lon="5.94943900"><ele></ele><time>2014-4-4T16:31:46Z</time></trkpt>
<trkpt lat="44.82123000" lon="5.94928200"><ele></ele><time>2014-4-4T16:31:49Z</time></trkpt>
<trkpt lat="44.82112000" lon="5.94909600"><ele></ele><time>2014-4-4T16:31:52Z</time></trkpt>
<trkpt lat="44.82103200" lon="5.94892700"><ele></ele><time>2014-4-4T16:31:55Z</time></trkpt>
<trkpt lat="44.82095800" lon="5.94877700"><ele></ele><time>2014-4-4T16:31:58Z</time></trkpt>
<trkpt lat="44.82087100" lon="5.94854300"><ele></ele><time>2014-4-4T16:32:1Z</time></trkpt>
<trkpt lat="44.82079700" lon="5.94825900"><ele></ele><time>2014-4-4T16:32:4Z</time></trkpt>
<trkpt lat="44.82073800" lon="5.94803600"><ele></ele><time>2014-4-4T16:32:7Z</time></trkpt>
<trkpt lat="44.82067000" lon="5.94780500"><ele></ele><time>2014-4-4T16:32:10Z</time></trkpt>
<trkpt lat="44.82060700" lon="5.94757300"><ele></ele><time>2014-4-4T16:32:13Z</time></trkpt>
<trkpt lat="44.82054200" lon="5.94736700"><ele></ele><time>2014-4-4T16:32:16Z</time></trkpt>
<trkpt lat="44.82052200" lon="5.94726900"><ele></ele><time>2014-4-4T16:32:19Z</time></trkpt>
<trkpt lat="44.82051400" lon="5.94715600"><ele></ele><time>2014-4-4T16:32:22Z</time></trkpt>
<trkpt lat="44.82044300" lon="5.94698300"><ele></ele><time>2014-4-4T16:32:25Z</time></trkpt>
<trkpt lat="44.82034300" lon="5.94669600"><ele></ele><time>2014-4-4T16:32:28Z</time></trkpt>
<trkpt lat="44.82028900" lon="5.94650700"><ele></ele><time>2014-4-4T16:32:31Z</time></trkpt>
<trkpt lat="44.82027900" lon="5.94647600"><ele></ele><time>2014-4-4T16:32:34Z</time></trkpt>
<trkpt lat="44.82020100" lon="5.94625800"><ele></ele><time>2014-4-4T16:32:37Z</time></trkpt>
<trkpt lat="44.82010700" lon="5.94614600"><ele></ele><time>2014-4-4T16:32:40Z</time></trkpt>
<trkpt lat="44.81992700" lon="5.94611300"><ele></ele><time>2014-4-4T16:32:43Z</time></trkpt>
<trkpt lat="44.81973600" lon="5.94619800"><ele></ele><time>2014-4-4T16:32:46Z</time></trkpt>
<trkpt lat="44.81968000" lon="5.94637700"><ele></ele><time>2014-4-4T16:32:49Z</time></trkpt>
<trkpt lat="44.81970600" lon="5.94660300"><ele></ele><time>2014-4-4T16:32:52Z</time></trkpt>
<trkpt lat="44.81969400" lon="5.94685700"><ele></ele><time>2014-4-4T16:32:55Z</time></trkpt>
<trkpt lat="44.81967100" lon="5.94707400"><ele></ele><time>2014-4-4T16:32:58Z</time></trkpt>
<trkpt lat="44.81959500" lon="5.94725700"><ele></ele><time>2014-4-4T16:33:1Z</time></trkpt>
<trkpt lat="44.81951800" lon="5.94739600"><ele></ele><time>2014-4-4T16:33:4Z</time></trkpt>
<trkpt lat="44.81939200" lon="5.94756500"><ele></ele><time>2014-4-4T16:33:7Z</time></trkpt>
<trkpt lat="44.81927100" lon="5.94767200"><ele></ele><time>2014-4-4T16:33:10Z</time></trkpt>
<trkpt lat="44.81911800" lon="5.94766000"><ele></ele><time>2014-4-4T16:33:13Z</time></trkpt>
<trkpt lat="44.81893900" lon="5.94759800"><ele></ele><time>2014-4-4T16:33:16Z</time></trkpt>
<trkpt lat="44.81878300" lon="5.94754900"><ele></ele><time>2014-4-4T16:33:19Z</time></trkpt>
<trkpt lat="44.81865300" lon="5.94750500"><ele></ele><time>2014-4-4T16:33:22Z</time></trkpt>
<trkpt lat="44.81853200" lon="5.94744800"><ele></ele><time>2014-4-4T16:33:25Z</time></trkpt>
<trkpt lat="44.81844000" lon="5.94741600"><ele></ele><time>2014-4-4T16:33:28Z</time></trkpt>
<trkpt lat="44.81835500" lon="5.94738600"><ele></ele><time>2014-4-4T16:33:31Z</time></trkpt>
<trkpt lat="44.81832800" lon="5.94738500"><ele></ele><time>2014-4-4T16:33:34Z</time></trkpt>
<trkpt lat="44.81827000" lon="5.94750800"><ele></ele><time>2014-4-4T16:33:37Z</time></trkpt>
<trkpt lat="44.81835200" lon="5.94753400"><ele></ele><time>2014-4-4T16:33:40Z</time></trkpt>
<trkpt lat="44.81849600" lon="5.94751900"><ele></ele><time>2014-4-4T16:33:43Z</time></trkpt>
<trkpt lat="44.81850900" lon="5.94751000"><ele></ele><time>2014-4-4T16:33:46Z</time></trkpt>
<trkpt lat="44.81853600" lon="5.94746400"><ele></ele><time>2014-4-4T16:33:49Z</time></trkpt>
</trkseg></trk></gpx>